[[{"header":{"parameterUnit":"m.s-1","parameterCategory":1,"la1":30.6,"la2":28.766,"lo1":-90.7593,"lo2":-88.6598,"dy":0.0162,"dx":0.0183,"nx":116,"ny":114,"refTime":"2024-06-23T12:00:00:Z","depth":0,"parameterNumber":2,"parameterNumberName":"U-component_of_WINDS"},"data":[0.0,0.0,0.0,0.0,0.0,0.0,0.0,0.0,0.0,0.0,0.0,0.0,0.0,0.0,0.0,0.0,0.0,0.0,0.0,0.0,0.0,0.0,0.0,0.0,0.0,0.0,0.0,0.0,0.0,0.0,0.0,0.0,0.0,0.0,0.0,0.0,0.0,0.0,0.0,0.0,0.0,0.0,0.0,0.0,0.0,0.0,0.0,0.0,0.0,0.0,0.0,0.0,0.0,0.0,0.0,0.0,0.0,0.0,0.0,0.0,0.0,0.0,0.0,0.0,0.0,0.0,0.0,0.0,0.0,0.0,0.0,0.0,0.0,0.0,0.0,0.0,0.0,0.0,0.0,0.0,0.0,0.0,0.0,0.0,0.0,0.0,0.0,0.0,0.0,0.0,0.0,0.0,0.0,0.0,0.0,0.0,0.0,0.0,0.0,0.0,0.0,0.0,0.0,0.0,0.0,0.0,0.0,0.0,0.0,0.0,0.0,0.0,0.0,0.0,0.0,0.0,0.0,0.0,0.0,0.0,0.0,0.0,0.0,0.0,0.0,0.0,0.0,0.0,0.0,0.0,0.0,0.0,0.0,0.0,0.0,0.0,0.0,0.0,0.0,0.0,0.0,0.0,0.0,0.0,0.0,0.0,0.0,0.0,0.0,0.0,0.0,0.0,0.0,0.0,0.0,0.0,0.0,0.0,0.0,0.0,0.0,0.0,0.0,0.0,0.0,0.0,0.0,0.0,0.0,0.0,0.0,0.0,0.0,0.0,0.0,0.0,0.0,0.0,0.0,0.0,0.0,0.0,0.0,0.0,0.0,0.0,0.0,0.0,0.0,0.0,0.0,0.0,0.0,0.0,0.0,0.0,0.0,0.0,0.0,0.0,0.0,0.0,0.0,0.0,0.0,0.0,0.0,0.0,0.0,0.0,0.0,0.0,0.0,0.0,0.0,0.0,0.0,0.0,0.0,0.0,0.0,0.0,0.0,0.0,0.0,0.0,0.0,0.0,0.0,0.0,0.0,0.0,0.0,0.0,0.0,0.0,0.0,0.0,0.0,0.0,0.0,0.0,0.0,0.0,0.0,0.0,0.0,0.0,0.0,0.0,0.0,0.0,0.0,0.0,0.0,0.0,0.0,0.0,0.0,0.0,0.0,0.0,0.0,0.0,0.0,0.0,0.0,0.0,0.0,0.0,0.0,0.0,0.0,0.0,0.0,0.0,0.0,0.0,0.0,0.0,0.0,0.0,0.0,0.0,0.0,0.0,0.0,0.0,0.0,0.0,0.0,0.0,0.0,0.0,0.0,0.0,0.0,0.0,0.0,0.0,0.0,0.0,0.0,0.0,0.0,0.0,0.0,0.0,0.0,0.0,0.0,0.0,0.0,0.0,0.0,0.0,0.0,0.0,0.0,0.0,0.0,0.0,0.0,0.0,0.0,0.0,0.0,0.0,0.0,0.0,0.0,0.0,0.0,0.0,0.0,0.0,0.0,0.0,0.0,0.0,0.0,0.0,0.0,0.0,0.0,0.0,0.0,0.0,0.0,0.0,0.0,0.0,0.0,0.0,0.0,0.0,0.0,0.0,0.0,0.0,0.0,0.0,0.0,0.0,0.0,0.0,0.0,0.0,0.0,0.0,0.0,0.0,0.0,0.0,0.0,0.0,0.0,0.0,0.0,0.0,0.0,0.0,0.0,0.0,0.0,0.0,0.0,0.0,0.0,0.0,0.0,0.0,0.0,0.0,0.0,0.0,0.0,0.0,0.0,0.0,0.0,0.0,0.0,0.0,0.0,0.0,0.0,0.0,0.0,0.0,0.0,0.0,0.0,0.0,0.0,0.0,0.0,0.0,0.0,0.0,0.0,0.0,0.0,0.0,0.0,0.0,0.0,0.0,0.0,0.0,0.0,0.0,0.0,0.0,0.0,0.0,0.0,0.0,0.0,0.0,0.0,0.0,0.0,0.0,0.0,0.0,0.0,0.0,0.0,0.0,0.0,0.0,0.0,0.0,0.0,0.0,0.0,0.0,0.0,0.0,0.0,0.0,0.0,0.0,0.0,0.0,0.0,0.0,0.0,0.0,0.0,0.0,0.0,0.0,0.0,0.0,0.0,0.0,0.0,0.0,0.0,0.0,0.0,0.0,0.0,0.0,0.0,0.0,0.0,0.0,0.0,0.0,0.0,0.0,0.0,0.0,0.0,0.0,0.0,0.0,0.0,0.0,0.0,0.0,0.0,0.0,0.0,0.0,0.0,0.0,0.0,0.0,0.0,0.0,0.0,0.0,0.0,0.0,0.0,0.0,0.0,0.0,0.0,0.0,0.0,0.0,0.0,0.0,0.0,0.0,0.0,0.0,0.0,0.0,0.0,0.0,0.0,0.0,0.0,0.0,0.0,0.0,0.0,0.0,0.0,0.0,0.0,0.0,0.0,0.0,0.0,0.0,0.0,0.0,0.0,0.0,0.0,0.0,0.0,0.0,0.0,0.0,0.0,0.0,0.0,0.0,0.0,0.0,0.0,0.0,0.0,0.0,0.0,0.0,0.0,0.0,0.0,0.0,0.0,0.0,0.0,0.0,0.0,0.0,0.0,0.0,0.0,0.0,0.0,0.0,0.0,0.0,0.0,0.0,0.0,0.0,0.0,0.0,0.0,0.0,0.0,0.0,0.0,0.0,0.0,0.0,0.0,0.0,0.0,0.0,0.0,0.0,0.0,0.0,0.0,0.0,0.0,0.0,0.0,0.0,0.0,0.0,0.0,0.0,0.0,0.0,0.0,0.0,0.0,0.0,0.0,0.0,0.0,0.0,0.0,0.0,0.0,0.0,0.0,0.0,0.0,0.0,0.0,0.0,0.0,0.0,0.0,0.0,0.0,0.0,0.0,0.0,0.0,0.0,0.0,0.0,0.0,0.0,0.0,0.0,0.0,0.0,0.0,0.0,0.0,0.0,0.0,0.0,0.0,0.0,0.0,0.0,0.0,0.0,0.0,0.0,0.0,0.0,0.0,0.0,0.0,0.0,0.0,0.0,0.0,0.0,0.0,0.0,0.0,0.0,0.0,0.0,0.0,0.0,0.0,0.0,0.0,0.0,0.0,0.0,0.0,0.0,0.0,0.0,0.0,0.0,0.0,0.0,0.0,0.0,0.0,0.0,0.0,0.0,0.0,0.0,0.0,0.0,0.0,0.0,0.0,0.0,0.0,0.0,0.0,0.0,0.0,0.0,0.0,0.0,0.0,0.0,0.0,0.0,0.0,0.0,0.0,0.0,0.0,0.0,0.0,0.0,0.0,0.0,0.0,0.0,0.0,0.0,0.0,0.0,0.0,0.0,0.0,0.0,0.0,0.0,0.0,0.0,0.0,0.0,0.0,0.0,0.0,0.0,0.0,0.0,0.0,0.0,0.0,0.0,0.0,0.0,0.0,0.0,0.0,0.0,0.0,0.0,0.0,0.0,0.0,0.0,0.0,0.0,0.0,0.0,0.0,0.0,0.0,0.0,0.0,0.0,0.0,0.0,0.0,0.0,0.0,0.0,0.0,0.0,0.0,0.0,0.0,0.0,0.0,0.0,0.0,0.0,0.0,0.0,0.0,0.0,0.0,0.0,0.0,0.0,0.0,0.0,0.0,0.0,0.0,0.0,0.0,0.0,0.0,0.0,0.0,0.0,0.0,0.0,0.0,0.0,0.0,0.0,0.0,0.0,0.0,0.0,0.0,0.0,0.0,0.0,0.0,0.0,0.0,0.0,0.0,0.0,0.0,0.0,0.0,0.0,0.0,0.0,0.0,0.0,0.0,0.0,0.0,0.0,0.0,0.0,0.0,0.0,0.0,0.0,0.0,0.0,0.0,0.0,0.0,0.0,0.0,0.0,0.0,0.0,0.0,0.0,0.0,0.0,0.0,0.0,0.0,0.0,0.0,0.0,0.0,0.0,0.0,0.0,0.0,0.0,0.0,0.0,0.0,0.0,0.0,0.0,0.0,0.0,0.0,0.0,0.0,0.0,0.0,0.0,0.0,0.0,0.0,0.0,0.0,0.0,0.0,0.0,0.0,0.0,0.0,0.0,0.0,0.0,0.0,0.0,0.0,0.0,0.0,0.0,0.0,0.0,0.0,0.0,0.0,0.0,0.0,0.0,0.0,0.0,0.0,0.0,0.0,0.0,0.0,0.0,0.0,0.0,0.0,0.0,0.0,0.0,0.0,0.0,0.0,0.0,0.0,0.0,0.0,0.0,0.0,0.0,0.0,0.0,0.0,0.0,0.0,0.0,0.0,0.0,0.0,0.0,0.0,0.0,0.0,0.0,0.0,0.0,0.0,0.0,0.0,0.0,0.0,0.0,0.0,0.0,0.0,0.0,0.0,0.0,0.0,0.0,0.0,0.0,0.0,0.0,0.0,0.0,0.0,0.0,0.0,0.0,0.0,0.0,0.0,0.0,0.0,0.0,0.0,0.0,0.0,0.0,0.0,0.0,0.0,0.0,0.0,0.0,0.0,0.0,0.0,0.0,0.0,0.0,0.0,0.0,0.0,0.0,0.0,0.0,0.0,0.0,0.0,0.0,0.0,0.0,0.0,0.0,0.0,0.0,0.0,0.0,0.0,0.0,0.0,0.0,0.0,0.0,0.0,0.0,0.0,0.0,0.0,0.0,0.0,0.0,0.0,0.0,0.0,0.0,0.0,0.0,0.0,0.0,0.0,0.0,0.0,0.0,0.0,0.0,0.0,0.0,0.0,0.0,0.0,0.0,0.0,0.0,0.0,0.0,0.0,0.0,0.0,0.0,0.0,0.0,0.0,0.0,0.0,0.0,0.0,0.0,0.0,0.0,0.0,0.0,0.0,0.0,0.0,0.0,0.0,0.0,0.0,0.0,0.0,0.0,0.0,0.0,0.0,0.0,0.0,0.0,0.0,0.0,0.0,0.0,0.0,0.0,0.0,0.0,0.0,0.0,0.0,0.0,0.0,0.0,0.0,0.0,0.0,0.0,0.0,0.0,0.0,0.0,0.0,0.0,0.0,0.0,0.0,0.0,0.0,0.0,0.0,0.0,0.0,0.0,0.0,0.0,0.0,0.0,0.0,0.0,0.0,0.0,0.0,0.0,0.0,0.0,0.0,0.0,0.0,0.0,0.0,0.0,0.0,0.0,0.0,0.0,0.0,0.0,0.0,0.0,0.0,0.0,0.0,0.0,0.0,0.0,0.0,0.0,0.0,0.0,0.0,0.0,0.0,0.0,0.0,0.0,0.0,0.0,0.0,0.0,0.0,0.0,0.0,0.0,0.0,0.0,0.0,0.0,0.0,0.0,0.0,0.0,0.0,0.0,0.0,0.0,0.0,0.0,0.0,0.0,0.0,0.0,0.0,0.0,0.0,0.0,0.0,0.0,0.0,0.0,0.0,0.0,0.0,0.0,0.0,0.0,0.0,0.0,0.0,0.0,0.0,0.0,0.0,0.0,0.0,0.0,0.0,0.0,0.0,0.0,0.0,0.0,0.0,0.0,0.0,0.0,0.0,0.0,0.0,0.0,0.0,0.0,0.0,0.0,0.0,0.0,0.0,0.0,0.0,0.0,0.0,0.0,0.0,0.0,0.0,0.0,0.0,0.0,0.0,0.0,0.0,0.0,0.0,0.0,0.0,0.0,0.0,0.0,0.0,0.0,0.0,0.0,0.0,0.0,0.0,0.0,0.0,0.0,0.0,0.0,0.0,0.0,0.0,0.0,0.0,0.0,0.0,0.0,0.0,0.0,0.0,0.0,0.0,0.0,0.0,0.0,0.0,0.0,0.0,0.0,0.0,0.0,0.0,0.0,0.0,0.0,0.0,0.0,0.0,0.0,0.0,0.0,0.0,0.0,0.0,0.0,0.0,0.0,0.0,0.0,0.0,0.0,0.0,0.0,0.0,0.0,0.0,0.0,0.0,0.0,0.0,0.0,0.0,0.0,0.0,0.0,0.0,0.0,0.0,0.0,0.0,0.0,0.0,0.0,0.0,0.0,0.0,0.0,0.0,0.0,0.0,0.0,0.0,0.0,0.0,0.0,0.0,0.0,0.0,0.0,0.0,0.0,0.0,0.0,0.0,0.0,0.0,0.0,0.0,0.0,0.0,0.0,-1.9797,0.0,0.0,0.0,0.0,0.0,0.0,0.0,0.0,0.0,0.0,0.0,0.0,0.0,0.0,0.0,0.0,0.0,0.0,0.0,0.0,0.0,0.0,0.0,0.0,-0.9942,-1.0113,-1.0118,-1.0472,-1.0535,-1.0154,0.0,0.0,0.0,0.0,0.0,-1.0185,-1.0526,-1.1088,-1.1846,-1.1819,-1.259,-1.4102,-1.4108,-1.3687,-1.2907,0.0,0.0,0.0,0.0,0.0,0.0,0.0,0.0,0.0,0.0,0.0,0.0,0.0,0.0,0.0,0.0,0.0,0.0,0.0,0.0,0.0,0.0,0.0,0.0,0.0,0.0,0.0,0.0,0.0,0.0,0.0,0.0,0.0,0.0,0.0,0.0,0.0,0.0,0.0,0.0,0.0,0.0,0.0,0.0,0.0,0.0,0.0,0.0,0.0,0.0,0.0,0.0,0.0,0.0,0.0,0.0,0.0,0.0,0.0,0.0,0.0,0.0,0.0,0.0,0.0,0.0,0.0,0.0,0.0,0.0,0.0,-2.1837,0.0,0.0,0.0,0.0,0.0,0.0,0.0,0.0,0.0,0.0,0.0,0.0,0.0,0.0,0.0,0.0,0.0,0.0,0.0,0.0,0.0,-0.9776,-0.9961,-1.047,-1.0886,-1.1073,-1.1648,-1.1724,-1.1045,0.0,0.0,0.0,0.0,-1.0958,-1.1012,-1.1745,-1.2531,-1.331,-1.3726,-1.5063,-1.7251,-1.7912,-1.7198,-1.5364,-1.5009,0.0,0.0,0.0,0.0,0.0,0.0,0.0,0.0,0.0,0.0,0.0,0.0,0.0,0.0,0.0,0.0,0.0,0.0,0.0,0.0,0.0,0.0,0.0,0.0,0.0,0.0,0.0,0.0,0.0,0.0,0.0,0.0,0.0,0.0,0.0,0.0,0.0,0.0,0.0,0.0,0.0,0.0,0.0,0.0,0.0,0.0,0.0,0.0,0.0,0.0,0.0,0.0,0.0,0.0,0.0,0.0,0.0,0.0,0.0,0.0,0.0,0.0,0.0,-2.8401,-2.9413,-2.998,-3.0029,-3.0692,-3.1581,-2.7992,-2.648,-2.6374,-2.3686,0.0,0.0,0.0,0.0,0.0,0.0,0.0,0.0,0.0,0.0,0.0,0.0,0.0,0.0,0.0,0.0,0.0,0.0,0.0,-1.0017,-1.061,-1.0749,-1.109,-1.1796,-1.1936,-1.1941,-1.1857,-1.1829,0.0,0.0,-1.186,-1.1883,-1.184,-1.2628,-1.3398,-1.415,-1.6233,-1.8111,-1.9722,-1.9822,0.0,-2.0363,-1.8914,-1.7761,0.0,0.0,0.0,0.0,0.0,0.0,0.0,0.0,0.0,0.0,0.0,0.0,0.0,0.0,0.0,0.0,0.0,0.0,0.0,0.0,0.0,0.0,0.0,0.0,0.0,0.0,0.0,0.0,0.0,0.0,0.0,0.0,0.0,0.0,0.0,0.0,0.0,0.0,0.0,0.0,0.0,0.0,-1.6314,-1.6886,0.0,0.0,0.0,0.0,0.0,0.0,0.0,0.0,0.0,0.0,0.0,0.0,0.0,-2.5932,-2.7325,-2.8751,-2.9615,-2.9943,-3.1259,-3.2022,-3.2287,-3.2287,-3.2387,-3.2514,-3.1956,0.0,-2.8764,-2.6533,0.0,0.0,0.0,0.0,0.0,0.0,0.0,0.0,0.0,0.0,0.0,0.0,0.0,0.0,0.0,0.0,0.0,0.0,0.0,0.0,0.0,-1.2074,-1.3192,-1.4013,-1.4483,-1.4562,0.0,0.0,0.0,-1.2089,-1.2477,-1.2688,-1.262,-1.3817,-1.5255,-1.6935,-1.9413,-2.116,-2.2236,0.0,0.0,0.0,-2.3282,-2.1484,-1.8923,-1.7847,0.0,0.0,0.0,0.0,0.0,0.0,0.0,0.0,0.0,0.0,0.0,0.0,0.0,0.0,0.0,0.0,0.0,0.0,0.0,0.0,0.0,0.0,0.0,0.0,0.0,0.0,0.0,0.0,0.0,0.0,0.0,0.0,0.0,0.0,0.0,0.0,0.0,0.0,0.0,-1.5809,-1.8042,-1.858,-1.911,-1.9207,0.0,0.0,0.0,0.0,0.0,0.0,0.0,0.0,0.0,-2.822,-2.8972,-2.9966,-3.1265,-3.2196,-3.2751,-3.2978,-3.3548,-3.4077,-3.4551,-3.4551,-3.5015,-3.5744,-3.4828,-3.3888,-3.2766,-2.9823,-2.8122,-2.721,0.0,0.0,0.0,0.0,-2.5245,-2.5662,0.0,0.0,0.0,0.0,0.0,0.0,0.0,0.0,0.0,0.0,0.0,0.0,-1.1755,-1.3419,-1.491,-1.5931,0.0,0.0,0.0,0.0,0.0,-1.33,-1.3437,-1.37,-1.4017,-1.5951,-1.8033,-2.0237,-2.2272,-2.3668,0.0,0.0,0.0,0.0,0.0,0.0,0.0,0.0,0.0,0.0,0.0,0.0,0.0,0.0,0.0,0.0,0.0,0.0,0.0,0.0,0.0,0.0,0.0,0.0,0.0,0.0,0.0,0.0,0.0,0.0,0.0,0.0,0.0,0.0,0.0,0.0,0.0,0.0,0.0,0.0,0.0,0.0,0.0,0.0,0.0,0.0,0.0,-1.7919,-1.9901,-2.0615,-2.1176,-2.1374,0.0,0.0,0.0,0.0,0.0,0.0,-2.6724,-2.8172,-2.9582,-3.0931,-3.2285,-3.3408,-3.4237,-3.4905,-3.5341,-3.5462,-3.5462,-3.5744,-3.629,-3.629,-3.6887,-3.7838,-3.6654,-3.6215,-3.6091,-3.2706,-3.1062,-3.0555,-2.8993,-2.8249,-2.8109,-2.8628,-2.894,-2.9237,0.0,0.0,0.0,0.0,0.0,0.0,0.0,0.0,0.0,0.0,0.0,-1.1769,0.0,0.0,0.0,0.0,0.0,0.0,0.0,0.0,0.0,-1.6618,-1.5227,-1.5098,-1.6493,-1.9584,-2.1966,0.0,0.0,0.0,0.0,0.0,0.0,0.0,0.0,0.0,0.0,0.0,0.0,0.0,0.0,0.0,0.0,0.0,0.0,0.0,0.0,0.0,0.0,0.0,0.0,0.0,0.0,0.0,0.0,0.0,0.0,0.0,0.0,0.0,0.0,0.0,0.0,0.0,0.0,0.0,0.0,0.0,0.0,0.0,0.0,0.0,0.0,0.0,0.0,0.0,0.0,0.0,0.0,-2.3357,-2.536,0.0,0.0,0.0,0.0,-2.6504,-2.7931,-2.9023,-2.9479,-3.1212,-3.2452,-3.303,-3.4587,-3.5522,-3.5679,-3.6421,-3.6859,-3.7003,-3.7003,-3.7019,-3.7052,-3.7052,-3.7102,-3.7152,-3.706,-3.7373,-3.7656,-3.4658,-3.2905,-3.2092,-3.2132,-3.1968,-3.1753,-3.1785,-3.2277,-3.2827,0.0,0.0,0.0,-1.0091,-1.0091,-1.0089,-1.0032,-0.9952,-1.0179,-1.0941,-1.2354,0.0,0.0,0.0,0.0,0.0,0.0,0.0,0.0,0.0,-1.6972,-1.8322,-1.6338,-1.6642,-1.972,-2.1423,-2.3035,0.0,0.0,0.0,0.0,0.0,0.0,0.0,0.0,0.0,0.0,0.0,0.0,0.0,0.0,0.0,0.0,0.0,0.0,0.0,0.0,0.0,0.0,0.0,0.0,0.0,0.0,0.0,0.0,0.0,0.0,0.0,0.0,0.0,0.0,0.0,0.0,0.0,0.0,0.0,0.0,0.0,0.0,0.0,0.0,0.0,0.0,0.0,0.0,0.0,0.0,0.0,0.0,-2.5914,-2.7517,0.0,-2.7276,-2.7801,-2.8649,-2.9748,-2.9924,-3.0817,-3.2695,-3.3178,-3.425,-3.6219,-3.676,-3.7587,-3.8755,-3.8067,-3.7763,-3.7788,-3.7334,-3.7102,-3.7102,-3.7102,-3.7615,-3.8477,-3.7909,-3.8282,-3.91,-3.759,-3.6437,-3.5522,-3.4684,-3.4226,-3.4052,-3.4052,-3.4248,-3.4452,-1.0163,-1.0121,0.0,-1.0091,-1.0095,-1.007,-1.001,-0.9924,-1.0238,-1.1276,-1.3006,-1.4448,0.0,0.0,0.0,0.0,0.0,0.0,0.0,0.0,-1.8497,-1.9565,-1.8315,-1.8939,-2.1841,-2.3469,0.0,0.0,0.0,0.0,0.0,0.0,0.0,0.0,0.0,0.0,0.0,0.0,0.0,0.0,0.0,0.0,-1.8583,0.0,0.0,0.0,0.0,0.0,0.0,0.0,0.0,0.0,0.0,0.0,0.0,0.0,0.0,0.0,0.0,0.0,0.0,0.0,0.0,0.0,0.0,0.0,0.0,0.0,0.0,0.0,0.0,0.0,0.0,0.0,0.0,0.0,0.0,0.0,-2.7561,-2.829,-2.9591,-3.0303,-2.9901,-3.0417,-3.1373,-3.283,-3.2618,-3.3371,-3.5512,-3.5542,-3.6251,-3.7953,-3.8447,-3.8978,-3.9636,-3.8941,-3.8576,-3.8576,-3.8079,-3.7831,-3.7831,-3.7779,-3.8266,-3.9175,-3.8809,-3.9089,-3.9801,-3.9556,-3.9063,-3.8381,-3.7009,-3.6403,-3.6297,-3.6297,-3.6297,-3.6297,-1.011,-1.0102,-1.0107,-1.0102,-1.0097,-1.0077,-1.0016,-0.9912,-1.0404,-1.1995,-1.2929,0.0,0.0,0.0,0.0,0.0,0.0,0.0,0.0,-2.084,0.0,-2.0394,-2.1189,-2.2004,-2.2841,0.0,0.0,0.0,0.0,0.0,0.0,0.0,0.0,0.0,0.0,0.0,0.0,0.0,0.0,0.0,0.0,0.0,-2.29,0.0,0.0,0.0,0.0,0.0,0.0,0.0,0.0,0.0,0.0,0.0,0.0,0.0,0.0,0.0,0.0,0.0,0.0,0.0,0.0,0.0,0.0,0.0,0.0,0.0,0.0,0.0,0.0,0.0,0.0,0.0,0.0,0.0,-2.5514,-2.7809,-2.9777,-3.0522,-3.1775,-3.2634,-3.2762,-3.3837,-3.4906,-3.5811,-3.6069,-3.6663,-3.78,-3.8302,-3.8423,-3.8051,-3.9549,-3.9686,-3.8302,-3.9,-3.9348,-3.9365,-3.9365,-3.9365,-3.9338,-3.916,-3.9078,-3.9144,-3.9713,-3.9899,-3.9854,-4.0476,-4.0648,-4.0413,-3.9117,-3.8553,-3.8424,-3.8408,-3.8391,-3.8359,-1.011,-1.0102,-1.0109,-1.0093,-1.0104,-1.0068,-0.9952,-1.036,-1.1027,-1.2003,-1.484,0.0,0.0,0.0,0.0,0.0,0.0,0.0,0.0,0.0,-1.9227,-2.0339,-2.2837,0.0,-2.6088,0.0,0.0,0.0,0.0,0.0,0.0,0.0,0.0,0.0,0.0,0.0,0.0,0.0,0.0,0.0,0.0,0.0,-2.3945,0.0,0.0,0.0,0.0,0.0,0.0,0.0,0.0,0.0,0.0,0.0,0.0,0.0,0.0,0.0,0.0,0.0,0.0,0.0,0.0,0.0,0.0,0.0,0.0,0.0,0.0,0.0,0.0,0.0,0.0,0.0,0.0,-2.8202,-2.8301,-3.0319,-3.2067,-3.2812,-3.37,-3.4239,-3.4286,-3.4889,-3.5925,-3.7423,-3.6751,-3.703,-3.8801,-3.835,-3.829,-3.8904,-3.9371,-3.9912,-4.0503,-4.0233,-4.0332,-4.0829,-4.0829,-4.0773,-4.0694,-4.0621,-4.0799,-4.116,-4.1344,-4.1664,-4.2004,-4.1645,-4.1425,-4.1158,-3.9794,-3.9242,-3.912,-3.8602,-3.8068,-3.7549,-1.009,-1.0115,-1.0127,-1.0095,-1.0106,-1.0056,-0.9952,-1.0263,-1.0893,-1.1993,-1.4748,0.0,0.0,0.0,0.0,0.0,0.0,0.0,0.0,0.0,-2.047,-2.229,0.0,0.0,0.0,0.0,0.0,0.0,0.0,0.0,0.0,0.0,0.0,0.0,0.0,0.0,0.0,0.0,0.0,0.0,0.0,0.0,-2.5862,-2.4472,-2.3685,-2.3099,-2.153,-2.0494,-1.9748,-1.8968,0.0,0.0,0.0,0.0,0.0,0.0,0.0,0.0,0.0,0.0,0.0,0.0,0.0,0.0,0.0,0.0,0.0,0.0,0.0,0.0,0.0,0.0,0.0,0.0,-2.8938,-3.0844,-3.1205,-3.2348,-3.3425,-3.417,-3.4916,-3.5479,-3.5794,-3.6339,-3.7246,-3.8576,-3.7832,-3.8041,-3.9669,-3.9062,-3.9133,-4.015,-4.0166,-4.0564,-4.1409,-4.0972,-4.0915,-4.1312,-4.1271,-4.1202,-4.1116,-4.1012,-4.1167,-4.1471,-4.1722,-4.2036,-4.2335,-4.219,-4.208,0.0,0.0,0.0,0.0,0.0,-3.8132,-3.7711,-1.0115,-1.0168,-1.0186,-1.0112,-1.0108,-1.0089,-1.0006,-0.9963,-1.0472,-1.1991,0.0,0.0,0.0,0.0,0.0,0.0,0.0,0.0,0.0,0.0,0.0,-2.5034,0.0,0.0,0.0,0.0,0.0,0.0,0.0,0.0,0.0,0.0,0.0,0.0,0.0,0.0,0.0,0.0,0.0,0.0,0.0,0.0,-2.7937,-2.6512,-2.608,-2.6033,-2.4521,-2.3002,-2.1629,-2.0886,0.0,0.0,0.0,0.0,0.0,0.0,0.0,0.0,0.0,0.0,0.0,0.0,0.0,0.0,0.0,0.0,0.0,0.0,0.0,0.0,0.0,0.0,0.0,0.0,-3.1539,-3.31,-3.3829,-3.3928,-3.4154,-3.4816,-3.5545,-3.6257,-3.692,-3.7731,-3.851,-3.9249,-3.9013,-3.9331,-4.042,0.0,0.0,0.0,0.0,-4.143,-4.1513,-4.1486,-4.1482,-4.1535,-4.1406,-4.1364,-4.1334,-4.1056,-4.0948,-4.0951,-4.1464,-4.1725,-4.1774,-4.2327,-4.2602,-4.2473,-4.1144,-4.0218,-3.9538,-3.878,-3.8521,-3.8505,-1.0189,-1.0187,-1.0182,-1.0113,-1.0093,-1.0084,-1.0013,-1.0439,-1.1104,-1.2062,-1.411,0.0,0.0,0.0,0.0,0.0,0.0,0.0,0.0,0.0,0.0,0.0,0.0,0.0,0.0,0.0,0.0,0.0,0.0,0.0,0.0,0.0,0.0,0.0,0.0,0.0,0.0,0.0,0.0,0.0,0.0,0.0,-2.8022,-2.7347,-2.7079,-2.6946,-2.5972,-2.5385,-2.4955,-2.4165,-2.3397,-2.2566,-2.1262,0.0,0.0,0.0,0.0,0.0,0.0,0.0,0.0,0.0,0.0,0.0,0.0,0.0,0.0,0.0,0.0,0.0,0.0,0.0,0.0,-3.1318,-3.2723,-3.3885,-3.4725,-3.4754,-3.4733,-3.4883,-3.5545,-3.6059,-3.6208,-3.7433,-3.851,-3.9249,-3.9245,-3.9726,-4.0979,-4.0568,-4.0585,-4.1226,-4.134,-4.1621,-4.2133,-4.2697,-4.3183,-4.3619,0.0,0.0,-4.3418,-4.2753,-4.2384,-4.2229,-4.2375,-4.2392,-4.2408,-4.2554,-4.2602,-4.2522,-4.1695,-4.0948,-4.0205,-3.9525,-3.9295,-3.9185,-1.0166,-1.0187,-1.0189,-1.0108,-1.0103,-1.0097,-1.0051,-1.0314,-1.0911,-1.2042,-1.3578,0.0,0.0,0.0,0.0,0.0,0.0,0.0,0.0,0.0,0.0,0.0,0.0,0.0,0.0,0.0,0.0,0.0,0.0,0.0,0.0,0.0,0.0,0.0,0.0,0.0,0.0,0.0,0.0,0.0,0.0,0.0,-2.829,-2.8084,-2.7965,-2.7807,-2.6995,-2.6405,-2.5949,-2.5571,-2.4964,-2.4212,-2.3414,-2.2602,-2.1583,0.0,0.0,0.0,0.0,0.0,0.0,0.0,0.0,0.0,0.0,0.0,0.0,0.0,0.0,-2.717,-2.8425,0.0,-3.18,-3.2897,-3.3845,-3.4579,-3.4944,-3.519,-3.5373,-3.5446,-3.6042,-3.6613,-3.7044,-3.8018,-3.8917,-3.9643,-3.9693,-4.0105,-4.1037,-4.0844,-4.0976,-4.1563,-4.1667,-4.2012,-4.2709,-4.3012,-4.3506,-4.4194,-4.4053,-4.4154,-4.4512,-4.4058,-4.3783,-4.3686,-4.3473,-4.3404,-4.3388,-4.3168,-4.3113,-4.3064,-4.2734,-4.195,-4.098,-4.0267,-3.9978,-3.991,-1.0133,-1.0152,-1.0152,-1.0111,-1.0109,-1.0108,-1.0097,-1.0025,-1.0461,-1.1803,-1.2687,-1.3696,-1.5121,-1.6114,-1.6897,0.0,0.0,0.0,0.0,0.0,0.0,0.0,0.0,0.0,0.0,0.0,0.0,0.0,0.0,0.0,0.0,0.0,0.0,0.0,0.0,0.0,0.0,0.0,0.0,0.0,0.0,0.0,-2.8536,-2.8574,-2.8574,-2.8415,-2.7602,-2.685,-2.6207,-2.5949,-2.5461,-2.496,-2.4806,-2.432,-2.3397,-2.1369,-2.0771,0.0,0.0,0.0,0.0,0.0,0.0,0.0,0.0,0.0,-2.6397,-2.7938,-2.9395,-3.0664,-3.16,-3.2679,-3.3609,-3.4208,-3.4891,-3.5328,-3.5241,-3.5695,-3.615,-3.6406,-3.6785,-3.7327,-3.8025,-3.8611,-3.9281,-4.0022,-4.0071,-4.0381,-4.1122,-4.1171,-4.1511,-4.2152,-4.2198,-4.2477,-4.3052,-4.3092,-4.3451,-4.41,-4.4041,-4.4399,-4.5131,-4.5049,-4.5,-4.4968,-4.4522,-4.4288,-4.4253,-4.3786,-4.3608,-4.3608,-4.3608,-4.2933,-4.1892,-4.116,-4.0899,-4.0801,-1.0188,-1.0159,-1.0111,-1.0098,-1.0097,-1.01,-1.0097,-0.9986,-1.0234,-1.1108,-1.1874,-1.2691,-1.3638,-1.5045,-1.6796,-1.8938,0.0,0.0,0.0,0.0,0.0,0.0,0.0,0.0,0.0,0.0,0.0,0.0,0.0,0.0,0.0,0.0,0.0,0.0,0.0,0.0,0.0,0.0,0.0,0.0,0.0,0.0,-2.8587,-2.8587,-2.8587,-2.8478,-2.7615,-2.7247,-2.6934,-2.5433,-2.4923,-2.48,-2.4147,-2.3872,-2.3614,-2.2699,0.0,-2.2218,-2.1277,-2.1617,-2.2672,-2.4208,-2.5145,-2.6386,0.0,0.0,-2.971,-3.1028,-3.1697,-3.2275,-3.3025,-3.3727,-3.4454,-3.5279,-3.59,-3.6293,-3.6404,-3.6728,-3.7193,-3.7873,-3.7745,-3.7652,-3.7734,-3.8406,-3.9127,-3.9865,-3.9931,-4.0435,-4.1659,-4.1828,-4.2155,-4.2784,-4.2907,-4.297,-4.293,-4.3551,-4.3846,-4.3783,-4.4674,-4.5177,-4.5291,-4.5577,-4.5686,-4.5653,-4.4972,-4.4658,-4.4591,-4.3893,-4.3608,-4.3608,-4.3608,-4.3499,-4.3274,-4.2547,-4.2266,-4.2167,-1.0208,-1.0157,-1.0108,-1.0096,-1.0105,-1.0101,-1.0109,-1.0044,-1.028,-1.1008,-1.137,-1.2032,-1.3253,-1.4418,-1.5912,-1.793,-1.9475,0.0,0.0,0.0,0.0,0.0,0.0,0.0,0.0,0.0,0.0,0.0,0.0,0.0,0.0,0.0,0.0,0.0,0.0,0.0,0.0,0.0,0.0,0.0,0.0,0.0,-2.8495,-2.8062,-2.7894,-2.7845,-2.7434,-2.6718,0.0,0.0,-2.5293,-2.4901,-2.4603,-2.4509,-2.4266,-2.3043,-2.3332,0.0,-2.4554,-2.536,0.0,0.0,-2.9353,-3.0904,-3.287,-3.3696,-3.4172,-3.4722,-3.4907,-3.4999,-3.5056,-3.5296,-3.5611,0.0,-3.6587,-3.6926,-3.711,-3.7194,-3.7294,-3.7542,-3.7653,-3.7877,-3.8297,-3.8559,-3.9156,-4.0283,-4.0381,-4.0912,-4.2208,-4.2335,-4.2465,-4.2728,-4.2959,-4.3082,-4.3037,-4.3516,-4.3984,-4.4395,-4.4772,-4.5459,-4.6347,-4.6378,-4.652,-4.6708,-4.6424,-4.6132,-4.5861,-4.5123,-4.4821,-4.4787,-4.4335,-4.4167,-4.4105,-4.3394,-4.3144,-4.3044,-1.0193,-1.0157,-1.0106,-1.01,-1.0096,-1.0096,-1.0102,-1.0099,-1.0281,-1.0768,-1.1207,-1.2057,-1.3556,-1.4294,-1.528,-1.6763,-1.818,-1.9714,0.0,0.0,0.0,0.0,0.0,0.0,0.0,0.0,0.0,0.0,0.0,0.0,0.0,0.0,0.0,0.0,0.0,0.0,0.0,0.0,0.0,0.0,0.0,0.0,-2.8101,-2.7573,-2.7109,-2.6718,-2.6694,-2.5953,0.0,0.0,-2.4901,-2.4639,-2.4415,-2.4491,-2.4483,-2.3596,-2.4447,-2.5868,-2.6858,0.0,0.0,-3.0814,-3.261,-3.4442,-3.5877,-3.6858,-3.7522,-3.7761,-3.7492,-3.7206,-3.7144,-3.6749,-3.6632,-3.7098,-3.7376,-3.7683,-3.8065,-3.7852,-3.7678,-3.7694,-3.7753,-3.8017,-3.8569,-3.8652,-3.9259,-4.0694,-4.0763,-4.1382,-4.2785,-4.2774,-4.2774,-4.2867,-4.3096,-4.3218,-4.3218,-4.3489,-4.3933,-4.4537,-4.4757,-4.5552,-4.6891,-4.7197,-4.7583,-4.8078,-4.7569,-4.7247,-4.7005,-4.6011,-4.5626,-4.5635,-4.4902,-4.4615,-4.4542,-4.4051,-4.3889,-4.3806,-1.0194,-1.0146,-1.0098,-1.011,-1.0102,-1.009,-1.0099,-1.0097,-1.0106,-1.0135,-1.1497,-1.305,-1.4591,-1.4839,-1.5229,-1.6069,-1.7423,-1.8943,-2.0626,-2.2875,0.0,0.0,0.0,0.0,0.0,0.0,0.0,0.0,0.0,0.0,0.0,0.0,0.0,0.0,0.0,0.0,0.0,0.0,0.0,0.0,0.0,0.0,-2.7245,-2.7289,-2.6321,-2.4971,-2.5046,0.0,0.0,0.0,-2.3159,-2.3694,-2.2927,-2.3211,0.0,-2.4719,-2.6065,0.0,0.0,0.0,-3.1223,-3.2427,-3.4231,-3.6248,-3.8241,-3.8668,-3.8862,-3.9666,-3.8872,-3.831,-3.9065,-3.7918,-3.7248,-3.8355,-3.8486,-3.8739,-3.9537,-3.9018,-3.874,-3.9167,-3.8556,-3.811,0.0,-3.8531,-3.9411,-4.0869,-4.0951,-4.1674,-4.3466,-4.3248,-4.3218,-4.3549,-4.3578,-4.3578,-4.3578,-4.3578,-4.3625,-4.3658,-4.4699,-4.557,-4.6371,-4.7921,-4.9063,-4.9735,-4.7954,-4.7447,-4.7729,-4.6032,-4.546,-4.5635,-4.4902,-4.4615,-4.4615,-4.457,-4.457,-4.457,-1.02,-1.0181,-1.0178,-1.0162,-1.0136,-1.0094,-1.0109,-1.0101,-1.0093,-1.0104,-1.1465,0.0,0.0,0.0,0.0,0.0,-1.6987,-1.823,-1.9863,-2.1561,0.0,0.0,0.0,0.0,0.0,0.0,0.0,0.0,0.0,0.0,0.0,0.0,0.0,0.0,0.0,0.0,0.0,0.0,0.0,0.0,0.0,0.0,-2.7218,-2.6158,-2.5127,-2.4157,0.0,0.0,0.0,0.0,0.0,0.0,-2.3371,0.0,0.0,-2.5407,-2.6934,-2.8545,0.0,0.0,-3.3743,-3.5223,-3.6897,-3.8484,-3.9662,-4.0744,-4.1122,-3.9842,-3.9009,-3.8102,-3.677,-3.6947,-3.7506,-3.8087,-3.9308,-4.0341,-4.0831,-3.9991,-3.9472,-3.9839,-3.9286,0.0,0.0,0.0,0.0,-4.1139,-4.1238,-4.1923,-4.3542,-4.3489,-4.3489,-4.3608,-4.3818,-4.3935,-4.3935,-4.4138,-4.4253,-4.427,-4.5977,-4.7099,-4.7761,-4.9301,-5.017,-5.0372,-4.9214,-4.8818,-4.883,-4.7222,-4.6604,-4.6638,-4.5875,-4.5606,-4.5606,-4.5606,-4.5606,-4.5528,-1.0191,-1.0205,-1.0193,-1.0199,-1.0161,0.0,0.0,0.0,0.0,0.0,0.0,0.0,0.0,0.0,0.0,0.0,0.0,-1.736,-1.8665,0.0,0.0,0.0,0.0,0.0,0.0,0.0,0.0,0.0,0.0,0.0,0.0,0.0,0.0,0.0,0.0,0.0,0.0,0.0,0.0,0.0,0.0,0.0,-2.5977,-2.4975,-2.3951,0.0,0.0,0.0,0.0,0.0,0.0,0.0,0.0,0.0,0.0,-2.6686,-2.8413,-3.031,-3.2144,-3.4009,-3.5765,-3.7104,-3.8608,-3.993,-4.0383,-4.1307,-4.1452,-3.9387,-3.8274,-3.7201,-3.5641,-3.5731,-3.6434,-3.7627,-3.8899,-4.0079,-4.1163,-4.0543,-4.0092,-4.0468,-4.0301,-4.021,0.0,0.0,0.0,-4.1764,-4.1922,-4.2565,-4.3898,-4.3831,-4.3902,-4.4197,-4.4429,-4.4625,-4.4801,-4.5035,-4.5133,-4.515,-4.6696,-4.7884,-4.8738,-4.9719,-5.032,-5.0531,-4.9685,-4.9233,-4.8995,-4.766,-4.7142,-4.7126,-4.6372,-4.6098,-4.6098,-4.6098,-4.6098,-4.6049,-1.0212,-1.0199,-1.0199,0.0,0.0,0.0,0.0,0.0,0.0,0.0,0.0,0.0,0.0,0.0,0.0,0.0,0.0,0.0,-1.7098,0.0,0.0,0.0,0.0,-2.2919,-2.2953,-2.3611,0.0,0.0,0.0,0.0,0.0,0.0,0.0,0.0,0.0,0.0,0.0,0.0,0.0,0.0,0.0,0.0,-2.3664,-2.3733,0.0,0.0,0.0,0.0,0.0,0.0,0.0,0.0,0.0,0.0,0.0,-2.8572,-3.0468,-3.2541,-3.3408,-3.5313,-3.7267,-3.8118,-3.9387,-4.0438,-4.0438,-4.0401,-3.993,-3.8337,-3.6761,-3.5639,0.0,0.0,-3.4375,-3.6934,-3.7504,-3.8413,-4.0699,-4.0766,-4.0715,0.0,0.0,0.0,0.0,0.0,0.0,-4.2817,0.0,-4.3547,-4.4603,-4.4384,-4.4558,-4.5303,-4.5329,-4.5588,-4.6116,-4.6098,-4.6098,-4.614,-4.6931,-4.8021,-4.9341,-4.9359,-4.9769,-5.0401,-4.9379,-4.8749,-4.8344,-4.7346,-4.7062,-4.7166,-4.647,-4.6189,-4.6189,-4.6189,-4.6189,-4.6189,0.0,0.0,0.0,0.0,0.0,0.0,0.0,0.0,0.0,0.0,0.0,0.0,0.0,0.0,0.0,0.0,0.0,0.0,0.0,0.0,0.0,0.0,0.0,0.0,0.0,-2.2997,0.0,0.0,0.0,0.0,0.0,0.0,0.0,0.0,0.0,0.0,0.0,0.0,0.0,0.0,0.0,0.0,-2.2882,0.0,0.0,0.0,0.0,0.0,0.0,0.0,0.0,0.0,0.0,0.0,-2.8034,0.0,0.0,-3.3679,-3.627,-3.743,-3.8227,-3.9586,-3.9804,-3.9677,-3.9677,-3.9206,-3.8156,-3.5965,-3.4761,-3.3521,-3.1668,0.0,0.0,-3.5315,-3.8292,0.0,-4.1429,-4.2157,0.0,-4.3268,0.0,-4.3964,-4.4317,-4.49,0.0,0.0,-4.4659,-4.4841,-4.5681,-4.564,-4.5673,-4.5875,-4.5918,-4.595,-4.6098,-4.6098,-4.631,-4.6724,-4.8099,-4.9144,-4.9952,-5.112,-5.1445,-5.1012,-5.0172,-4.9414,-4.8717,-4.7861,-4.7533,-4.7549,-4.737,-4.728,-4.728,-4.728,-4.728,-4.728,0.0,0.0,0.0,0.0,0.0,0.0,0.0,0.0,0.0,0.0,0.0,0.0,0.0,0.0,0.0,0.0,0.0,0.0,0.0,0.0,0.0,0.0,0.0,0.0,0.0,0.0,0.0,0.0,0.0,0.0,0.0,0.0,0.0,0.0,0.0,0.0,0.0,0.0,0.0,0.0,0.0,0.0,0.0,0.0,0.0,0.0,0.0,0.0,0.0,0.0,0.0,-2.7622,-2.8366,-2.9363,-3.0657,-3.2675,0.0,-3.5895,-3.7301,-3.8191,-3.8916,-3.9804,-3.9441,-3.8698,-3.8023,-3.6969,-3.5369,-3.2651,-3.1487,0.0,-2.8639,0.0,0.0,0.0,0.0,0.0,-4.1506,-4.2851,-4.3802,0.0,-4.489,0.0,-4.5796,-4.6293,-4.6593,0.0,-4.5911,-4.5659,-4.6081,-4.6098,-4.6213,-4.643,-4.6454,-4.6548,-4.6799,-4.6799,-4.6954,-4.7276,-4.8515,-4.9465,-5.013,-5.1013,-5.1194,-5.0746,0.0,-4.913,-4.833,-4.7877,-4.7717,-4.7717,-4.7717,-4.7717,-4.7717,-4.7717,-4.7717,-4.7717,0.0,0.0,0.0,0.0,0.0,0.0,0.0,0.0,0.0,-1.2899,0.0,0.0,0.0,0.0,0.0,0.0,0.0,0.0,0.0,0.0,0.0,0.0,0.0,0.0,0.0,0.0,0.0,0.0,0.0,0.0,0.0,0.0,0.0,0.0,0.0,0.0,0.0,0.0,0.0,0.0,0.0,0.0,0.0,0.0,0.0,0.0,0.0,0.0,0.0,0.0,-2.7636,-2.9228,-3.0106,-3.1963,-3.3936,-3.4697,-3.6508,-3.8097,-3.7495,-3.8297,-3.9313,-3.953,-3.8733,-3.7535,-3.6212,-3.4408,-3.2215,-2.9326,0.0,-2.7292,-2.6407,-2.7752,-2.9908,-3.2802,0.0,-3.8083,-4.1252,-4.3099,-4.4132,-4.424,-4.5689,-4.6667,-4.6667,-4.7301,-4.7717,-4.7717,-4.684,-4.631,-4.631,-4.631,-4.6543,-4.6976,-4.7017,-4.7236,-4.7696,-4.7717,-4.7717,-4.7717,-4.8619,-4.942,-5.0112,-5.022,-5.0202,-5.0075,-4.9257,-4.8438,-4.7717,-4.7717,-4.7717,-4.7717,-4.7717,-4.7717,-4.7717,-4.7717,-4.7717,-4.7717,0.0,0.0,0.0,0.0,0.0,0.0,0.0,-1.1357,-1.2206,-1.4475,-1.4134,-1.4079,0.0,0.0,0.0,0.0,0.0,0.0,0.0,0.0,0.0,0.0,0.0,0.0,0.0,0.0,0.0,0.0,0.0,0.0,0.0,0.0,0.0,0.0,0.0,0.0,0.0,0.0,0.0,0.0,0.0,0.0,0.0,0.0,0.0,0.0,0.0,0.0,0.0,0.0,-2.8276,-3.0198,-3.1508,-3.2716,-3.4039,-3.6069,-3.7028,-3.7656,-3.8824,-3.8879,-3.888,-4.0161,-3.8363,-3.6235,-3.5973,-3.3148,0.0,0.0,0.0,-2.6523,-2.5654,-2.7894,0.0,-3.2211,0.0,0.0,0.0,0.0,-4.4349,0.0,0.0,0.0,0.0,0.0,0.0,0.0,0.0,-4.7407,-4.7407,-4.7407,-4.7468,-4.7554,-4.7554,-4.7615,-4.7717,-4.7717,-4.7717,-4.7735,-4.9184,-4.9967,-5.013,-5.0778,-5.0746,-5.0075,-4.9257,0.0,-4.7717,-4.7717,-4.7717,-4.7717,-4.7717,-4.7717,-4.7717,-4.7717,-4.7717,-4.7717,0.0,0.0,0.0,0.0,0.0,0.0,0.0,-1.25,-1.3512,-1.5642,-1.5931,-1.5926,-1.5876,-1.548,-1.5202,0.0,0.0,0.0,0.0,0.0,0.0,0.0,0.0,0.0,0.0,0.0,0.0,0.0,0.0,0.0,0.0,0.0,0.0,0.0,0.0,0.0,0.0,0.0,0.0,0.0,0.0,0.0,0.0,0.0,0.0,0.0,0.0,0.0,0.0,0.0,-2.8176,-3.0094,-3.1933,-3.3616,-3.5272,-3.7202,-3.7817,-3.812,-3.9292,-3.9002,-3.8674,-3.9846,-3.7731,-3.517,-3.4369,0.0,0.0,0.0,0.0,-2.5365,-2.4873,0.0,0.0,0.0,0.0,0.0,0.0,0.0,0.0,0.0,0.0,0.0,0.0,0.0,0.0,0.0,0.0,-4.7717,-4.7717,-4.7717,-4.7717,-4.7717,-4.7717,-4.7717,-4.7717,-4.7717,-4.7895,-4.833,-4.9528,-5.0112,-5.0112,-5.051,-5.0234,-4.9438,-4.8623,-4.8058,-4.7717,-4.7717,-4.7717,-4.7717,-4.7717,-4.7717,-4.7717,-4.7717,-4.7717,-4.7717,0.0,0.0,0.0,0.0,0.0,0.0,0.0,-1.3507,-1.4718,-1.6633,-1.7411,-1.754,-1.6847,-1.6006,-1.5416,0.0,0.0,0.0,0.0,0.0,0.0,0.0,0.0,0.0,0.0,0.0,0.0,0.0,0.0,0.0,0.0,0.0,0.0,0.0,0.0,0.0,0.0,0.0,0.0,0.0,0.0,0.0,0.0,0.0,0.0,0.0,0.0,0.0,0.0,0.0,-2.7531,-2.9236,-3.1168,-3.3427,-3.5648,-3.7004,-3.782,-3.8415,-3.8992,-3.9067,-3.9086,-3.9509,-3.7256,-3.4513,-3.2949,-3.0023,0.0,0.0,-2.4474,-2.4456,-2.4339,0.0,0.0,0.0,0.0,0.0,0.0,0.0,0.0,0.0,0.0,0.0,0.0,0.0,0.0,0.0,0.0,0.0,-4.7717,-4.7717,-4.7717,-4.7717,-4.7717,-4.779,-4.795,-4.795,-4.8348,-4.9184,-4.9963,-5.0275,-5.0112,-5.0112,-4.9655,-4.8855,-4.804,-4.7717,-4.7717,-4.7717,-4.7717,-4.7717,-4.7717,-4.7717,-4.7717,-4.7717,-4.7717,-4.7717,0.0,0.0,0.0,0.0,0.0,0.0,0.0,-1.3532,-1.4989,-1.7465,-1.7788,-1.7772,-1.7682,-1.6907,-1.6086,0.0,0.0,0.0,0.0,0.0,0.0,0.0,0.0,0.0,0.0,0.0,0.0,0.0,0.0,0.0,0.0,0.0,0.0,0.0,0.0,0.0,0.0,0.0,0.0,0.0,0.0,0.0,0.0,0.0,0.0,0.0,0.0,0.0,0.0,0.0,0.0,-2.7491,-2.8483,-3.0742,-3.3162,-3.3909,0.0,0.0,-3.7679,-3.9242,-4.0659,-3.9884,-3.7314,-3.4568,-3.296,0.0,0.0,-2.4663,-2.4367,-2.4412,-2.4394,-2.5069,0.0,0.0,0.0,0.0,0.0,0.0,0.0,0.0,0.0,0.0,0.0,0.0,0.0,0.0,0.0,0.0,-4.7717,-4.7717,-4.7717,-4.7717,-4.7717,-4.804,-4.8764,-4.8782,-4.9202,-4.9981,-5.0796,-5.0818,-5.0112,-5.0112,-4.9655,-4.8855,-4.804,-4.7717,0.0,-4.7717,-4.7717,-4.7717,-4.7717,-4.7717,-4.7717,-4.7717,-4.7717,-4.7717,0.0,0.0,0.0,0.0,0.0,0.0,-1.3255,-1.3874,-1.5196,-1.8276,-1.8658,-1.8632,-1.8636,-1.7865,-1.6764,-1.5352,0.0,0.0,0.0,0.0,0.0,0.0,0.0,0.0,0.0,0.0,0.0,0.0,0.0,0.0,0.0,0.0,0.0,0.0,0.0,0.0,0.0,0.0,0.0,0.0,0.0,0.0,0.0,0.0,0.0,0.0,0.0,0.0,0.0,0.0,0.0,0.0,-2.6057,-2.7615,0.0,0.0,-3.4913,-3.6439,-3.8414,-3.9643,-4.0159,-3.9321,-3.7029,-3.4325,-3.1739,0.0,-2.6225,-2.4579,-2.4284,-2.4348,-2.4394,-2.4635,-2.5549,0.0,-2.8271,-2.9917,0.0,0.0,0.0,0.0,0.0,0.0,0.0,0.0,0.0,0.0,0.0,0.0,-4.8384,-4.795,-4.7717,-4.7717,-4.8167,-4.833,-4.8167,-4.8656,-4.9075,-4.9383,-4.9709,-4.9691,-4.9383,-4.9383,-4.8949,-4.8149,-4.7823,-4.7717,0.0,-4.7717,-4.7717,-4.7717,-4.7717,-4.7717,-4.7717,-4.7717,-4.7717,-4.7717,0.0,0.0,0.0,0.0,0.0,-1.1072,-1.3397,-1.396,-1.5148,-1.8079,-1.8668,-1.8827,-1.8829,-1.804,-1.7002,-1.5733,-1.5416,0.0,0.0,0.0,0.0,0.0,0.0,0.0,0.0,0.0,0.0,0.0,0.0,0.0,0.0,0.0,0.0,0.0,0.0,0.0,0.0,0.0,0.0,0.0,0.0,0.0,0.0,0.0,0.0,0.0,0.0,0.0,0.0,0.0,0.0,0.0,0.0,0.0,0.0,0.0,-3.3467,-3.4917,-3.7389,-3.8784,-3.9294,-3.8248,-3.6288,-3.3867,0.0,0.0,-2.6195,-2.4493,-2.4219,-2.4275,-2.434,-2.4367,-2.4801,0.0,-2.6667,-2.8176,-3.1686,0.0,0.0,0.0,0.0,0.0,0.0,0.0,0.0,0.0,0.0,0.0,-4.8511,-4.8004,-4.7935,-4.8387,-4.8967,-4.8985,-4.8424,-4.8967,-4.9257,-4.9257,-4.9257,-4.9148,-4.8891,-4.8891,-4.8456,-4.7717,-4.7717,-4.7717,0.0,-4.7717,-4.7717,-4.7717,-4.7717,-4.7717,-4.7717,-4.7717,-4.7717,-4.7717,0.0,0.0,0.0,0.0,0.0,0.0,-1.2635,-1.3593,-1.4726,-1.6504,-1.7414,-1.7909,-1.7915,-1.7131,-1.6606,-1.6596,-1.5806,0.0,0.0,0.0,0.0,0.0,0.0,0.0,0.0,0.0,0.0,0.0,0.0,0.0,0.0,0.0,0.0,0.0,0.0,0.0,0.0,0.0,0.0,0.0,0.0,0.0,-2.1412,0.0,0.0,0.0,0.0,0.0,0.0,0.0,0.0,0.0,0.0,0.0,0.0,0.0,-3.0983,-3.3056,-3.3615,-3.619,-3.834,-3.6725,-3.5055,-3.3151,0.0,-2.8292,-2.6104,-2.4355,-2.4106,-2.421,-2.4199,-2.4247,-2.457,-2.5383,-2.679,-2.864,-3.1059,0.0,0.0,0.0,0.0,0.0,0.0,0.0,0.0,0.0,0.0,0.0,-4.7696,-4.7717,-4.8424,-5.0021,-5.0093,-5.0093,-5.0093,-5.0093,-5.0093,-5.0093,-5.0093,-4.9673,-4.8891,-4.8891,-4.8456,-4.7717,0.0,-4.7717,0.0,-4.7717,-4.7717,-4.7717,-4.7717,-4.7717,-4.7717,-4.7717,-4.7717,-4.7717,0.0,0.0,0.0,0.0,0.0,0.0,0.0,-1.2734,-1.3886,-1.5586,-1.6542,-1.7303,-1.7909,-1.7184,-1.667,-1.6678,-1.5839,0.0,0.0,0.0,0.0,0.0,0.0,0.0,0.0,0.0,0.0,0.0,0.0,0.0,0.0,0.0,0.0,0.0,0.0,0.0,0.0,0.0,0.0,0.0,0.0,-2.1247,-2.155,0.0,0.0,0.0,0.0,0.0,0.0,0.0,0.0,0.0,0.0,0.0,0.0,-2.6505,-2.9003,0.0,-3.2219,-3.3956,-3.5135,-3.3647,-3.2453,-3.0939,-2.8367,-2.678,-2.5498,-2.4255,-2.4066,-2.4162,-2.4191,-2.4219,-2.524,-2.8279,-2.9188,0.0,0.0,0.0,0.0,0.0,0.0,0.0,0.0,0.0,0.0,0.0,0.0,0.0,-4.9275,-4.8822,-4.8514,-4.846,-4.9003,-4.9021,-4.8478,-4.9021,-4.9003,-4.846,-4.846,-4.8333,-4.8076,-4.8076,-4.7932,0.0,0.0,-4.7717,-4.7717,-4.7717,-4.7717,-4.7717,-4.7717,-4.7717,-4.7717,-4.7717,-4.7717,-4.7717,0.0,0.0,0.0,0.0,0.0,0.0,0.0,-1.2069,-1.3007,-1.4687,-1.5371,-1.6172,-1.7383,-1.6738,-1.6347,-1.6674,-1.5868,0.0,0.0,0.0,0.0,0.0,0.0,0.0,0.0,0.0,0.0,0.0,0.0,0.0,0.0,0.0,0.0,0.0,0.0,0.0,0.0,0.0,0.0,0.0,-2.0679,-2.0832,-2.0655,0.0,0.0,0.0,0.0,0.0,0.0,0.0,0.0,0.0,0.0,0.0,0.0,0.0,-2.6688,-2.8554,0.0,-3.1387,-3.208,-3.12,-3.0341,-2.9189,-2.7259,-2.62,-2.5329,-2.4328,-2.4172,-2.421,-2.4135,-2.4171,-2.5136,-2.7978,-2.8736,0.0,0.0,0.0,0.0,0.0,0.0,0.0,0.0,0.0,0.0,0.0,0.0,0.0,-4.9713,-4.898,-4.8285,-4.7777,-4.8807,-4.8967,-4.8149,-4.8637,-4.8493,-4.7717,-4.7717,-4.7717,-4.7717,-4.7717,-4.7717,0.0,-4.7717,-4.7717,0.0,-4.7717,-4.7717,-4.7717,-4.7717,-4.7717,-4.7717,-4.7717,-4.7717,-4.7717,0.0,0.0,0.0,0.0,0.0,0.0,0.0,-1.156,-1.2186,-1.3807,-1.4062,-1.4746,-1.6425,-1.5879,-1.5723,-1.6543,0.0,0.0,0.0,0.0,0.0,0.0,0.0,0.0,0.0,0.0,0.0,-2.1693,-2.1752,-2.2582,-2.4101,0.0,0.0,0.0,0.0,0.0,0.0,0.0,0.0,0.0,-1.9903,-1.9769,0.0,0.0,0.0,0.0,0.0,0.0,0.0,0.0,0.0,0.0,0.0,0.0,0.0,0.0,0.0,0.0,0.0,-2.8483,-2.9167,-2.9186,-2.8577,-2.7782,-2.7025,-2.6267,0.0,-2.4496,-2.4347,-2.4347,-2.4212,-2.4232,-2.4649,-2.5731,-2.6591,0.0,0.0,0.0,0.0,0.0,0.0,0.0,0.0,0.0,0.0,0.0,0.0,0.0,-4.9213,-4.8382,-4.7902,-4.7902,-4.9234,-4.9586,-4.8818,-4.88,-4.8438,-4.7717,-4.7717,-4.7717,-4.7717,-4.7717,-4.7717,0.0,-4.7717,-4.7717,-4.7717,-4.7717,-4.7699,-4.772,-4.7717,-4.7699,-4.772,-4.7717,-4.7717,-4.7717,0.0,0.0,0.0,0.0,0.0,0.0,0.0,0.0,0.0,0.0,-1.3711,-1.4512,-1.5586,-1.5527,-1.5488,0.0,0.0,0.0,0.0,0.0,0.0,0.0,0.0,0.0,0.0,0.0,0.0,-2.2663,-2.3348,-2.4173,-2.5136,-2.4273,0.0,0.0,0.0,0.0,0.0,0.0,0.0,0.0,-2.0184,-2.0123,0.0,0.0,0.0,0.0,-2.0365,-2.1372,0.0,0.0,0.0,0.0,0.0,0.0,0.0,0.0,-2.3126,-2.3313,-2.3908,0.0,-2.5944,-2.616,-2.6026,-2.5743,0.0,-2.5216,-2.4952,0.0,0.0,-2.4654,-2.5732,-2.5447,-2.6321,-3.0198,-3.1047,0.0,0.0,0.0,0.0,0.0,0.0,0.0,0.0,0.0,0.0,0.0,0.0,-4.8539,-4.9177,-4.8427,-4.797,-4.797,-4.8314,-4.832,-4.7989,-4.7968,-4.7877,-4.7717,-4.7717,-4.7717,-4.7717,-4.7717,-4.7717,-4.7717,-4.7717,-4.7717,-4.7717,-4.7717,-4.7804,-4.7911,-4.7762,-4.7804,-4.7909,-4.7762,-4.7717,-4.7717,0.0,0.0,0.0,0.0,0.0,0.0,0.0,0.0,0.0,0.0,0.0,-1.4023,-1.5254,-1.5391,0.0,0.0,0.0,0.0,0.0,0.0,0.0,0.0,0.0,0.0,0.0,0.0,0.0,0.0,0.0,-2.4318,0.0,0.0,0.0,0.0,0.0,0.0,0.0,0.0,0.0,-1.9688,-2.0115,0.0,0.0,0.0,0.0,0.0,-2.0308,-2.1131,0.0,-2.1615,-2.2919,-2.4505,0.0,0.0,0.0,0.0,-2.2497,-2.2238,-2.2679,-2.4162,-2.5514,-2.526,-2.5465,-2.5703,-2.5564,0.0,0.0,0.0,0.0,0.0,-2.58,-2.591,0.0,-3.0258,-3.1816,0.0,0.0,0.0,0.0,0.0,0.0,0.0,0.0,0.0,0.0,0.0,0.0,-4.8919,-4.9376,-4.8548,-4.809,-4.809,-4.8032,-4.7949,-4.7827,-4.7827,-4.7827,-4.7827,-4.7827,-4.7886,-4.7927,-4.7866,-4.7886,-4.7927,-4.7847,-4.7827,-4.7827,-4.7827,-4.7929,-4.807,-4.7968,-4.7949,-4.7992,-4.7868,-4.7783,-4.7717,0.0,0.0,0.0,0.0,0.0,0.0,0.0,0.0,0.0,0.0,0.0,0.0,0.0,0.0,0.0,0.0,0.0,0.0,0.0,0.0,0.0,0.0,0.0,0.0,0.0,0.0,0.0,0.0,0.0,0.0,0.0,0.0,-2.5092,0.0,0.0,0.0,0.0,0.0,0.0,-1.9261,-2.0004,0.0,0.0,0.0,0.0,0.0,0.0,0.0,0.0,-2.2216,-2.3163,-2.4033,-2.3648,0.0,0.0,0.0,0.0,0.0,-2.2566,-2.463,-2.6272,-2.5264,-2.575,-2.6446,-2.6243,0.0,0.0,0.0,0.0,0.0,0.0,0.0,0.0,0.0,0.0,0.0,0.0,0.0,0.0,0.0,0.0,0.0,0.0,0.0,0.0,0.0,0.0,-4.928,-4.939,-4.865,-4.8207,-4.8207,-4.811,-4.8052,-4.8052,-4.8012,-4.7992,-4.7992,-4.7992,-4.807,-4.8168,-4.805,-4.807,-4.8168,0.0,0.0,-4.7992,-4.7992,-4.809,-4.8207,-4.8168,-4.809,-4.8012,-4.7951,-4.7827,-4.7717,0.0,0.0,0.0,0.0,0.0,0.0,0.0,0.0,0.0,0.0,0.0,0.0,0.0,0.0,0.0,0.0,0.0,0.0,0.0,0.0,0.0,0.0,0.0,0.0,0.0,0.0,0.0,0.0,0.0,0.0,-2.5675,-2.6371,-2.5398,-2.3069,0.0,0.0,0.0,0.0,0.0,-2.0119,-2.025,0.0,0.0,0.0,0.0,0.0,0.0,0.0,0.0,-2.0865,-2.222,-2.3725,-2.1562,0.0,0.0,0.0,0.0,0.0,-2.259,-2.4649,-2.6175,-2.4528,-2.5262,-2.6212,-2.5469,0.0,0.0,0.0,0.0,0.0,0.0,0.0,0.0,0.0,0.0,0.0,0.0,0.0,0.0,0.0,0.0,0.0,0.0,0.0,0.0,0.0,0.0,-4.7792,-4.8471,-4.836,-4.8287,-4.8287,-4.8267,-4.8248,-4.8248,-4.8092,-4.7992,-4.7992,-4.7992,-4.8012,-4.8032,-4.8012,-4.8012,-4.8032,0.0,-4.7992,-4.7992,-4.7992,-4.8111,-4.8248,-4.8026,-4.8046,-4.8128,-4.7705,-4.7636,-4.7717,0.0,0.0,0.0,0.0,0.0,0.0,0.0,0.0,0.0,0.0,0.0,0.0,0.0,0.0,0.0,0.0,0.0,0.0,0.0,0.0,0.0,0.0,0.0,0.0,0.0,0.0,0.0,0.0,0.0,-2.6333,-2.639,-2.6265,-2.5061,-2.2994,0.0,0.0,0.0,0.0,-2.0308,-2.0308,0.0,0.0,0.0,0.0,0.0,0.0,0.0,0.0,0.0,0.0,-2.2043,-2.3105,-2.1466,0.0,0.0,0.0,0.0,0.0,-2.1354,-2.3284,-2.4995,-2.4131,-2.5872,-2.779,-2.7807,0.0,0.0,0.0,0.0,0.0,0.0,0.0,0.0,0.0,0.0,0.0,0.0,0.0,0.0,0.0,0.0,0.0,0.0,0.0,0.0,0.0,0.0,0.0,-4.8288,-4.8306,-4.8104,-4.7663,-4.8086,-4.8104,-4.7663,-4.799,-4.817,-4.817,-4.817,-4.819,-4.8267,-4.8208,-4.819,-4.8267,0.0,-4.817,-4.817,-4.817,-4.8267,-4.84,-4.8265,-4.8226,-4.8208,-4.7765,-4.7615,-4.7521,0.0,0.0,0.0,0.0,0.0,0.0,0.0,0.0,0.0,0.0,0.0,0.0,0.0,0.0,0.0,0.0,0.0,0.0,0.0,0.0,0.0,0.0,0.0,0.0,0.0,0.0,-2.2762,-2.5395,-2.6019,-2.6546,-2.6977,-2.6058,-2.4716,0.0,0.0,0.0,0.0,-2.0311,-2.0315,-2.0296,0.0,0.0,0.0,0.0,0.0,0.0,0.0,0.0,0.0,0.0,0.0,0.0,0.0,0.0,0.0,-2.1254,-2.0751,-2.0685,-2.1085,-2.2577,-2.4072,-2.441,0.0,-2.8734,-3.0075,0.0,0.0,0.0,0.0,0.0,0.0,0.0,0.0,0.0,0.0,0.0,0.0,0.0,0.0,0.0,0.0,0.0,0.0,0.0,0.0,0.0,0.0,0.0,-4.8288,-4.8122,-4.781,-4.7388,-4.7791,-4.781,-4.7388,-4.781,-4.8122,-4.8306,-4.8306,-4.8363,-4.8457,-4.8343,-4.8252,-4.8162,-4.805,-4.7921,-4.7737,-4.7737,-4.7793,-4.7886,-4.7868,-4.7774,-4.7584,-4.7322,-4.7117,-4.6925,0.0,0.0,0.0,0.0,0.0,0.0,0.0,0.0,0.0,0.0,0.0,0.0,0.0,0.0,0.0,0.0,0.0,0.0,0.0,0.0,0.0,0.0,0.0,0.0,0.0,-2.3683,-2.4246,-2.4495,-2.6916,-2.7737,-2.6977,-2.6096,-2.4777,-2.3056,0.0,0.0,0.0,0.0,-2.0355,-2.0296,-2.0296,0.0,0.0,0.0,0.0,0.0,0.0,0.0,0.0,0.0,0.0,0.0,0.0,0.0,-2.2778,-2.2663,-2.2098,-2.1841,-2.3403,-2.3908,-2.437,-2.5934,-2.6443,0.0,-3.0521,-3.0586,0.0,0.0,0.0,0.0,0.0,0.0,0.0,0.0,0.0,0.0,0.0,0.0,0.0,0.0,0.0,0.0,0.0,0.0,0.0,0.0,0.0,0.0,-4.8233,-4.759,-4.7498,-4.8196,-4.7553,-4.7516,-4.8214,-4.7516,-4.7553,-4.8306,-4.8306,-4.8306,-4.8306,-4.8306,-4.7902,-4.7205,-4.7186,-4.6746,-4.6067,-4.6067,-4.6067,-4.6085,-4.6011,-4.5824,-4.5612,-4.5727,-4.5669,-4.5573,0.0,0.0,0.0,0.0,0.0,0.0,0.0,0.0,0.0,0.0,0.0,0.0,0.0,0.0,0.0,0.0,0.0,0.0,0.0,0.0,0.0,0.0,0.0,-2.0813,-2.2317,-2.37,-2.4927,-2.6019,-2.7016,-2.7055,-2.6175,-2.5296,0.0,0.0,0.0,0.0,0.0,0.0,0.0,-2.1053,-2.0518,-2.0301,0.0,0.0,0.0,0.0,0.0,0.0,0.0,0.0,-2.0639,-2.1466,-2.1293,-2.1966,-2.2701,-2.2158,-2.1778,-2.169,-2.2316,-2.3583,-2.5025,-2.6211,0.0,0.0,0.0,0.0,0.0,0.0,0.0,0.0,0.0,0.0,0.0,0.0,0.0,0.0,0.0,0.0,0.0,0.0,0.0,0.0,0.0,0.0,0.0,0.0,0.0,0.0,-4.6783,-4.6526,-4.6269,-4.6085,-4.625,-4.6269,-4.6067,-4.6269,-4.6507,-4.6819,-4.7829,-4.8306,-4.8306,-4.8306,-4.7846,-4.7094,-4.7094,-4.6636,-4.5902,-4.5902,-4.5902,-4.5902,-4.5865,-4.5754,-4.564,-4.5603,-4.5526,-4.5409,0.0,0.0,0.0,0.0,0.0,0.0,0.0,0.0,0.0,0.0,0.0,0.0,0.0,0.0,0.0,0.0,0.0,0.0,0.0,0.0,0.0,0.0,0.0,-2.0324,-2.1457,-2.3132,-2.471,-2.6175,-2.645,-2.6274,-2.5687,0.0,0.0,0.0,0.0,0.0,0.0,0.0,0.0,0.0,-2.0698,-2.0315,0.0,0.0,0.0,0.0,0.0,0.0,0.0,0.0,-2.0177,-2.1115,-2.11,-2.1696,-2.2331,-2.2004,-2.21,-2.2312,-2.2312,-2.3948,-2.585,0.0,0.0,0.0,0.0,0.0,0.0,0.0,0.0,0.0,0.0,0.0,0.0,0.0,0.0,0.0,0.0,0.0,0.0,0.0,0.0,0.0,0.0,0.0,0.0,0.0,0.0,0.0,0.0,-4.5663,-4.5388,-4.5094,-4.5369,-4.5388,-4.5094,-4.5369,-4.5645,-4.5902,-4.7021,-4.7682,-4.7901,-4.7664,-4.7241,-4.6709,-4.6452,-4.5902,-4.5131,-4.5131,-4.5131,-4.5131,-4.5131,-4.5113,-4.5059,-4.4967,-4.4875,-4.48,0.0,0.0,0.0,0.0,0.0,0.0,0.0,0.0,0.0,0.0,0.0,0.0,0.0,0.0,0.0,0.0,0.0,0.0,0.0,0.0,0.0,0.0,0.0,-1.8822,-2.0541,-2.2235,-2.3521,-2.4397,-2.5257,-2.5687,-2.5668,-2.4789,0.0,0.0,0.0,0.0,0.0,0.0,0.0,0.0,-2.0789,-2.0363,-2.0296,0.0,0.0,0.0,0.0,0.0,0.0,0.0,-2.0288,-2.0596,-2.2254,-2.2197,-2.1696,-2.2547,-2.3413,-2.411,-2.4091,-2.5317,0.0,0.0,0.0,0.0,0.0,0.0,0.0,0.0,0.0,0.0,0.0,0.0,0.0,0.0,0.0,0.0,0.0,0.0,0.0,0.0,0.0,0.0,0.0,0.0,0.0,0.0,0.0,0.0,0.0,-4.5131,-4.5057,-4.5847,-4.5112,-4.5076,-4.5865,-4.5094,-4.5094,-4.5883,-4.5883,-4.6305,-4.7058,-4.6269,-4.5902,-4.5847,-4.5057,-4.425,-4.3515,-4.3515,-4.3515,-4.3515,-4.3515,-4.3515,-4.3515,-4.3515,-4.3515,-4.3515,0.0,0.0,0.0,0.0,0.0,0.0,0.0,0.0,0.0,0.0,0.0,0.0,0.0,0.0,0.0,0.0,0.0,0.0,0.0,0.0,0.0,0.0,0.0,0.0,0.0,0.0,-2.2954,-2.4397,-2.4652,-2.4476,0.0,0.0,0.0,-2.3462,0.0,0.0,0.0,0.0,0.0,0.0,-2.1427,-2.092,-2.0376,0.0,0.0,0.0,0.0,0.0,0.0,0.0,0.0,0.0,-2.0885,-2.2081,-2.3144,-2.2177,-2.3331,-2.4697,-2.3509,-2.5238,0.0,0.0,0.0,0.0,0.0,0.0,0.0,0.0,0.0,0.0,0.0,0.0,0.0,0.0,0.0,0.0,0.0,0.0,0.0,0.0,0.0,0.0,0.0,0.0,0.0,0.0,0.0,0.0,0.0,-4.3975,-4.3956,-4.4212,-4.3975,-4.3975,-4.4195,-4.3975,-4.4093,-4.4557,-4.4557,-4.5151,-4.625,-4.6012,-4.559,-4.5039,-4.48,-4.425,-4.3515,-4.3515,-4.3515,-4.3515,-4.3515,-4.3515,-4.3515,-4.3515,-4.3515,-4.3588,0.0,0.0,0.0,0.0,0.0,0.0,0.0,0.0,0.0,0.0,0.0,-1.5391,0.0,0.0,0.0,0.0,0.0,0.0,0.0,0.0,0.0,0.0,0.0,0.0,0.0,-2.1238,-2.272,0.0,0.0,0.0,0.0,0.0,0.0,-2.4132,0.0,-2.3933,0.0,0.0,0.0,0.0,-2.1887,-2.1396,-2.0941,0.0,0.0,0.0,0.0,0.0,0.0,0.0,0.0,0.0,-2.0308,-2.135,-2.2509,-2.212,-2.3577,-2.5231,-2.4909,0.0,0.0,0.0,0.0,0.0,0.0,0.0,0.0,0.0,0.0,0.0,0.0,0.0,0.0,0.0,0.0,0.0,0.0,0.0,0.0,0.0,0.0,0.0,0.0,0.0,0.0,0.0,0.0,0.0,0.0,-4.3565,-4.3548,-4.3699,-4.3699,-4.3747,-4.3855,-4.3855,-4.3977,-4.4209,-4.4209,-4.4614,-4.5382,-4.522,-4.4977,-4.4673,-4.436,-4.3956,-4.3515,-4.3515,-4.3515,-4.3515,-4.3515,-4.3515,-4.3515,-4.3515,-4.3515,-4.357,0.0,0.0,-1.0476,-1.0613,0.0,0.0,0.0,0.0,0.0,0.0,0.0,-1.539,0.0,0.0,0.0,-1.541,0.0,0.0,0.0,0.0,0.0,0.0,0.0,0.0,0.0,0.0,0.0,0.0,0.0,0.0,0.0,0.0,-2.4795,-2.57,0.0,-2.5109,0.0,0.0,0.0,0.0,-2.2088,-2.1745,-2.1664,-2.161,0.0,0.0,0.0,0.0,0.0,0.0,0.0,0.0,-2.0308,-2.0404,-2.0788,-2.2177,-2.3928,-2.5731,-2.7159,0.0,0.0,0.0,0.0,0.0,0.0,0.0,0.0,0.0,0.0,0.0,0.0,0.0,0.0,0.0,0.0,0.0,0.0,0.0,0.0,0.0,0.0,0.0,0.0,0.0,0.0,0.0,0.0,0.0,0.0,-4.3527,-4.3492,-4.3813,-4.3813,-4.3927,-4.4177,-4.4233,-4.4325,-4.442,-4.4508,-4.4572,-4.4606,-4.4219,-4.4273,-4.4649,-4.3911,-4.3615,-4.358,-4.3597,-4.3597,-4.3615,-4.3565,-4.3548,-4.3548,-4.3496,-4.3515,-4.3515,0.0,0.0,-1.1747,-1.3057,0.0,0.0,0.0,0.0,-1.5194,-1.5386,-1.5409,-1.541,-1.5408,-1.5409,0.0,-1.5408,-1.5407,0.0,0.0,0.0,0.0,0.0,0.0,0.0,0.0,0.0,0.0,0.0,0.0,0.0,0.0,0.0,0.0,-2.5661,0.0,-2.4198,0.0,0.0,0.0,-2.1093,-2.1604,-2.1388,-2.0771,-2.076,-2.0251,0.0,0.0,0.0,0.0,0.0,0.0,0.0,-2.0308,-2.1196,-2.2062,-2.1119,-2.3442,-2.612,0.0,0.0,0.0,0.0,0.0,0.0,0.0,0.0,0.0,0.0,0.0,0.0,0.0,0.0,0.0,0.0,0.0,0.0,0.0,0.0,0.0,0.0,0.0,0.0,0.0,0.0,0.0,0.0,0.0,0.0,-4.2352,-4.2282,-4.2282,-4.2352,-4.2352,-4.2379,-4.2428,-4.3061,-4.3559,-4.3884,-4.4509,-4.4825,-4.4825,-4.458,-4.4486,-4.4547,-4.443,-4.4323,-4.4299,-4.4337,-4.4364,-4.4337,-4.4035,-4.3896,-4.3865,-4.3597,-4.3515,-4.3515,0.0,0.0,0.0,0.0,0.0,0.0,0.0,0.0,-1.5409,-1.5406,-1.5408,-1.5409,-1.5407,-1.5408,0.0,0.0,-1.5407,-1.5406,0.0,0.0,0.0,0.0,0.0,0.0,0.0,0.0,0.0,0.0,0.0,0.0,0.0,0.0,0.0,-2.5663,0.0,-2.3926,0.0,0.0,-2.161,-2.1201,-2.1664,-2.1335,-2.054,-2.0559,-1.9768,-1.8665,-1.8605,0.0,0.0,0.0,0.0,0.0,0.0,0.0,-2.1581,-2.1523,-2.3351,-2.5491,0.0,0.0,0.0,0.0,0.0,0.0,0.0,0.0,0.0,0.0,0.0,0.0,0.0,0.0,0.0,0.0,0.0,0.0,0.0,0.0,0.0,0.0,0.0,0.0,0.0,0.0,0.0,0.0,0.0,-4.2285,-4.2736,-4.2195,-4.1956,-4.209,-4.209,-4.217,-4.234,-4.2756,-4.3069,-4.3274,-4.4113,-4.4524,-4.4554,-4.4512,-4.4493,-4.4452,-4.4533,-4.4533,-4.4506,-4.4567,-4.4593,-4.458,-4.4378,-4.4276,-4.428,-4.4095,-4.3915,-4.3742,0.0,0.0,0.0,0.0,0.0,0.0,0.0,0.0,0.0,-1.5408,-1.5408,-1.5408,-1.5407,-1.5407,-1.5407,0.0,0.0,0.0,-1.5402,0.0,0.0,0.0,0.0,0.0,0.0,0.0,0.0,0.0,0.0,0.0,0.0,0.0,0.0,-2.5664,0.0,0.0,0.0,0.0,-2.1596,-2.1432,-2.1296,-2.079,-2.0129,-1.9973,-1.9037,-1.7769,-1.7716,-1.825,-1.8992,-1.9064,0.0,0.0,0.0,0.0,-2.0577,-2.1966,-2.3086,-2.4341,0.0,0.0,0.0,0.0,0.0,0.0,0.0,0.0,0.0,0.0,0.0,0.0,0.0,0.0,0.0,0.0,0.0,0.0,0.0,0.0,0.0,0.0,0.0,0.0,0.0,0.0,0.0,0.0,0.0,-4.2789,-4.3552,-4.2498,-4.1968,-4.2188,-4.2033,-4.2083,-4.2374,-4.2507,-4.2584,-4.2594,-4.3599,-4.4202,-4.4384,-4.4504,-4.4489,-4.4371,-4.4581,-4.4663,-4.465,-4.4726,-4.4732,-4.472,-4.467,-4.4644,-4.4657,-4.4593,-4.4378,-4.4091,0.0,0.0,0.0,0.0,0.0,0.0,0.0,0.0,0.0,0.0,-1.541,-1.5409,-1.5407,-1.5407,-1.5407,-1.5405,-1.5405,-1.5404,0.0,0.0,0.0,0.0,0.0,0.0,0.0,0.0,0.0,0.0,0.0,0.0,0.0,0.0,0.0,-2.5663,0.0,0.0,0.0,0.0,-2.0332,-1.9583,-1.8822,-1.8452,-1.8257,-1.7517,-1.7088,-1.6873,-1.6853,-1.739,-1.8181,-1.8871,-1.9632,0.0,0.0,0.0,0.0,-2.0577,-2.1735,0.0,0.0,0.0,0.0,0.0,0.0,0.0,0.0,0.0,0.0,0.0,0.0,0.0,0.0,0.0,0.0,0.0,0.0,0.0,0.0,0.0,0.0,0.0,0.0,0.0,0.0,0.0,0.0,0.0,-4.3148,-4.3054,-4.3178,-4.2257,-4.1742,-4.177,-4.0988,-4.0597,-4.0626,-4.1323,-4.1676,-4.1676,-4.3262,-4.4409,-4.5145,-4.5167,-4.4794,-4.4187,-4.4956,-4.5281,-4.5288,-4.5282,-4.5283,-4.5263,-4.4966,-4.4896,-4.4908,-4.4624,-4.4493,-4.4392,0.0,0.0,0.0,0.0,0.0,0.0,0.0,0.0,0.0,0.0,0.0,-1.5409,-1.5406,-1.5407,-1.5406,-1.54,-1.5403,0.0,0.0,0.0,0.0,0.0,0.0,0.0,0.0,0.0,0.0,0.0,0.0,0.0,0.0,-2.375,-2.4804,0.0,0.0,0.0,0.0,0.0,-2.0545,-1.9271,-1.8881,-1.8992,-1.9195,-1.7397,-1.7279,-1.7914,-1.6482,-1.6832,-1.7991,-1.8312,-1.9299,-2.0349,-2.0318,0.0,0.0,0.0,0.0,0.0,0.0,0.0,0.0,0.0,0.0,0.0,0.0,0.0,0.0,0.0,0.0,0.0,0.0,0.0,0.0,0.0,0.0,0.0,0.0,0.0,0.0,0.0,0.0,0.0,0.0,0.0,0.0,0.0,-4.3678,-4.3338,-4.3859,-4.2997,-4.2486,-4.2486,-4.2078,-4.1623,-4.1091,-4.1435,-4.1829,-4.2221,-4.2488,-4.3291,-4.4571,-4.4571,-4.439,-4.4085,-4.5006,-4.5122,-4.4709,-4.5189,-4.54,-4.539,-4.5232,-4.5201,-4.5211,-4.5063,-4.4884,-4.4688,0.0,0.0,0.0,0.0,0.0,0.0,0.0,0.0,0.0,0.0,0.0,-1.5409,-1.5405,0.0,0.0,0.0,-1.5401,0.0,0.0,0.0,0.0,0.0,0.0,0.0,0.0,0.0,0.0,0.0,0.0,0.0,-2.5346,-2.4488,-2.6401,0.0,-2.7613,0.0,0.0,0.0,0.0,-1.9935,-1.972,-1.998,-2.0341,-1.885,-1.9074,-1.9843,-1.7527,-1.7669,-1.8871,-1.8392,-1.9205,-2.037,-2.0084,0.0,0.0,0.0,0.0,0.0,0.0,0.0,0.0,0.0,0.0,0.0,0.0,0.0,0.0,0.0,0.0,0.0,0.0,0.0,0.0,0.0,0.0,0.0,0.0,0.0,0.0,0.0,0.0,0.0,0.0,0.0,0.0,0.0,-4.4014,-4.3427,-4.4126,-4.3277,-4.2775,-4.2775,-4.2538,-4.2074,-4.1391,-4.1355,-4.1723,-4.245,-4.203,-4.2584,-4.4006,-4.4006,-4.3892,-4.3749,-4.465,-4.4804,-4.444,-4.4863,-4.517,-4.5361,-4.5361,-4.5371,-4.54,-4.54,-4.5241,-4.4992,0.0,0.0,0.0,0.0,0.0,0.0,0.0,0.0,0.0,0.0,0.0,-1.5407,-1.5405,-1.5405,-1.5402,-1.5391,-1.54,0.0,0.0,0.0,0.0,0.0,0.0,0.0,0.0,0.0,0.0,0.0,0.0,0.0,-2.4496,-2.608,-2.9085,-3.3046,-2.9664,-2.7246,-2.5586,0.0,0.0,-2.1691,-2.0874,-2.0529,-2.0667,-2.2116,-2.2687,-2.2497,-2.0839,-2.0773,0.0,0.0,0.0,-2.0336,-1.9432,-1.9139,-1.8923,0.0,0.0,0.0,0.0,0.0,0.0,0.0,0.0,0.0,0.0,0.0,0.0,0.0,0.0,0.0,0.0,0.0,0.0,0.0,0.0,0.0,0.0,0.0,0.0,0.0,0.0,0.0,0.0,0.0,0.0,0.0,-4.372,-4.3211,-4.3277,-4.2372,-4.187,-4.187,-4.1003,-4.053,-4.0464,-4.041,-4.0767,-4.1571,-4.2354,-4.3176,-4.4006,-4.4006,-4.3567,-4.2908,-4.373,-4.4513,-4.5173,-4.438,-4.4562,-4.5307,-4.5307,-4.5348,-4.5408,-4.5408,-4.5379,-4.5338,0.0,0.0,0.0,0.0,0.0,0.0,0.0,0.0,0.0,0.0,0.0,0.0,0.0,-1.5401,-1.5397,-1.5393,-1.5404,0.0,0.0,0.0,0.0,0.0,0.0,0.0,0.0,0.0,0.0,0.0,0.0,-1.9116,-2.3567,-2.3683,-2.5713,-2.9266,-2.8592,-2.8554,-2.875,-2.5368,0.0,-2.2646,-2.2335,-2.2829,-2.3729,-2.3205,-2.401,-2.5101,-2.2848,0.0,0.0,0.0,0.0,-2.1179,-2.0274,-1.9225,-1.8146,-1.7222,0.0,0.0,0.0,0.0,0.0,0.0,0.0,0.0,0.0,0.0,0.0,0.0,0.0,0.0,0.0,0.0,0.0,0.0,0.0,0.0,0.0,0.0,0.0,0.0,0.0,0.0,0.0,0.0,0.0,0.0,0.0,-4.3199,-4.3199,-4.288,-4.2691,-4.2691,-4.2372,-4.1909,-4.1295,-4.1737,-4.2114,-4.2402,-4.2661,-4.3234,-4.4038,-4.3442,-4.3031,-4.2775,-4.2507,-4.2565,-4.287,-4.3138,-4.373,-4.4475,-4.4475,-4.481,-4.5328,-4.5328,-4.5328,-4.5277,0.0,0.0,0.0,-1.5391,0.0,-1.5391,-1.5391,-1.539,-1.5507,-1.58,0.0,0.0,0.0,0.0,-1.6143,-1.5851,-1.5837,0.0,-1.5429,0.0,0.0,0.0,0.0,0.0,0.0,0.0,0.0,0.0,0.0,0.0,0.0,-2.2141,-2.3839,-2.6553,-2.656,-2.7656,0.0,0.0,0.0,-2.4421,0.0,-2.5497,-2.6435,-2.6147,-2.6875,-2.7851,0.0,0.0,0.0,0.0,0.0,0.0,-2.1316,-1.9374,-1.7377,-1.6747,-1.774,0.0,0.0,0.0,0.0,0.0,0.0,0.0,0.0,0.0,0.0,0.0,0.0,0.0,0.0,0.0,0.0,0.0,0.0,0.0,0.0,0.0,0.0,0.0,0.0,0.0,0.0,0.0,0.0,0.0,0.0,0.0,-4.1889,-4.1889,-4.2005,-4.2294,-4.2294,-4.1986,-4.1365,-4.2125,-4.2504,-4.2505,-4.3025,-4.3417,-4.3627,-4.3014,-4.2593,-4.2316,-4.1476,-4.1418,-4.1953,-4.224,-4.2851,-4.3605,-4.3605,-4.4131,-4.4857,-4.4857,-4.5048,-4.5256,-1.5391,-1.543,-1.5449,-1.5449,-1.5469,-1.5488,-1.5488,-1.5487,-1.5777,-1.6634,0.0,0.0,0.0,0.0,0.0,-1.6855,-1.6756,-1.6363,-1.5505,-1.541,0.0,0.0,0.0,0.0,0.0,0.0,0.0,0.0,0.0,0.0,0.0,0.0,-2.3872,-2.5434,-2.3822,-2.4491,-2.6894,0.0,-2.7698,-2.7113,0.0,-2.8246,-2.8556,0.0,-3.1435,0.0,-3.0752,-2.9713,0.0,-2.7404,0.0,0.0,-2.245,-1.9578,-1.6806,-1.6786,-1.7931,0.0,0.0,0.0,0.0,0.0,0.0,0.0,0.0,0.0,0.0,0.0,0.0,0.0,0.0,0.0,0.0,0.0,0.0,0.0,0.0,0.0,0.0,0.0,0.0,0.0,0.0,0.0,0.0,0.0,-4.02,-3.9265,-3.9265,-3.9265,-3.9631,-4.0439,-4.0496,-4.0492,-4.0502,-4.1355,-4.1752,-4.1766,-4.3387,-4.3685,-4.2805,-4.2738,-4.2279,-4.1466,-4.0673,-4.1285,-4.2746,-4.1848,-4.1972,-4.2756,-4.2756,-4.3252,-4.3968,-4.3987,-4.4551,-4.5269,-1.5391,-1.5918,-1.6348,-1.6348,-1.6855,-1.7285,-1.7285,-1.7285,-1.7363,0.0,0.0,0.0,-1.8043,-1.8552,-1.8845,-1.8592,-1.8007,-1.7266,-1.6406,-1.5742,-1.5409,-1.5409,-1.5409,-1.5702,0.0,0.0,0.0,0.0,0.0,0.0,0.0,0.0,0.0,0.0,-2.2498,-2.3183,-2.332,-2.3511,0.0,-2.7854,-2.6839,-2.7889,0.0,0.0,0.0,0.0,0.0,-3.1846,-3.0903,0.0,-2.9083,-2.6675,0.0,-2.1231,-1.9318,-1.8698,-2.0135,-2.1653,-2.0374,0.0,0.0,0.0,0.0,0.0,0.0,0.0,0.0,0.0,0.0,0.0,0.0,0.0,0.0,0.0,0.0,0.0,0.0,0.0,0.0,0.0,0.0,0.0,0.0,0.0,0.0,0.0,-3.8969,-3.8354,-3.8354,-3.8354,-3.8738,-3.9611,-4.0208,-4.0508,-4.0492,-4.2549,-4.3291,-4.2725,-4.3078,-4.3156,-4.2905,-4.1587,-4.1224,-4.1622,-4.1411,-4.1928,-4.2821,-4.1274,-4.1113,-4.1858,-4.1858,-4.2374,-4.3195,-4.3796,-4.414,-4.4456,-1.6406,-1.6894,-1.7363,-1.7715,-1.8203,-1.8652,-1.9023,-1.9082,-1.9218,0.0,0.0,0.0,-2.0194,-2.0916,-2.0994,-1.9941,-1.9375,-1.8418,-1.6797,-1.621,-1.578,-1.5429,-1.5742,-1.6172,-1.6699,0.0,0.0,0.0,0.0,0.0,0.0,0.0,0.0,0.0,-1.9763,-2.078,-2.1309,-2.0546,0.0,0.0,-2.7659,0.0,0.0,-3.2519,-3.3546,0.0,0.0,0.0,-3.3175,-3.3544,-3.1529,0.0,0.0,-2.3214,-2.1885,-2.0678,-2.1876,-2.3279,-2.1901,0.0,0.0,0.0,0.0,0.0,0.0,-2.6656,0.0,0.0,0.0,0.0,0.0,0.0,0.0,0.0,0.0,0.0,0.0,0.0,0.0,0.0,0.0,0.0,0.0,-3.8565,-3.82,-3.8719,-3.795,-3.7469,-3.7469,-3.7469,-3.7853,-3.8719,-3.92,-3.9457,-3.9457,-4.1277,-4.2143,-4.2008,-4.2305,-4.246,-4.2431,-4.1372,-4.098,-4.1168,-4.1168,-4.1456,-4.1831,-4.0784,-4.1035,-4.2039,-4.1714,-4.2317,-4.3436,-4.3885,-4.4267,-4.4651,0.0,-1.8086,-1.8418,-1.9297,-1.9512,-1.9883,-2.0761,-2.0878,-2.1131,0.0,-2.2087,0.0,-2.3652,-2.4237,-2.3631,-2.1367,-2.0916,-1.9724,-1.7285,-1.6855,-1.6406,-1.5723,-1.6348,-1.6797,-1.6973,-1.7656,0.0,0.0,0.0,0.0,0.0,0.0,0.0,0.0,-1.6768,-1.814,-2.0234,-1.9179,-2.1424,-2.5962,-2.9006,-3.1094,0.0,0.0,-3.6031,-3.648,-3.8045,-3.7108,-3.5213,-3.5797,-3.3398,0.0,-2.7025,-2.5629,-2.4652,-2.2954,-2.3598,0.0,-2.377,-2.4057,0.0,-2.5354,-2.4469,0.0,-2.6947,-2.6536,0.0,0.0,0.0,0.0,0.0,0.0,0.0,0.0,0.0,0.0,0.0,0.0,0.0,0.0,0.0,0.0,-3.7719,-3.7719,-3.7719,-3.7719,-3.7,-3.6577,-3.6577,-3.6577,-3.6962,-3.7834,-3.7853,-3.7892,-3.8007,-3.8854,-3.9669,-4.0381,-4.1239,-4.1618,-4.1574,-4.1574,-4.1204,-4.0567,-4.0567,-4.0624,-4.0682,-4.0605,-4.1383,-4.2572,-4.1939,-4.2618,-4.3949,-4.4078,-4.4614,-4.5276,-1.7969,-1.8555,-1.9316,-2.0195,-2.0937,-2.1699,-2.2559,-2.2656,-2.2676,-2.2832,-2.3476,0.0,0.0,-2.6191,-2.5253,-2.4744,-2.2829,-2.113,-1.9919,-1.7868,-1.6932,-1.7461,-1.6973,-1.7363,-1.8769,-1.8262,-1.793,0.0,0.0,0.0,0.0,0.0,0.0,0.0,-1.712,-1.8021,-1.8709,-2.1836,-2.4139,-2.5755,-2.6435,0.0,-3.4256,-3.4764,-3.6267,-3.8142,-3.8474,-3.8279,-3.7654,-3.6422,-3.4979,-3.3241,0.0,-2.9236,-2.8245,-2.6508,-2.6722,-2.7345,-2.6485,-2.6347,-2.6323,-2.5726,-2.5853,0.0,-2.5193,-2.5809,-2.6663,0.0,0.0,0.0,0.0,0.0,0.0,0.0,0.0,0.0,0.0,0.0,0.0,0.0,0.0,0.0,-3.5981,-3.5981,-3.5981,-3.5981,-3.5827,-3.5731,-3.5731,-3.5731,-3.6115,-3.6923,-3.6942,-3.7296,-3.7988,-3.8854,-3.9381,-3.9534,-4.0362,-4.0758,-4.0731,-4.0731,-4.1054,-4.1609,-4.1609,-4.1974,-4.2521,-4.1859,-4.1322,-4.0933,-4.1494,-4.1903,-4.2354,-4.3754,-4.4378,-4.4617,-1.9219,-2.0,-2.0859,-2.1699,-2.2578,-2.3437,-2.4316,-2.4414,-2.4551,-2.498,0.0,0.0,0.0,0.0,-2.6612,-2.5772,-2.4128,-2.2411,-2.0718,-1.9371,-1.8455,-1.8027,-1.8008,-1.8418,-1.9277,-1.9297,-1.9082,0.0,0.0,0.0,0.0,0.0,0.0,0.0,-1.8256,-1.9351,-2.0663,-2.2401,-2.4394,-2.65,-2.8212,0.0,-3.5447,-3.6306,-3.7986,-3.984,-3.984,-3.9567,-3.8863,-3.6714,-3.5719,0.0,-3.2265,-3.1465,-3.1075,0.0,-2.8911,-2.9303,-2.7992,-2.7646,-2.7649,-2.7597,0.0,0.0,0.0,-2.5892,-2.5786,-2.6626,0.0,0.0,0.0,0.0,0.0,0.0,0.0,0.0,0.0,0.0,0.0,0.0,0.0,0.0,-3.4814,-3.4853,-3.5026,-3.5462,-3.55,-3.55,-3.55,-3.55,-3.5673,-3.6096,-3.6096,-3.6308,-3.6757,-3.7199,-3.7603,-3.8007,-3.8854,-3.9477,-3.9919,-4.0323,-4.0754,-4.1201,-4.1201,-4.1432,-4.1778,-4.1374,-4.0912,-4.054,-4.141,-4.203,-4.2508,-4.3348,-4.3673,-4.3764,-2.0469,-2.1309,-2.2109,-2.2754,-2.3711,-2.4648,-2.5332,-2.5586,-2.6074,0.0,0.0,0.0,0.0,0.0,0.0,0.0,-2.5771,-2.4097,-2.2219,-2.1302,-2.027,-1.9043,-1.9199,-1.9453,-1.9785,-2.0332,-2.0176,-1.9297,0.0,0.0,0.0,0.0,0.0,0.0,0.0,0.0,0.0,0.0,0.0,-2.8026,0.0,-3.3754,-3.5719,-3.7614,-3.9294,-4.066,-4.0973,-4.0756,-3.9897,-3.7163,-3.6246,-3.5797,-3.3163,-3.2831,0.0,0.0,0.0,-3.1063,0.0,0.0,-2.9334,-2.9545,0.0,-2.7068,0.0,0.0,0.0,-2.6389,0.0,0.0,0.0,0.0,0.0,0.0,0.0,0.0,0.0,0.0,0.0,0.0,0.0,0.0,-3.3641,-3.3705,-3.4064,-3.4923,-3.5007,-3.5084,-3.5231,-3.5404,-3.55,-3.55,-3.55,-3.55,-3.55,-3.55,-3.5827,-3.6481,-3.7334,-3.82,-3.9092,-3.99,-4.0342,-4.0516,-4.0689,-4.0669,-4.0516,-4.0689,-4.065,-4.0593,-4.1477,-4.2252,-4.2872,-4.3,-4.3063,-4.3119,-2.0586,-2.1309,-2.1934,-2.2012,-2.3359,-2.4434,-2.4531,-2.5195,-2.6289,0.0,0.0,0.0,0.0,0.0,0.0,0.0,0.0,0.0,-2.7399,-2.381,-2.1925,-2.25,-2.0449,-2.0019,-2.1562,-2.0937,-2.0176,-1.9297,0.0,0.0,0.0,0.0,-1.7226,-1.8242,-2.0562,0.0,0.0,0.0,-2.7946,0.0,-3.332,-3.4116,0.0,-3.6482,-3.8045,-3.9079,-4.0563,-4.1537,-4.1596,0.0,-3.7145,-3.6696,0.0,-3.3318,-3.3338,-3.3045,0.0,0.0,0.0,0.0,0.0,0.0,-3.0484,0.0,0.0,0.0,-2.7455,-2.6106,0.0,0.0,0.0,0.0,0.0,0.0,0.0,0.0,0.0,0.0,0.0,0.0,0.0,0.0,0.0,-3.1904,-3.2256,-3.3122,-3.3256,-3.3609,-3.4321,-3.5084,-3.55,-3.55,-3.55,-3.55,-3.55,-3.55,-3.5558,-3.5654,-3.6462,-3.7296,-3.818,-3.9027,-3.9823,-4.0535,-4.1316,-4.12,-4.0554,-4.1335,-4.12,-4.0593,-4.1536,-4.1956,-4.2137,-4.2899,-4.3184,-4.3192,-2.0605,-2.1719,-2.248,-2.1992,-2.3691,-2.498,-2.4473,-2.7246,-2.9492,0.0,0.0,0.0,0.0,0.0,0.0,0.0,0.0,-2.9482,0.0,0.0,0.0,-2.4608,-2.2617,-2.1855,-2.2578,-2.1777,-2.0937,-2.0059,-1.918,0.0,0.0,0.0,-1.9199,-2.1035,-2.2634,0.0,-2.6913,0.0,-2.8666,0.0,0.0,0.0,0.0,-3.8506,-4.0804,-4.1597,-4.1771,-4.2415,-4.263,0.0,-3.8355,0.0,0.0,0.0,0.0,-3.4304,0.0,0.0,0.0,0.0,0.0,0.0,0.0,0.0,-2.7734,0.0,-2.6738,0.0,0.0,0.0,0.0,0.0,0.0,0.0,0.0,0.0,0.0,0.0,0.0,0.0,0.0,0.0,0.0,0.0,0.0,0.0,-3.2526,-3.286,-3.4129,-3.4545,-3.4988,-3.5481,-3.55,-3.55,-3.55,-3.55,-3.55,-3.5519,-3.6327,-3.6885,-3.7296,-3.8661,-3.9477,-3.9842,-4.0681,-4.1123,-4.1239,-4.1104,-4.1123,-4.1239,-4.1128,-4.1097,-4.1135,-4.1505,-4.1662,-4.1697,-2.1269,-2.2324,-2.2891,-2.2051,-2.4004,-2.5566,-2.5176,-2.8496,-3.1074,-3.1146,0.0,0.0,-3.5669,-3.4612,0.0,0.0,-3.4653,-3.3003,0.0,0.0,-2.7907,-2.6814,-2.4863,-2.3809,-2.3809,-2.2773,-2.1816,-2.0957,-1.9844,0.0,0.0,0.0,0.0,-2.2831,0.0,-2.6424,-2.9257,0.0,-3.0481,-3.1932,-3.4488,-3.6072,-3.7304,-4.0741,-4.2883,-4.3907,-4.2792,-4.3106,-4.3536,-4.0081,-3.9479,0.0,-3.773,-3.6731,-3.6277,0.0,0.0,0.0,-3.4343,0.0,0.0,0.0,0.0,0.0,0.0,0.0,0.0,0.0,0.0,0.0,0.0,0.0,0.0,0.0,0.0,0.0,0.0,0.0,0.0,0.0,0.0,0.0,0.0,0.0,0.0,0.0,0.0,-3.1467,-3.307,-3.3583,-3.4237,-3.5122,-3.5385,-3.55,-3.55,-3.55,-3.55,-3.5519,-3.6096,-3.6615,-3.7103,-3.8373,-3.9188,-3.9669,-4.0496,-4.1219,-4.1769,-4.1373,-4.1585,-4.2066,-4.12,-4.0854,-4.0843,-4.0593,-4.0531,-4.0573,-2.2949,-2.3105,0.0,-2.2031,-2.4004,-2.5977,-2.6797,-2.7773,-2.9296,-3.1745,0.0,0.0,0.0,0.0,0.0,0.0,0.0,-3.8,-3.7063,0.0,-3.1209,-2.9551,-2.6992,-2.5625,-2.5625,-2.3945,-2.2676,-2.1855,-2.0137,-1.9727,0.0,0.0,0.0,0.0,-2.455,-2.6659,-2.8553,-3.1833,-3.4703,-3.7281,-3.9839,-4.2868,-4.5545,0.0,-4.2734,-4.4738,-4.3021,0.0,0.0,-4.0932,-4.0331,0.0,0.0,0.0,0.0,0.0,0.0,0.0,0.0,0.0,0.0,-3.1973,0.0,0.0,0.0,0.0,-2.7988,0.0,0.0,0.0,0.0,0.0,0.0,0.0,0.0,0.0,0.0,0.0,0.0,0.0,0.0,0.0,0.0,0.0,0.0,0.0,-2.8136,0.0,-3.0429,-3.2064,-3.3333,-3.4205,-3.5064,-3.55,-3.55,-3.55,-3.55,-3.55,-3.5538,-3.6385,-3.7969,-3.8027,-3.8931,-4.0516,-4.1373,-4.1769,-4.1865,-4.2681,-4.3028,-4.297,-4.2104,-4.175,-4.1662,-4.0804,-4.0496,-4.0496,0.0,0.0,0.0,0.0,0.0,-2.6582,-2.918,-3.1269,-3.3476,0.0,-3.7415,0.0,0.0,-4.0563,-4.0803,0.0,0.0,-4.0521,-3.9117,-3.6307,0.0,-3.4705,-3.1133,-2.9141,0.0,-2.6875,-2.498,-2.3555,-2.2422,-2.2012,0.0,0.0,0.0,0.0,0.0,-2.7304,0.0,0.0,0.0,0.0,0.0,-4.2845,-4.5304,0.0,-4.459,-4.5702,-4.453,-4.4863,0.0,-4.3164,-4.2578,-4.2675,-4.1816,-4.0742,-3.9765,-3.9531,-3.9255,-3.8824,0.0,0.0,-3.7399,-3.4218,0.0,0.0,0.0,0.0,0.0,0.0,0.0,0.0,0.0,0.0,0.0,0.0,0.0,0.0,0.0,0.0,0.0,0.0,0.0,0.0,0.0,0.0,0.0,0.0,-2.7787,0.0,0.0,-3.2055,-3.3342,-3.4167,-3.5045,-3.55,-3.55,-3.55,-3.55,-3.55,-3.55,-3.5808,-3.6385,-3.7488,-3.8315,-3.8911,-4.0335,-4.1585,-4.2643,-4.2354,-4.2893,-4.3758,-4.2354,-4.1788,-4.1692,-4.0823,-4.0496,-4.0496,-2.4023,0.0,0.0,0.0,0.0,-2.7695,-3.0879,-3.3262,0.0,0.0,-3.9782,0.0,-4.3105,0.0,-4.2843,0.0,-4.3785,-4.2928,-4.0917,-3.9218,0.0,-3.7772,-3.5117,-3.3203,0.0,0.0,-2.7695,-2.5312,-2.418,-2.3594,0.0,0.0,0.0,0.0,0.0,-2.7754,-3.0684,-3.4472,-3.6776,0.0,0.0,-4.3315,0.0,0.0,-4.4882,-4.5253,0.0,-4.4824,-4.5624,-4.4179,-4.4119,-4.4527,-4.396,-4.2986,-4.1914,-4.1406,-4.1035,-4.0602,-3.9744,-3.9724,0.0,-3.6737,-3.5234,0.0,-3.041,0.0,-3.0156,0.0,0.0,0.0,0.0,0.0,0.0,0.0,0.0,0.0,0.0,-2.2919,0.0,0.0,0.0,0.0,0.0,0.0,-2.5738,-2.6332,-2.6645,0.0,0.0,-3.1529,-3.3113,-3.4192,-3.5078,-3.5669,-3.5923,-3.5635,-3.55,-3.55,-3.55,-3.5654,-3.5962,-3.7373,-3.8161,-3.8546,-3.9919,-4.1497,-4.3066,-4.2489,-4.3258,-4.4605,-4.2912,-4.2258,-4.2124,-4.0939,-4.0496,-4.0496,-2.5762,0.0,0.0,0.0,-2.6777,0.0,0.0,0.0,-3.6015,0.0,-4.0756,-4.2276,-4.4842,-4.5126,-4.5444,-4.6224,-4.6307,-4.5254,-4.2754,-4.2519,0.0,0.0,-3.8809,-3.7578,-3.5078,0.0,0.0,0.0,-2.5391,-2.4492,0.0,0.0,0.0,0.0,-2.623,0.0,-3.0059,-3.5976,-3.9551,-4.1484,-4.3983,-4.4451,-4.3631,-4.3647,-4.3607,-4.3471,-4.2732,-4.3551,-4.4876,-4.404,-4.4893,-4.6303,-4.6291,-4.5165,-4.3822,-4.3786,-4.3183,-4.2342,-4.1543,-4.1875,-4.1874,-3.9394,-3.873,0.0,0.0,0.0,-3.4121,0.0,0.0,0.0,0.0,0.0,0.0,0.0,0.0,0.0,0.0,0.0,0.0,0.0,0.0,0.0,0.0,0.0,-2.3808,-2.5364,-2.4835,0.0,0.0,-3.0478,-3.2582,-3.419,-3.5085,-3.5904,-3.6649,-3.5898,-3.5507,-3.55,-3.55,-3.5923,-3.6731,-3.7603,-3.8469,-3.9342,-4.015,-4.1497,-4.3104,-4.3104,-4.4085,-4.5441,-4.3797,-4.3104,-4.2835,-4.1131,-4.0496,-4.0496,-2.668,-2.7715,-2.8945,0.0,-2.9687,-3.0566,0.0,0.0,0.0,0.0,-4.3457,-4.4745,-4.6717,-4.6933,-4.6757,-4.6347,-4.6308,0.0,0.0,0.0,0.0,-4.3359,-4.1543,-4.0215,-3.9551,-3.5293,-3.2656,-3.1758,0.0,0.0,-2.6309,0.0,0.0,0.0,0.0,0.0,-3.082,-3.4922,-3.8769,-4.2266,-4.4219,-4.4081,-4.2732,0.0,-4.2339,-4.1908,-4.2982,-4.4076,-4.4974,-4.474,-4.5383,-4.6299,-4.6303,-4.5993,-4.5506,-4.4863,-4.4512,-4.414,-4.3281,-4.3203,-4.3047,-4.1758,-4.0488,-3.8945,0.0,0.0,0.0,0.0,0.0,0.0,0.0,0.0,0.0,0.0,0.0,0.0,0.0,0.0,0.0,-2.4911,0.0,0.0,0.0,-2.3941,-2.3982,-2.3766,-2.5332,0.0,0.0,0.0,-3.1777,-3.344,-3.4279,-3.5088,-3.5871,-3.5678,-3.5547,-3.55,-3.55,-3.5923,-3.6731,-3.7603,-3.8469,-3.9342,-4.015,-4.1497,-4.3104,-4.3104,-4.4085,-4.5498,-4.4412,-4.3239,-4.2008,-4.09,-4.0496,-4.0496,-2.8203,0.0,0.0,-3.4121,0.0,0.0,-3.6836,-3.7148,0.0,-4.2617,-4.4219,0.0,-4.6367,-4.748,-4.7969,-4.748,-4.7441,0.0,-4.6348,0.0,0.0,-4.5019,-4.3984,-4.3066,-4.2305,-3.832,0.0,-3.3398,0.0,0.0,-2.6406,0.0,0.0,0.0,0.0,-2.8809,-3.1211,-3.6172,-3.9863,-4.2519,-4.3887,-4.3418,0.0,-4.1874,-4.1561,-4.1267,-4.2244,-4.314,-4.386,-4.3862,-4.4702,-4.5735,-4.5738,-4.5993,-4.6209,-4.5703,-4.5566,-4.5469,-4.4961,-4.4844,-4.4726,-4.4238,-4.3398,-4.2031,-3.953,-3.8963,-3.8376,0.0,-3.593,-3.5813,0.0,0.0,0.0,0.0,0.0,0.0,0.0,0.0,0.0,0.0,-2.4702,0.0,-2.3173,-2.3237,-2.3257,-2.3112,-2.4466,0.0,0.0,0.0,-3.1516,-3.3186,-3.4422,-3.5428,-3.6193,-3.6202,-3.5984,-3.5534,-3.5534,-3.5945,-3.6731,-3.7603,-3.8469,-3.9342,-4.015,-4.1497,-4.3104,-4.3104,-4.4085,-4.5518,-4.4643,-4.3278,-4.1731,-4.1258,-4.0843,-4.0496,-3.043,0.0,0.0,0.0,0.0,0.0,0.0,-3.9434,0.0,-4.2754,0.0,-4.5683,-4.5683,-4.7715,-4.9023,-4.8906,0.0,-4.8262,-4.6738,-4.7246,-4.6914,-4.541,-4.5957,-4.5547,-4.3906,-4.1152,-3.7754,0.0,-3.0859,-2.8203,0.0,0.0,0.0,0.0,0.0,0.0,0.0,-3.8418,-4.1601,-4.2324,-4.3301,-4.2695,-4.1191,-4.1191,-4.1191,-4.1191,-4.1191,-4.1717,-4.2397,-4.24,-4.3473,-4.4858,-4.4956,-4.5524,-4.6151,-4.6268,-4.6308,-4.6308,-4.6308,-4.6308,-4.6308,-4.6308,-4.6308,-4.5449,-4.2186,-4.1443,-4.0758,-3.8308,-3.7098,-3.6669,-3.7207,0.0,0.0,0.0,0.0,0.0,0.0,0.0,0.0,0.0,0.0,0.0,0.0,-2.2593,-2.23,-2.2897,-2.3034,0.0,0.0,0.0,-3.1172,-3.3084,-3.4826,-3.6152,-3.6998,-3.7008,-3.6608,-3.578,-3.5672,-3.6064,-3.6913,-3.767,-3.8549,-3.9496,-4.0323,-4.1585,-4.3104,-4.3201,-4.4182,-4.5498,-4.4509,-4.3258,-4.1942,-4.172,-4.1143,-4.0496,-3.3848,0.0,0.0,0.0,0.0,-4.2402,-4.3672,-4.3887,-4.4551,-4.6445,-4.8203,-4.9297,-4.9297,-4.9707,-4.9687,-4.8965,-4.8906,0.0,0.0,0.0,0.0,-4.7168,-4.6601,-4.582,-4.4785,-4.0879,-3.7754,-3.5547,-3.082,-2.793,0.0,0.0,0.0,0.0,0.0,0.0,-3.4355,-3.916,0.0,-4.1543,-4.3086,-4.2695,-4.1191,-4.1191,-4.1191,-4.1191,-4.1191,-4.1719,-4.2402,-4.2402,-4.3086,-4.4043,-4.4765,-4.5097,-4.5371,-4.6094,-4.6308,-4.6308,-4.6308,-4.6308,-4.6308,-4.6308,-4.6308,-4.5762,-4.3707,-4.3237,-4.2707,-4.0821,-3.9744,-3.8768,-3.7536,0.0,0.0,0.0,0.0,0.0,0.0,0.0,0.0,0.0,0.0,-2.6209,0.0,-2.3823,-2.2667,-2.2154,0.0,0.0,0.0,0.0,-2.908,0.0,-3.4004,0.0,0.0,0.0,-3.6966,-3.6755,-3.6028,-3.645,-3.7861,-3.8015,-3.8883,-4.0342,-4.12,-4.2143,-4.3143,-4.3816,-4.4682,-4.546,-4.3912,-4.3124,-4.2701,-4.1258,-4.0631,-4.0496,0.0,0.0,0.0,0.0,0.0,0.0,0.0,-4.7461,-4.7988,-4.7051,-4.8047,-4.8848,-4.8848,-5.0039,-5.0644,-5.0234,-5.0195,-5.0019,-4.9609,-4.918,-4.8555,-4.7637,-4.7207,-4.6562,-4.5683,-4.2754,-3.9746,-3.668,-3.2832,-2.959,0.0,0.0,0.0,0.0,0.0,-3.1641,0.0,0.0,0.0,-4.2617,-4.3867,-4.3613,-4.25,-4.25,-4.25,-4.25,-4.25,-4.2754,-4.2949,-4.207,-4.2324,-4.3105,-4.3516,-4.4277,-4.5078,-4.5508,-4.5957,-4.6308,-4.6308,-4.6308,-4.6308,-4.6308,-4.6308,-4.584,-4.4098,-4.3705,-4.3214,-4.1464,-4.0777,-3.9958,-3.8283,-3.5474,0.0,0.0,0.0,0.0,0.0,0.0,-2.8163,0.0,0.0,0.0,0.0,0.0,0.0,0.0,0.0,0.0,0.0,0.0,-2.7882,0.0,0.0,0.0,-3.7187,0.0,-3.76,-3.7049,-3.664,-3.7043,-3.8223,-3.8674,-3.9539,-4.07,-4.1491,-4.2343,-4.3254,-4.4465,-4.5229,-4.5518,-4.471,-4.3874,-4.3008,-4.2162,-4.1285,-4.0496,0.0,-4.3594,0.0,0.0,-4.7012,-4.8418,-4.8418,-5.043,-5.0859,-4.7773,-4.7988,-4.8418,-4.8418,-5.0195,-5.1406,-5.1406,-5.1406,-5.1133,-5.0508,-5.0293,-4.959,-4.8203,-4.7988,-4.7383,-4.6328,-4.4766,-4.1875,-3.7578,-3.4961,-3.168,0.0,-2.6758,-2.6445,-2.6953,0.0,0.0,0.0,0.0,-4.2598,-4.4043,-4.4726,-4.4473,-4.3691,-4.3691,-4.3691,-4.3691,-4.3691,-4.3691,-4.3496,-4.2187,-4.2031,-4.2422,-4.2617,-4.3496,-4.4512,-4.4883,-4.5488,-4.6055,-4.625,-4.6308,-4.6308,-4.6308,-4.6308,-4.5898,-4.4333,-4.3824,-4.3255,-4.1702,-4.1094,-4.0334,-3.864,-3.6374,0.0,0.0,0.0,0.0,0.0,0.0,0.0,0.0,0.0,0.0,-2.3847,0.0,0.0,0.0,0.0,0.0,-2.3308,0.0,0.0,0.0,0.0,-3.5452,-3.7002,0.0,-3.8281,-3.7668,-3.731,-3.7659,-3.8626,-3.931,-4.0056,-4.0844,-4.1803,-4.2802,-4.3873,-4.5133,-4.5635,-4.5627,-4.5411,-4.4412,-4.3085,-4.2893,-4.1835,-4.0535,0.0,0.0,0.0,0.0,0.0,-5.1035,-5.1035,-5.2598,-5.3066,-5.1172,-5.0996,-5.1035,-5.1035,-5.1269,-5.1406,-5.1406,-5.1406,-5.1367,-5.1289,-5.0605,-5.0137,-4.9961,-4.9199,-4.8008,-4.6348,-4.5371,-4.2773,0.0,0.0,-3.3184,0.0,-2.8828,-2.8906,-3.0566,-3.3984,0.0,0.0,-4.2383,-4.4004,-4.4883,-4.4961,-4.4473,-4.3691,-4.3691,-4.3691,-4.3691,-4.3691,-4.3691,-4.3672,-4.3516,-4.2988,-4.2539,-4.332,-4.3144,-4.2949,-4.4531,-4.5058,-4.5293,-4.6094,-4.6308,-4.6308,-4.6308,-4.6308,-4.6055,-4.5096,-4.4275,-4.3435,-4.2474,-4.1067,-3.9485,-3.7748,-3.8454,-3.8025,0.0,0.0,0.0,0.0,0.0,-2.9257,-2.8281,0.0,0.0,0.0,-2.3379,0.0,0.0,-2.1578,0.0,-2.415,0.0,0.0,-2.9592,-3.2968,-3.5154,-3.6111,-3.7763,-3.8923,-3.9531,-3.8003,-3.8074,-3.9562,-3.9659,-4.0108,-4.0888,-4.2544,-4.4175,-4.5645,-4.5744,-4.5786,-4.5694,-4.4787,-4.3874,-4.3008,-4.222,-4.1316,-4.0612,0.0,0.0,0.0,0.0,0.0,0.0,0.0,-5.3555,-5.375,-5.3047,-5.2969,-5.2754,-5.2246,-5.2187,-5.1973,-5.1445,-5.1406,-5.1406,-5.1406,-5.1094,-5.0703,-5.0215,-4.9863,-4.9101,-4.7891,-4.7012,-4.4941,0.0,0.0,0.0,-3.3926,-3.2715,-3.3066,-3.4824,0.0,-3.8984,-4.1504,-4.3047,-4.4512,-4.5781,-4.5781,-4.5566,-4.5254,-4.5254,-4.5254,-4.5254,-4.5254,-4.5254,-4.5254,-4.5254,-4.4336,-4.3242,-4.3594,-4.3828,-4.4101,-4.4805,-4.5371,-4.5859,-4.6211,-4.6308,-4.6308,-4.6308,-4.6308,-4.6074,-4.5194,-4.4334,-4.3454,-4.2573,-4.1068,-3.9682,-3.8981,-3.8571,-3.8103,-3.7402,0.0,0.0,0.0,0.0,0.0,-2.8535,0.0,-2.6074,0.0,0.0,0.0,0.0,0.0,-2.1481,-2.351,-2.4111,0.0,-2.8737,0.0,-3.5119,-3.5992,-3.8249,-3.9524,-3.9782,-3.9121,-3.9134,-3.9774,-4.029,-4.1229,-4.2486,-4.3708,-4.4865,-4.5899,-4.5869,-4.5852,-4.5768,-4.4834,-4.3995,-4.3169,-4.2292,-4.1397,-4.0751,-5.0856,0.0,-5.1387,0.0,-5.2793,-5.2969,-5.4199,-5.4609,-5.4765,-5.4765,-5.4765,-5.4336,-5.3203,-5.3086,-5.2734,-5.1855,-5.1777,-5.168,-5.1426,-5.1406,-5.1152,-5.0586,-5.0547,0.0,-4.9297,-4.8672,-4.707,-4.4453,-4.2148,0.0,-3.7519,-3.6641,-3.7012,0.0,-3.9609,-4.123,-4.3223,-4.4082,-4.5176,-4.6308,-4.6308,-4.6308,-4.6308,-4.6308,-4.6308,-4.6308,-4.6308,-4.6308,-4.6308,-4.6308,-4.5488,-4.4414,-4.416,-4.4336,-4.4668,-4.4922,-4.5449,-4.5976,-4.623,-4.6308,-4.623,-4.5976,-4.6113,-4.6074,-4.5195,-4.4335,-4.3241,-4.1619,-4.0759,-4.0134,-3.9608,-3.8924,-3.8514,-3.8711,0.0,0.0,0.0,-3.2559,0.0,-2.8574,-2.7305,-2.6133,-2.4902,-2.3984,0.0,0.0,0.0,-2.2831,-2.4548,-2.4721,0.0,0.0,0.0,0.0,-3.5996,-3.8599,-3.9989,-4.0188,-3.992,-3.9922,-4.0209,-4.1081,-4.2233,-4.3604,-4.4482,-4.5297,-4.6006,-4.5981,-4.5953,-4.587,-4.4958,-4.4117,-4.3292,-4.2418,-4.1683,-4.1233,-5.2403,-5.2629,-5.2949,-5.3828,-5.4687,-5.5254,-5.5273,-5.6015,-5.6562,-5.6562,-5.6562,-5.5918,-5.418,-5.3984,-5.3633,-5.2754,-5.2676,-5.2324,-5.1465,-5.1406,-5.1406,0.0,0.0,-5.1016,-5.0195,-5.0176,-4.8887,-4.6269,0.0,0.0,-4.1113,-4.0234,-4.0312,-4.123,-4.2891,-4.4121,-4.5039,-4.5898,-4.6289,-4.6308,-4.6308,-4.6308,-4.6308,-4.6308,-4.6308,-4.6308,-4.6308,-4.6308,-4.6308,-4.6308,-4.6289,-4.6113,-4.5254,-4.4394,-4.3887,-4.4746,-4.5019,-4.5195,-4.6074,-4.6308,-4.6094,-4.5234,-4.5664,-4.6074,-4.5195,-4.4336,-4.2734,-3.9336,-4.0,-4.0664,-3.8926,-4.0019,-4.0039,-3.6601,0.0,0.0,0.0,-3.0937,0.0,-2.8516,-2.6777,-2.5703,-2.5684,-2.4902,0.0,0.0,0.0,-2.6406,-2.8143,-2.6618,0.0,-3.0758,-3.3354,0.0,-3.5985,-3.8582,-4.0303,-4.1068,-4.0209,-4.0253,-4.1107,-4.1986,-4.2864,-4.3742,-4.4621,-4.548,-4.628,-4.6147,-4.6108,-4.6006,-4.4994,-4.4112,-4.3292,-4.2418,-4.2086,-4.2214,-5.4292,-5.4877,-5.5399,-5.5722,-5.5996,-5.6191,-5.6191,-5.6426,-5.6601,-5.6601,-5.6601,-5.6387,-5.582,-5.5234,-5.4531,0.0,-5.3594,-5.3223,0.0,-5.2285,-5.2012,-5.1426,-5.1406,-5.1289,-5.1016,-5.0488,-4.9785,-4.8965,0.0,0.0,0.0,-4.3789,-4.3848,-4.4707,-4.5234,-4.5625,-4.5898,-4.6172,-4.6308,-4.6308,-4.6308,-4.6308,-4.6308,-4.6308,-4.6308,-4.6308,-4.6308,-4.6308,-4.6308,-4.6308,-4.6308,-4.625,-4.5976,-4.5703,-4.5527,-4.5801,-4.5898,-4.5957,-4.6211,-4.6308,-4.6094,-4.5215,-4.5215,-4.5332,-4.5058,-4.4336,-4.3066,-4.082,-4.0801,-4.0859,-3.9707,-4.043,-4.0449,-3.8144,-3.7519,0.0,-3.3047,0.0,-3.0469,-2.9316,-2.8164,-2.7461,-2.7461,-2.668,0.0,0.0,0.0,0.0,-2.7344,0.0,0.0,0.0,-3.4529,0.0,-3.6004,-3.9132,-4.0556,-4.0217,-4.0538,-4.1131,-4.2031,-4.3495,-4.4316,-4.4628,-4.5507,-4.6034,-4.6307,-4.6246,-4.6242,-4.6082,-4.4573,-4.3822,-4.3501,-4.263,-4.227,-4.2449,-5.5564,-5.603,-5.6458,-5.6554,-5.6558,-5.6579,-5.6601,-5.6601,-5.6601,-5.6601,-5.6601,-5.6601,-5.6601,-5.6113,0.0,-5.4551,-5.4492,-5.4121,-5.3242,-5.2871,-5.2461,-5.1914,-5.1562,-5.1406,-5.1406,-5.0918,0.0,-5.0195,-4.8789,-4.7812,-4.7266,-4.6719,-4.6758,-4.7285,-4.7285,-4.7285,-4.7285,-4.7285,-4.7285,-4.7285,-4.7285,-4.707,-4.6797,-4.6797,-4.6582,-4.6308,-4.6308,-4.6308,-4.6308,-4.6308,-4.6308,-4.6308,-4.6308,-4.6308,-4.6308,-4.6308,-4.6308,-4.6308,-4.6308,-4.6308,-4.6094,-4.5215,-4.5254,-4.5391,-4.5078,-4.4062,-4.2832,-4.1484,-4.1191,-4.0937,-4.0059,-4.0605,-4.0625,-3.8887,-3.7598,-3.6016,-3.3711,0.0,-3.0703,0.0,0.0,0.0,0.0,-2.8887,-2.8906,0.0,0.0,0.0,0.0,0.0,-3.0781,-3.2285,-3.5878,-3.7674,-3.7474,-3.9877,-4.083,-4.0292,-4.1162,-4.1869,-4.2457,-4.4217,-4.4999,-4.5058,-4.5917,-4.6307,-4.6307,-4.6307,-4.6308,-4.6152,-4.4745,-4.4199,-4.4081,-4.3203,-4.3066,-4.3453,-5.6194,-5.625,-5.6328,0.0,-5.6487,-5.652,-5.6581,-5.6601,-5.6601,-5.6601,-5.6601,-5.6601,-5.6601,-5.6601,-5.6269,-5.5469,0.0,0.0,-5.4141,-5.332,-5.2851,-5.2793,-5.2012,-5.1543,-5.1484,-5.1484,-5.1094,-5.0273,-4.9414,-4.8984,-4.8984,-4.8926,-4.8906,-4.8906,-4.8906,-4.8906,-4.8906,-4.8906,-4.8906,-4.8906,-4.8906,-4.8418,-4.7695,-4.7695,-4.7187,-4.6484,-4.6484,-4.6445,-4.6387,-4.6387,-4.6348,-4.6308,-4.6308,-4.6308,-4.6308,-4.6308,-4.6308,-4.6308,-4.6308,-4.6308,-4.6094,-4.5215,-4.5605,-4.5996,-4.5176,-4.375,-4.2363,-4.1621,-4.1367,-4.1035,-4.0215,-4.0644,-4.0547,-3.8789,-3.7051,-3.5293,-3.3555,-3.1973,-3.0996,0.0,0.0,0.0,-2.9941,-3.1387,-3.168,0.0,0.0,0.0,0.0,0.0,-3.2422,-3.4805,-3.7363,-3.9082,-3.9881,-4.0699,-4.1125,-4.1197,-4.206,-4.2526,-4.265,-4.4323,-4.5089,-4.5148,-4.5949,-4.6301,-4.6301,-4.6301,-4.6301,-4.6203,-4.5342,-4.4996,-4.4902,-4.4082,-4.4294,-4.501,0.0,0.0,-5.6244,-5.6324,-5.6422,-5.6511,-5.652,-5.6578,-5.6601,-5.6601,-5.6601,-5.6601,-5.6601,-5.6601,-5.6523,-5.6308,-5.6289,-5.5918,-5.5058,-5.4805,-5.4394,-5.3711,-5.3496,-5.3066,-5.2402,-5.2383,-5.1973,-5.1113,-5.0293,-4.9883,-4.9883,-4.9219,-4.8906,-4.8906,-4.8906,-4.8906,-4.8906,-4.8906,-4.8906,-4.8906,-4.8906,-4.8789,-4.8594,-4.8594,-4.8457,-4.8281,-4.8281,-4.7851,-4.7285,-4.7285,-4.6855,-4.6308,-4.6308,-4.6308,-4.6308,-4.6308,-4.6308,-4.6308,-4.6308,-4.6308,-4.6094,-4.5215,-4.5156,-4.5254,-4.5058,-4.4687,-4.4336,-4.414,-4.3047,-4.2051,-4.1855,-4.0937,-3.9648,-3.7891,-3.6152,-3.4414,-3.2715,-3.2148,-3.1894,0.0,-3.3027,-3.3457,-3.2578,-3.3476,-3.3652,0.0,0.0,-3.3828,-3.4082,-3.5176,-3.6055,-3.668,-3.8574,-3.9687,-3.9901,-4.0701,-4.144,-4.2095,-4.2979,-4.3737,-4.4426,-4.5496,-4.5984,-4.5994,-4.6215,-4.6293,-4.6306,-4.6306,-4.629,-4.6217,-4.5332,-4.5003,-4.4971,-4.477,-4.4824,-4.5095,-5.6017,-5.5799,-5.5585,-5.5661,-5.5754,-5.5821,-5.5853,-5.5884,-5.6053,-5.6463,-5.6147,-5.6034,-5.6495,-5.6555,-5.6578,-5.6601,-5.6601,-5.6406,-5.5937,-5.5527,-5.5098,-5.4609,-5.4219,-5.3789,-5.3301,-5.3281,-5.2871,-5.1992,-5.1152,-5.0742,-5.0742,-5.0254,-5.0039,-5.0039,-5.0039,-5.0039,-5.0039,-5.0039,-5.0038,-4.9994,-5.0038,-4.9784,-4.9408,-4.9472,-4.9258,-4.8906,-4.8906,-4.8594,-4.8183,-4.8183,-4.7617,-4.6894,-4.6894,-4.6621,-4.6308,-4.6308,-4.6308,-4.6308,-4.6308,-4.6308,-4.6191,-4.5703,-4.5293,-4.5098,-4.5507,-4.498,-4.4512,-4.4921,-4.3613,-4.2402,-4.2402,-4.1035,-3.9336,-3.7578,-3.6172,-3.4707,-3.2988,-3.2754,-3.3047,-3.3848,-3.4746,-3.5254,-3.5195,-3.5976,-3.5957,-3.4687,-3.5703,0.0,-3.5918,-3.793,-3.8711,-3.793,-3.959,-4.0488,-4.0488,-4.1288,-4.2125,-4.2997,-4.3879,-4.454,-4.5022,-4.5908,-4.6299,-4.6293,-4.6296,-4.6295,-4.6293,-4.6293,-4.6294,-4.6257,-4.5782,-4.5586,-4.5588,-4.5581,-4.5597,-4.5656,-5.6051,-5.5548,-5.5036,-5.5235,-5.5222,-5.5208,-5.5256,-5.5163,-5.5369,-5.611,-5.5397,-5.5158,-5.6011,-5.6114,-5.6128,-5.6189,-5.6307,-5.6444,-5.6582,-5.5918,-5.5508,-5.5508,-5.4785,-5.4336,-5.4199,-5.4062,-5.3574,-5.2675,-5.1953,-5.1523,-5.1364,-5.1386,-5.1385,-5.1364,-5.1364,-5.1364,-5.1364,-5.1364,-5.1335,-5.1291,-5.1358,-5.0885,-5.0196,-5.0304,-4.9899,-4.9255,-4.9257,-4.9179,-4.9062,-4.9082,-4.8516,-4.7793,-4.7773,-4.7187,-4.6484,-4.6484,-4.6386,-4.6289,-4.6308,-4.6308,-4.6308,-4.6308,-4.5742,-4.5391,-4.6133,-4.5156,-4.4297,-4.5039,-4.3906,-4.2754,-4.2617,-4.1113,-3.9297,-3.7402,-3.6367,-3.5195,-3.3457,0.0,-3.4336,-3.582,-3.6348,-3.6836,-3.7441,-3.8281,-3.8184,-3.6699,-3.8652,-3.9316,-3.7969,-3.998,-4.0527,-3.9043,-4.043,-4.1269,-4.1387,-4.2187,-4.3025,-4.3901,-4.4643,-4.5072,-4.5227,-4.5952,-4.6303,-4.6301,-4.6302,-4.6302,-4.6301,-4.6301,-4.6301,-4.6301,-4.6296,-4.6294,-4.6294,-4.6306,-4.6305,-4.6305,-5.6932,-5.639,-5.6059,-5.68,-5.6422,-5.6019,-5.6037,-5.5502,-5.5154,-5.5271,-5.4583,-5.4128,-5.4293,-5.4293,-5.4318,-5.4326,-5.4989,-5.5755,-5.6543,-5.6465,-5.6406,-5.6406,-5.6269,-5.5859,-5.5117,-5.4375,-5.3552,-5.2615,-5.2536,-5.206,-5.1239,-5.1288,-5.1286,-5.1239,-5.1239,-5.1239,-5.1239,-5.1239,-5.1232,-5.1222,-5.1232,-5.1135,-5.1027,-5.1037,-5.0963,-5.0855,-5.0902,-5.0445,-4.9845,-4.996,-4.9414,-4.8691,-4.8629,-4.8041,-4.7396,-4.7326,-4.6796,-4.6235,-4.6288,-4.6308,-4.6308,-4.6308,-4.6191,-4.6133,-4.6268,-4.6093,-4.5937,-4.6073,-4.5293,-4.4375,-4.3633,-4.1523,-3.9082,-3.6601,-3.5468,-3.4297,-3.2558,0.0,-3.5703,-3.5976,-3.7949,-3.9062,-3.8457,-3.9199,-3.959,-3.9316,-3.9668,-4.0098,-4.0566,-4.0976,-4.1074,-4.0801,-4.1055,-4.1523,-4.2207,-4.3066,-4.3945,-4.4802,-4.4941,-4.5389,-4.6106,-4.6249,-4.6307,-4.6301,-4.6305,-4.6305,-4.6301,-4.6301,-4.6301,-4.6301,-4.6301,-4.6301,-4.6301,-4.63,-4.63,-4.63,-5.783,-5.6921,-5.6274,-5.7144,-5.664,-5.6102,-5.6144,-5.5871,-5.5649,-5.5649,-5.4494,-5.3885,-5.4431,-5.4078,-5.3814,-5.3894,-5.4267,-5.4674,-5.5116,-5.6025,-5.6556,-5.6553,-5.6553,-5.631,-5.586,-5.4979,-5.4323,-5.3884,-5.3442,-5.2785,-5.19,-5.1938,-5.1681,-5.1203,-5.1203,-5.1203,-5.1203,-5.1203,-5.1174,-5.1147,-5.1183,-5.1174,-5.1152,-5.1183,-5.1203,-5.1207,-5.1242,-5.0947,-5.055,-5.0746,-5.0167,-4.9397,-4.9489,-4.8926,-4.8145,-4.7648,-4.6885,-4.6206,-4.6239,-4.6242,-4.6243,-4.6284,-4.6305,-4.6307,-4.6308,-4.6308,-4.6308,-4.6308,-4.5605,-4.4883,-4.4473,-4.2324,-4.0215,-3.9004,-3.7676,-3.6523,-3.5703,-3.6641,-3.7578,-3.8047,-3.918,-3.9922,-3.998,-4.0351,-4.0605,-4.0605,-4.0605,-4.0781,-4.1172,-4.1601,-4.1855,-4.1855,-4.1855,-4.248,-4.3789,-4.4199,-4.4844,-4.5703,-4.5703,-4.5918,-4.6307,-4.6308,-4.6308,-4.6307,-4.6308,-4.6308,-4.6307,-4.6307,-4.6307,-4.6307,-4.6306,-4.6305,-4.6305,-4.6302,-4.6301,-4.6301,-5.872,-5.7656,-5.6882,-5.7753,-5.7192,-5.662,-5.6673,-5.6524,-5.6404,-5.6404,-5.5103,-5.4289,-5.4665,-5.4097,-5.358,-5.3307,-5.3432,-5.3552,-5.3566,-5.5023,-5.5877,-5.5897,-5.6089,-5.6146,-5.6028,-5.5556,-5.5208,-5.4986,-5.4323,-5.3569,-5.2723,-5.2748,-5.2397,-5.1736,-5.1527,-5.1429,-5.1429,-5.1215,-5.1106,-5.1063,-5.1102,-5.1106,-5.1069,-5.1092,-5.1118,-5.1103,-5.1113,-5.1035,-5.0975,-5.1156,-5.0693,-5.0088,-5.0241,-4.9692,-4.8872,-4.824,-4.7318,-4.645,-4.6262,-4.6227,-4.6249,-4.6294,-4.6299,-4.6302,-4.6305,-4.6307,-4.6308,-4.6308,-4.5761,-4.5175,-4.4765,-4.3105,-4.1582,-4.0996,0.0,-3.9121,-3.8926,-3.9238,-3.9726,-4.0391,-4.0664,-4.1055,-4.1719,-4.1601,-4.1562,-4.1777,-4.1582,-4.1562,-4.1777,-4.2363,-4.2793,-4.3008,-4.3008,-4.3652,-4.498,-4.5195,-4.5644,-4.6308,-4.6308,-4.6308,-4.6308,-4.6308,-4.6308,-4.6308,-4.6308,-4.6308,-4.6308,-4.6308,-4.6308,-4.6308,-4.6308,-4.6307,-4.6307,-4.6305,-4.6305,-4.6305,-5.9629,-5.9048,-5.8681,-5.9551,-5.899,-5.8419,-5.8419,-5.7791,-5.7296,-5.7296,-5.6606,-5.5508,-5.3967,-5.374,-5.3079,-5.153,-5.208,-5.2547,-5.2604,-5.3485,-5.4021,-5.4092,-5.4875,-5.5253,-5.5193,-5.5911,-5.5842,-5.4911,-5.4918,-5.4394,-5.3422,-5.3482,-5.3456,-5.3306,-5.2493,-5.2125,-5.2067,-5.1266,-5.0929,-5.0921,-5.091,-5.0929,-5.0914,-5.085,-5.0833,-5.0822,-5.0825,-5.0828,-5.0823,-5.0893,-5.0875,-5.0825,-5.0841,-5.0291,-4.9643,-4.9703,-4.8615,-4.7231,-4.65,-4.6296,-4.6281,-4.6301,-4.6301,-4.6301,-4.6302,-4.6302,-4.6302,-4.6302,-4.624,-4.5711,-4.4095,-4.3646,-4.275,-4.0371,0.0,0.0,-3.9921,-4.1132,-4.2148,-4.2207,-4.293,-4.3457,-4.3516,-4.2793,-4.2656,-4.3457,-4.2773,-4.2656,-4.3476,-4.3574,-4.3965,-4.4785,-4.4805,-4.4863,-4.5,-4.5801,-4.623,-4.6308,-4.6308,-4.6308,-4.6308,-4.6308,-4.6308,-4.6308,-4.6308,-4.6308,-4.6308,-4.6308,-4.6308,-4.6308,-4.6308,-4.6308,-4.6308,-4.6308,-4.6308,-4.6308,-6.0576,-6.0419,-6.0321,-6.0641,-6.0463,-6.009,-5.9551,-5.9207,-5.8816,-5.8273,-5.7531,-5.6789,-5.6129,-5.5133,-5.4038,-5.2853,-5.2542,-5.2191,-5.1719,-5.1997,-5.2665,-5.3719,-5.4051,-5.4202,-5.4171,-5.5021,-5.5256,-5.4849,-5.541,-5.5213,-5.431,-5.4336,-5.4045,-5.3478,-5.3149,-5.3014,-5.2975,-5.2647,-5.2459,-5.2342,-5.1848,-5.1601,-5.1461,-5.0894,-5.0692,-5.0673,-5.0671,-5.0643,-5.0625,-5.0739,-5.077,-5.0782,-5.0872,-5.0713,-5.0403,-4.9918,-4.896,-4.7884,-4.7079,-4.6554,-4.6255,-4.6282,-4.6306,-4.6291,-4.6296,-4.63,-4.6301,-4.6301,-4.6301,-4.6103,-4.5437,-4.4873,-4.4369,-4.3941,0.0,-4.2811,-4.2981,-4.3076,-4.3133,-4.3133,-4.3446,-4.3646,-4.3691,-4.3398,-4.334,-4.3672,-4.3398,-4.3359,-4.3672,-4.4219,-4.4902,-4.5781,-4.5801,-4.5801,-4.5801,-4.6133,-4.6308,-4.6308,-4.6308,-4.6308,-4.6308,-4.6308,-4.6308,-4.6308,-4.6308,-4.6308,-4.6308,-4.6308,-4.6308,-4.6308,-4.6308,-4.6308,-4.6308,-4.6308,-4.6308,-4.6308,-6.1164,-6.1199,-6.1225,-6.1227,-6.127,-6.1108,-6.0491,-6.0402,-6.0197,-5.9596,-5.9044,-5.853,-5.7967,-5.688,-5.5631,-5.4232,-5.3553,-5.2873,-5.2037,-5.1727,-5.1977,-5.2877,-5.3107,-5.3222,-5.3228,-5.4081,-5.4587,-5.4768,-5.5377,-5.5487,-5.5156,-5.5156,-5.4819,-5.4211,-5.3932,-5.3788,-5.376,-5.349,-5.3329,-5.3186,-5.2627,-5.2358,-5.2201,-5.1585,-5.1344,-5.1325,-5.1015,-5.0875,-5.0812,-5.0643,-5.0577,-5.0586,-5.0698,-5.0824,-5.0811,-5.0245,-4.9491,-4.8728,-4.8165,-4.7281,-4.6479,-4.6279,-4.6267,-4.6302,-4.6308,-4.6294,-4.6296,-4.6296,-4.6295,-4.6215,-4.5938,-4.5583,-4.5443,-4.5755,-4.5013,-4.4497,-4.4763,-4.4526,-4.4236,-4.3983,-4.4178,-4.4348,-4.4417,-4.4166,-4.4146,-4.4422,-4.4207,-4.4168,-4.4441,-4.5028,-4.5637,-4.6247,-4.6267,-4.6288,-4.6308,-4.6308,-4.6308,-4.6308,-4.6308,-4.6308,-4.6308,-4.6308,-4.6308,-4.6308,-4.6308,-4.6308,-4.6308,-4.6308,-4.6308,-4.6308,-4.6308,-4.6308,-4.6308,-4.6308,-4.6308,-4.6308,-6.1297,-6.1297,-6.1297,-6.1297,-6.1297,-6.1306,-6.1306,-6.1299,-6.1302,-6.1302,-6.1352,-6.0733,-5.9011,-5.8817,-5.7787,-5.5242,-5.5029,-5.466,-5.3772,-5.2892,-5.2057,-5.1255,-5.1979,-5.2408,-5.2395,-5.3269,-5.4028,-5.4697,-5.4716,-5.5128,-5.5895,-5.5895,-5.5856,-5.5758,-5.489,-5.4475,-5.4357,-5.349,-5.3124,-5.3124,-5.3105,-5.3105,-5.3103,-5.3026,-5.2992,-5.2874,-5.1954,-5.1608,-5.1486,-5.0608,-5.0302,-5.0314,-5.039,-5.0586,-5.0811,-5.0879,-5.0376,-4.9812,-4.9792,-4.8549,-4.7042,-4.629,-4.6206,-4.63,-4.63,-4.63,-4.63,-4.63,-4.6292,-4.6035,-4.5164,-4.5616,-4.5806,-4.4867,-4.5383,-4.5603,-4.4724,-4.5341,-4.5611,-4.4798,-4.5417,-4.5927,-4.599,-4.5227,-4.5099,-4.604,-4.5296,-4.5199,-4.604,-4.6098,-4.6131,-4.62,-4.6202,-4.6237,-4.6289,-4.6308,-4.6308,-4.6308,-4.6308,-4.6308,-4.6308,-4.6308,-4.6308,-4.6308,-4.6308,-4.6308,-4.6308,-4.6308,-4.6308,-4.6308,-4.6308,-4.6308,-4.6308,-4.6308,-4.6308,-4.6308,-6.1297,-6.1302,-6.1306,-6.1306,-6.1341,-6.1364,-6.1364,-6.1371,-6.1378,-6.1378,-6.1386,-6.1199,-6.0674,-6.0079,-5.9166,-5.7787,-5.7146,-5.6175,-5.4645,-5.3726,-5.3085,-5.2748,-5.2477,-5.2323,-5.2329,-5.3693,-5.4509,-5.4703,-5.5264,-5.5652,-5.5895,-5.5895,-5.5895,-5.5856,-5.5605,-5.5441,-5.5362,-5.5111,-5.4923,-5.4725,-5.4169,-5.3894,-5.3723,-5.3106,-5.2865,-5.2827,-5.253,-5.2442,-5.2327,-5.1486,-5.1228,-5.1204,-5.0755,-5.0664,-5.074,-5.0758,-5.0601,-5.0297,-4.9699,-4.922,-4.8554,-4.7212,-4.6435,-4.6013,-4.6013,-4.6095,-4.617,-4.617,-4.6238,-4.6216,-4.5959,-4.6089,-4.6114,-4.5735,-4.5887,-4.5893,-4.5509,-4.5667,-4.5731,-4.5498,-4.5673,-4.5861,-4.5923,-4.5749,-4.5722,-4.6002,-4.5838,-4.5825,-4.6079,-4.6098,-4.6109,-4.6131,-4.6131,-4.585,-4.5243,-4.5952,-4.6308,-4.6308,-4.6308,-4.6308,-4.6308,-4.6308,-4.6308,-4.6308,-4.6308,-4.6308,-4.6308,-4.6308,-4.6308,-4.6308,-4.6308,-4.6308,-4.6308,-4.6308,-4.6308,-4.6308,-6.1345,-6.1349,-6.1344,-6.1344,-6.1359,-6.1393,-6.1393,-6.1393,-6.1393,-6.1393,-6.1393,-6.1393,-6.1393,-6.0934,-6.024,-5.9357,-5.8474,-5.7498,-5.6396,-5.5207,-5.4506,-5.4428,-5.366,-5.3065,-5.2748,-5.3378,-5.4025,-5.4649,-5.5151,-5.5538,-5.5816,-5.5816,-5.5806,-5.5785,-5.5785,-5.5735,-5.5673,-5.5673,-5.5607,-5.5466,-5.4944,-5.4693,-5.4562,-5.404,-5.3836,-5.3779,-5.3435,-5.3301,-5.3187,-5.2346,-5.1909,-5.1628,-5.1257,-5.0922,-5.0682,-5.0683,-5.0712,-5.0596,-5.0048,-4.9728,-4.9291,-4.8302,-4.7236,-4.6321,-4.5986,-4.5954,-4.602,-4.602,-4.6099,-4.6131,-4.6148,-4.6111,-4.608,-4.5954,-4.5924,-4.5733,-4.5264,-4.5501,-4.5592,-4.5244,-4.5515,-4.5743,-4.5807,-4.5869,-4.5892,-4.5914,-4.5968,-4.5983,-4.5974,-4.5974,-4.6012,-4.6052,-4.6052,-4.5815,-4.5326,-4.592,-4.6057,-4.5707,-4.5707,-4.5883,-4.6213,-4.6243,-4.6265,-4.6265,-4.6289,-4.6308,-4.6308,-4.6308,-4.6308,-4.6308,-4.6308,-4.6308,-4.6308,-4.6308,-4.6308,-4.6308,-6.1371,-6.1378,-6.1386,-6.1386,-6.1393,-6.1393,-6.1393,-6.1393,-6.1393,-6.1393,-6.1393,-6.1393,-6.1393,-6.1393,-6.1053,-6.0208,-5.9207,-5.8642,-5.8605,-5.7107,-5.617,-5.6084,-5.52,-5.4361,-5.361,-5.2826,-5.3093,-5.4477,-5.4477,-5.4853,-5.5588,-5.5588,-5.5605,-5.5607,-5.5607,-5.5573,-5.5504,-5.5504,-5.5504,-5.5492,-5.5356,-5.5293,-5.5312,-5.5295,-5.5288,-5.5193,-5.4486,-5.4218,-5.4085,-5.3218,-5.2444,-5.1805,-5.18,-5.1324,-5.0709,-5.0692,-5.0712,-5.0712,-5.0712,-5.0106,-4.949,-4.9413,-4.8392,-4.715,-4.6195,-4.5929,-4.5883,-4.5877,-4.5889,-4.5881,-4.5889,-4.5847,-4.5787,-4.5718,-4.5657,-4.5344,-4.4533,-4.5107,-4.5306,-4.4509,-4.5133,-4.5631,-4.5693,-4.5701,-4.5734,-4.5792,-4.5781,-4.5795,-4.58,-4.58,-4.5861,-4.598,-4.5986,-4.5974,-4.5963,-4.5963,-4.56,-4.492,-4.492,-4.5326,-4.6102,-4.616,-4.6197,-4.6199,-4.6264,-4.6288,-4.6288,-4.6288,-4.6288,-4.6289,-4.6289,-4.6289,-4.6308,-4.6308,-4.6308,-4.6308,-6.1182,-6.1223,-6.1244,-6.1244,-6.1337,-6.1393,-6.1393,-6.1393,-6.1393,-6.1393,-6.1393,-6.1393,-6.1393,-6.1393,-6.1308,-6.1099,-6.0228,-5.9615,-5.9447,-5.8462,-5.7554,-5.6816,-5.5929,-5.538,-5.5218,-5.4409,-5.3831,-5.3502,-5.3502,-5.3935,-5.4761,-5.4761,-5.5088,-5.5692,-5.5692,-5.564,-5.5573,-5.5573,-5.5551,-5.5446,-5.479,-5.4541,-5.453,-5.4477,-5.4452,-5.4529,-5.4957,-5.5116,-5.4995,-5.4233,-5.3453,-5.2694,-5.2066,-5.1759,-5.1509,-5.0875,-5.0712,-5.0712,-5.0712,-5.0558,-5.025,-4.9567,-4.917,-4.8521,-4.6947,-4.6167,-4.5728,-4.5679,-4.5751,-4.5826,-4.5813,-4.5852,-4.5835,-4.5733,-4.573,-4.5654,-4.5372,-4.547,-4.5537,-4.5344,-4.5479,-4.5614,-4.5622,-4.5676,-4.5706,-4.5715,-4.5723,-4.5739,-4.5795,-4.5803,-4.5812,-4.5828,-4.5835,-4.5557,-4.4924,-4.4924,-4.5234,-4.5829,-4.5829,-4.5926,-4.6102,-4.6115,-4.6122,-4.6125,-4.6137,-4.6142,-4.6142,-4.6142,-4.6167,-4.6213,-4.6213,-4.6244,-4.6308,-4.6308,-4.6308,-4.6308,-6.1099,-6.1116,-6.1152,-6.1152,-6.1214,-6.1259,-6.1259,-6.1259,-6.1259,-6.1259,-6.1259,-6.1259,-6.1259,-6.1259,-6.1223,-6.118,-6.0683,-6.0344,-6.0239,-5.9408,-5.8712,-5.8215,-5.7396,-5.6742,-5.6329,-5.5491,-5.4664,-5.3818,-5.4203,-5.4434,-5.4511,-5.4895,-5.5299,-5.5703,-5.5703,-5.5481,-5.5102,-5.5487,-5.5176,-5.4394,-5.4361,-5.41,-5.3724,-5.3648,-5.3625,-5.3682,-5.4106,-5.4515,-5.4872,-5.4921,-5.4103,-5.311,-5.3124,-5.2558,-5.1808,-5.1395,-5.1279,-5.1183,-5.0808,-5.0712,-5.0596,-5.0125,-4.9702,-4.9058,-4.7713,-4.6779,-4.6179,-4.6133,-4.5847,-4.5615,-4.5611,-4.5634,-4.5646,-4.5569,-4.5596,-4.558,-4.5522,-4.5522,-4.5559,-4.5559,-4.5577,-4.5594,-4.5594,-4.5631,-4.5665,-4.5695,-4.5695,-4.5711,-4.5758,-4.5773,-4.5795,-4.5798,-4.5793,-4.5594,-4.5181,-4.5162,-4.5434,-4.5949,-4.558,-4.5599,-4.5949,-4.6022,-4.6039,-4.6044,-4.6084,-4.6098,-4.6098,-4.6098,-4.6122,-4.615,-4.615,-4.6167,-4.6206,-4.6206,-4.6215,-4.6244,-6.1041,-6.1061,-6.107,-6.107,-6.1089,-6.1099,-6.1099,-6.1099,-6.1099,-6.1099,-6.1099,-6.1099,-6.1099,-6.1099,-6.1051,-6.0901,-6.0853,-6.0804,-6.08,-6.0127,-5.9665,-5.9511,-5.8858,-5.8107,-5.7253,-5.6511,-5.5607,-5.4491,-5.5011,-5.5011,-5.4511,-5.5184,-5.5568,-5.5684,-5.5549,-5.5126,-5.453,-5.5049,-5.4568,-5.3462,-5.3996,-5.3859,-5.333,-5.3256,-5.3138,-5.3042,-5.3165,-5.3683,-5.4423,-5.5151,-5.4559,-5.3659,-5.4308,-5.351,-5.2308,-5.2173,-5.2019,-5.175,-5.1087,-5.0808,-5.0712,-5.0712,-5.0173,-4.9423,-4.8712,-4.7712,-4.6944,-4.6915,-4.6223,-4.5609,-4.5611,-4.5486,-4.539,-4.539,-4.54,-4.54,-4.54,-4.5438,-4.5485,-4.5485,-4.5531,-4.5577,-4.5577,-4.5586,-4.5631,-4.5684,-4.5693,-4.569,-4.5692,-4.575,-4.5792,-4.5807,-4.5798,-4.58,-4.5807,-4.5807,-4.5807,-4.5787,-4.5123,-4.5142,-4.5807,-4.5923,-4.5969,-4.5975,-4.6026,-4.606,-4.606,-4.606,-4.6068,-4.608,-4.608,-4.6087,-4.6098,-4.6098,-4.6137,-4.6173,-6.0839,-6.0897,-6.0931,-6.0931,-6.1012,-6.1099,-6.1099,-6.1099,-6.1099,-6.1099,-6.1099,-6.1099,-6.1099,-6.1099,-6.1051,-6.0901,-6.0899,-6.0856,-6.0793,-6.0685,-6.0281,-5.9531,-5.9396,-5.8954,-5.8146,-5.8011,-5.6819,-5.4491,-5.3857,-5.3876,-5.4491,-5.4607,-5.503,-5.5665,-5.4972,-5.4607,-5.4453,-5.3818,-5.3837,-5.426,-5.3615,-5.375,-5.4297,-5.4243,-5.3731,-5.3182,-5.3867,-5.4242,-5.4394,-5.451,-5.4918,-5.525,-5.4684,-5.4337,-5.3991,-5.326,-5.2481,-5.1885,-5.1769,-5.1221,-5.0712,-5.0712,-5.0616,-5.0491,-5.0375,-4.9077,-4.7895,-4.7845,-4.7085,-4.6431,-4.6442,-4.5867,-4.5399,-4.5399,-4.54,-4.54,-4.54,-4.541,-4.5419,-4.5419,-4.5457,-4.5513,-4.5513,-4.5568,-4.5594,-4.5603,-4.5603,-4.564,-4.5709,-4.5717,-4.573,-4.5807,-4.5795,-4.5791,-4.5807,-4.5807,-4.5807,-4.5807,-4.5691,-4.5691,-4.5807,-4.5827,-4.5834,-4.5834,-4.5835,-4.5841,-4.5841,-4.5841,-4.591,-4.6003,-4.6003,-4.6054,-4.6098,-4.6098,-4.6105,-4.6115,-6.08,-6.0827,-6.0842,-6.0842,-6.0886,-6.0918,-6.0918,-6.0918,-6.0918,-6.0918,-6.0918,-6.0918,-6.0918,-6.0918,-6.0916,-6.0842,-6.0842,-6.0839,-6.0812,-6.08,-6.0627,-6.0242,-6.0223,-6.005,-5.9704,-5.9223,-5.8415,-5.728,-5.6453,-5.5742,-5.5184,-5.5665,-5.5818,-5.5684,-5.5318,-5.4914,-5.4491,-5.4568,-5.428,-5.378,-5.3895,-5.3857,-5.378,-5.3748,-5.3488,-5.3276,-5.4109,-5.4427,-5.4507,-5.4979,-5.5085,-5.5049,-5.5145,-5.4857,-5.4414,-5.4049,-5.3645,-5.3145,-5.2154,-5.1635,-5.126,-5.0808,-5.0712,-5.0712,-5.0712,-5.0096,-4.9384,-4.8786,-4.7978,-4.7373,-4.7322,-4.6642,-4.6068,-4.6068,-4.5666,-4.5341,-4.5341,-4.539,-4.5419,-4.5448,-4.5485,-4.5485,-4.5438,-4.5476,-4.5495,-4.5495,-4.5495,-4.5504,-4.5522,-4.5568,-4.5603,-4.5627,-4.5671,-4.5695,-4.5692,-4.5692,-4.5715,-4.5742,-4.5742,-4.5764,-4.5807,-4.5807,-4.5807,-4.5807,-4.5807,-4.5807,-4.5807,-4.5807,-4.5822,-4.5899,-4.5899,-4.5916,-4.5922,-4.5922,-4.5978,-4.605]},{"header":{"parameterUnit":"m.s-1","parameterCategory":1,"la1":30.6,"la2":28.766,"lo1":-90.7593,"lo2":-88.6598,"dy":0.0162,"dx":0.0183,"nx":116,"ny":114,"refTime":"2024-06-23T12:00:00:Z","depth":0,"parameterNumber":3,"parameterNumberName":"V-component_of_WINDS"},"data":[0.0,0.0,0.0,0.0,0.0,0.0,0.0,0.0,0.0,0.0,0.0,0.0,0.0,0.0,0.0,0.0,0.0,0.0,0.0,0.0,0.0,0.0,0.0,0.0,0.0,0.0,0.0,0.0,0.0,0.0,0.0,0.0,0.0,0.0,0.0,0.0,0.0,0.0,0.0,0.0,0.0,0.0,0.0,0.0,0.0,0.0,0.0,0.0,0.0,0.0,0.0,0.0,0.0,0.0,0.0,0.0,0.0,0.0,0.0,0.0,0.0,0.0,0.0,0.0,0.0,0.0,0.0,0.0,0.0,0.0,0.0,0.0,0.0,0.0,0.0,0.0,0.0,0.0,0.0,0.0,0.0,0.0,0.0,0.0,0.0,0.0,0.0,0.0,0.0,0.0,0.0,0.0,0.0,0.0,0.0,0.0,0.0,0.0,0.0,0.0,0.0,0.0,0.0,0.0,0.0,0.0,0.0,0.0,0.0,0.0,0.0,0.0,0.0,0.0,0.0,0.0,0.0,0.0,0.0,0.0,0.0,0.0,0.0,0.0,0.0,0.0,0.0,0.0,0.0,0.0,0.0,0.0,0.0,0.0,0.0,0.0,0.0,0.0,0.0,0.0,0.0,0.0,0.0,0.0,0.0,0.0,0.0,0.0,0.0,0.0,0.0,0.0,0.0,0.0,0.0,0.0,0.0,0.0,0.0,0.0,0.0,0.0,0.0,0.0,0.0,0.0,0.0,0.0,0.0,0.0,0.0,0.0,0.0,0.0,0.0,0.0,0.0,0.0,0.0,0.0,0.0,0.0,0.0,0.0,0.0,0.0,0.0,0.0,0.0,0.0,0.0,0.0,0.0,0.0,0.0,0.0,0.0,0.0,0.0,0.0,0.0,0.0,0.0,0.0,0.0,0.0,0.0,0.0,0.0,0.0,0.0,0.0,0.0,0.0,0.0,0.0,0.0,0.0,0.0,0.0,0.0,0.0,0.0,0.0,0.0,0.0,0.0,0.0,0.0,0.0,0.0,0.0,0.0,0.0,0.0,0.0,0.0,0.0,0.0,0.0,0.0,0.0,0.0,0.0,0.0,0.0,0.0,0.0,0.0,0.0,0.0,0.0,0.0,0.0,0.0,0.0,0.0,0.0,0.0,0.0,0.0,0.0,0.0,0.0,0.0,0.0,0.0,0.0,0.0,0.0,0.0,0.0,0.0,0.0,0.0,0.0,0.0,0.0,0.0,0.0,0.0,0.0,0.0,0.0,0.0,0.0,0.0,0.0,0.0,0.0,0.0,0.0,0.0,0.0,0.0,0.0,0.0,0.0,0.0,0.0,0.0,0.0,0.0,0.0,0.0,0.0,0.0,0.0,0.0,0.0,0.0,0.0,0.0,0.0,0.0,0.0,0.0,0.0,0.0,0.0,0.0,0.0,0.0,0.0,0.0,0.0,0.0,0.0,0.0,0.0,0.0,0.0,0.0,0.0,0.0,0.0,0.0,0.0,0.0,0.0,0.0,0.0,0.0,0.0,0.0,0.0,0.0,0.0,0.0,0.0,0.0,0.0,0.0,0.0,0.0,0.0,0.0,0.0,0.0,0.0,0.0,0.0,0.0,0.0,0.0,0.0,0.0,0.0,0.0,0.0,0.0,0.0,0.0,0.0,0.0,0.0,0.0,0.0,0.0,0.0,0.0,0.0,0.0,0.0,0.0,0.0,0.0,0.0,0.0,0.0,0.0,0.0,0.0,0.0,0.0,0.0,0.0,0.0,0.0,0.0,0.0,0.0,0.0,0.0,0.0,0.0,0.0,0.0,0.0,0.0,0.0,0.0,0.0,0.0,0.0,0.0,0.0,0.0,0.0,0.0,0.0,0.0,0.0,0.0,0.0,0.0,0.0,0.0,0.0,0.0,0.0,0.0,0.0,0.0,0.0,0.0,0.0,0.0,0.0,0.0,0.0,0.0,0.0,0.0,0.0,0.0,0.0,0.0,0.0,0.0,0.0,0.0,0.0,0.0,0.0,0.0,0.0,0.0,0.0,0.0,0.0,0.0,0.0,0.0,0.0,0.0,0.0,0.0,0.0,0.0,0.0,0.0,0.0,0.0,0.0,0.0,0.0,0.0,0.0,0.0,0.0,0.0,0.0,0.0,0.0,0.0,0.0,0.0,0.0,0.0,0.0,0.0,0.0,0.0,0.0,0.0,0.0,0.0,0.0,0.0,0.0,0.0,0.0,0.0,0.0,0.0,0.0,0.0,0.0,0.0,0.0,0.0,0.0,0.0,0.0,0.0,0.0,0.0,0.0,0.0,0.0,0.0,0.0,0.0,0.0,0.0,0.0,0.0,0.0,0.0,0.0,0.0,0.0,0.0,0.0,0.0,0.0,0.0,0.0,0.0,0.0,0.0,0.0,0.0,0.0,0.0,0.0,0.0,0.0,0.0,0.0,0.0,0.0,0.0,0.0,0.0,0.0,0.0,0.0,0.0,0.0,0.0,0.0,0.0,0.0,0.0,0.0,0.0,0.0,0.0,0.0,0.0,0.0,0.0,0.0,0.0,0.0,0.0,0.0,0.0,0.0,0.0,0.0,0.0,0.0,0.0,0.0,0.0,0.0,0.0,0.0,0.0,0.0,0.0,0.0,0.0,0.0,0.0,0.0,0.0,0.0,0.0,0.0,0.0,0.0,0.0,0.0,0.0,0.0,0.0,0.0,0.0,0.0,0.0,0.0,0.0,0.0,0.0,0.0,0.0,0.0,0.0,0.0,0.0,0.0,0.0,0.0,0.0,0.0,0.0,0.0,0.0,0.0,0.0,0.0,0.0,0.0,0.0,0.0,0.0,0.0,0.0,0.0,0.0,0.0,0.0,0.0,0.0,0.0,0.0,0.0,0.0,0.0,0.0,0.0,0.0,0.0,0.0,0.0,0.0,0.0,0.0,0.0,0.0,0.0,0.0,0.0,0.0,0.0,0.0,0.0,0.0,0.0,0.0,0.0,0.0,0.0,0.0,0.0,0.0,0.0,0.0,0.0,0.0,0.0,0.0,0.0,0.0,0.0,0.0,0.0,0.0,0.0,0.0,0.0,0.0,0.0,0.0,0.0,0.0,0.0,0.0,0.0,0.0,0.0,0.0,0.0,0.0,0.0,0.0,0.0,0.0,0.0,0.0,0.0,0.0,0.0,0.0,0.0,0.0,0.0,0.0,0.0,0.0,0.0,0.0,0.0,0.0,0.0,0.0,0.0,0.0,0.0,0.0,0.0,0.0,0.0,0.0,0.0,0.0,0.0,0.0,0.0,0.0,0.0,0.0,0.0,0.0,0.0,0.0,0.0,0.0,0.0,0.0,0.0,0.0,0.0,0.0,0.0,0.0,0.0,0.0,0.0,0.0,0.0,0.0,0.0,0.0,0.0,0.0,0.0,0.0,0.0,0.0,0.0,0.0,0.0,0.0,0.0,0.0,0.0,0.0,0.0,0.0,0.0,0.0,0.0,0.0,0.0,0.0,0.0,0.0,0.0,0.0,0.0,0.0,0.0,0.0,0.0,0.0,0.0,0.0,0.0,0.0,0.0,0.0,0.0,0.0,0.0,0.0,0.0,0.0,0.0,0.0,0.0,0.0,0.0,0.0,0.0,0.0,0.0,0.0,0.0,0.0,0.0,0.0,0.0,0.0,0.0,0.0,0.0,0.0,0.0,0.0,0.0,0.0,0.0,0.0,0.0,0.0,0.0,0.0,0.0,0.0,0.0,0.0,0.0,0.0,0.0,0.0,0.0,0.0,0.0,0.0,0.0,0.0,0.0,0.0,0.0,0.0,0.0,0.0,0.0,0.0,0.0,0.0,0.0,0.0,0.0,0.0,0.0,0.0,0.0,0.0,0.0,0.0,0.0,0.0,0.0,0.0,0.0,0.0,0.0,0.0,0.0,0.0,0.0,0.0,0.0,0.0,0.0,0.0,0.0,0.0,0.0,0.0,0.0,0.0,0.0,0.0,0.0,0.0,0.0,0.0,0.0,0.0,0.0,0.0,0.0,0.0,0.0,0.0,0.0,0.0,0.0,0.0,0.0,0.0,0.0,0.0,0.0,0.0,0.0,0.0,0.0,0.0,0.0,0.0,0.0,0.0,0.0,0.0,0.0,0.0,0.0,0.0,0.0,0.0,0.0,0.0,0.0,0.0,0.0,0.0,0.0,0.0,0.0,0.0,0.0,0.0,0.0,0.0,0.0,0.0,0.0,0.0,0.0,0.0,0.0,0.0,0.0,0.0,0.0,0.0,0.0,0.0,0.0,0.0,0.0,0.0,0.0,0.0,0.0,0.0,0.0,0.0,0.0,0.0,0.0,0.0,0.0,0.0,0.0,0.0,0.0,0.0,0.0,0.0,0.0,0.0,0.0,0.0,0.0,0.0,0.0,0.0,0.0,0.0,0.0,0.0,0.0,0.0,0.0,0.0,0.0,0.0,0.0,0.0,0.0,0.0,0.0,0.0,0.0,0.0,0.0,0.0,0.0,0.0,0.0,0.0,0.0,0.0,0.0,0.0,0.0,0.0,0.0,0.0,0.0,0.0,0.0,0.0,0.0,0.0,0.0,0.0,0.0,0.0,0.0,0.0,0.0,0.0,0.0,0.0,0.0,0.0,0.0,0.0,0.0,0.0,0.0,0.0,0.0,0.0,0.0,0.0,0.0,0.0,0.0,0.0,0.0,0.0,0.0,0.0,0.0,0.0,0.0,0.0,0.0,0.0,0.0,0.0,0.0,0.0,0.0,0.0,0.0,0.0,0.0,0.0,0.0,0.0,0.0,0.0,0.0,0.0,0.0,0.0,0.0,0.0,0.0,0.0,0.0,0.0,0.0,0.0,0.0,0.0,0.0,0.0,0.0,0.0,0.0,0.0,0.0,0.0,0.0,0.0,0.0,0.0,0.0,0.0,0.0,0.0,0.0,0.0,0.0,0.0,0.0,0.0,0.0,0.0,0.0,0.0,0.0,0.0,0.0,0.0,0.0,0.0,0.0,0.0,0.0,0.0,0.0,0.0,0.0,0.0,0.0,0.0,0.0,0.0,0.0,0.0,0.0,0.0,0.0,0.0,0.0,0.0,0.0,0.0,0.0,0.0,0.0,0.0,0.0,0.0,0.0,0.0,0.0,0.0,0.0,0.0,0.0,0.0,0.0,0.0,0.0,0.0,0.0,0.0,0.0,0.0,0.0,0.0,0.0,0.0,0.0,0.0,0.0,0.0,0.0,0.0,0.0,0.0,0.0,0.0,0.0,0.0,0.0,0.0,0.0,0.0,0.0,0.0,0.0,0.0,0.0,0.0,0.0,0.0,0.0,0.0,0.0,0.0,0.0,0.0,0.0,0.0,0.0,0.0,0.0,0.0,0.0,0.0,0.0,0.0,0.0,0.0,0.0,0.0,0.0,0.0,0.0,0.0,0.0,0.0,0.0,0.0,0.0,0.0,0.0,0.0,0.0,0.0,0.0,0.0,0.0,0.0,0.0,0.0,0.0,0.0,0.0,0.0,0.0,0.0,0.0,0.0,0.0,0.0,0.0,0.0,0.0,0.0,0.0,0.0,0.0,0.0,0.0,0.0,0.0,0.0,0.0,0.0,0.0,0.0,0.0,0.0,0.0,0.0,0.0,0.0,0.0,0.0,0.0,0.0,0.0,0.0,0.0,0.0,0.0,0.0,0.0,0.0,0.0,0.0,0.0,0.0,0.0,0.0,0.0,0.0,0.0,0.0,0.0,0.0,0.0,0.0,0.0,0.0,0.0,0.0,0.0,0.0,0.0,0.0,0.0,0.0,0.0,0.0,0.0,0.0,0.0,0.0,0.0,0.0,0.0,0.0,0.0,0.0,0.0,0.0,0.0,0.0,0.0,0.0,0.0,0.0,0.0,0.0,0.0,0.0,0.0,0.0,0.0,0.0,0.0,0.0,0.0,0.0,0.0,0.0,0.0,0.0,0.0,0.0,0.0,0.0,0.0,0.0,0.0,0.0,0.0,0.0,0.0,0.0,0.0,0.0,0.0,0.0,0.0,0.0,0.0,0.0,0.0,0.0,0.0,0.0,0.0,0.0,0.0,0.0,0.0,0.0,0.0,0.0,0.0,0.0,-1.2582,0.0,0.0,0.0,0.0,0.0,0.0,0.0,0.0,0.0,0.0,0.0,0.0,0.0,0.0,0.0,0.0,0.0,0.0,0.0,0.0,0.0,0.0,0.0,0.0,-0.3804,-0.4009,-0.405,-0.4165,-0.4163,-0.4013,0.0,0.0,0.0,0.0,0.0,-0.3986,-0.4186,-0.4466,-0.4831,-0.4896,-0.5279,-0.5968,-0.5952,-0.5845,-0.5679,0.0,0.0,0.0,0.0,0.0,0.0,0.0,0.0,0.0,0.0,0.0,0.0,0.0,0.0,0.0,0.0,0.0,0.0,0.0,0.0,0.0,0.0,0.0,0.0,0.0,0.0,0.0,0.0,0.0,0.0,0.0,0.0,0.0,0.0,0.0,0.0,0.0,0.0,0.0,0.0,0.0,0.0,0.0,0.0,0.0,0.0,0.0,0.0,0.0,0.0,0.0,0.0,0.0,0.0,0.0,0.0,0.0,0.0,0.0,0.0,0.0,0.0,0.0,0.0,0.0,0.0,0.0,0.0,0.0,0.0,0.0,-1.3778,0.0,0.0,0.0,0.0,0.0,0.0,0.0,0.0,0.0,0.0,0.0,0.0,0.0,0.0,0.0,0.0,0.0,0.0,0.0,0.0,0.0,-0.3402,-0.3285,-0.3785,-0.4124,-0.4126,-0.4427,-0.4501,-0.4198,0.0,0.0,0.0,0.0,-0.4316,-0.4338,-0.4715,-0.5063,-0.5378,-0.5598,-0.6201,-0.7145,-0.7488,-0.7322,-0.674,-0.6722,0.0,0.0,0.0,0.0,0.0,0.0,0.0,0.0,0.0,0.0,0.0,0.0,0.0,0.0,0.0,0.0,0.0,0.0,0.0,0.0,0.0,0.0,0.0,0.0,0.0,0.0,0.0,0.0,0.0,0.0,0.0,0.0,0.0,0.0,0.0,0.0,0.0,0.0,0.0,0.0,0.0,0.0,0.0,0.0,0.0,0.0,0.0,0.0,0.0,0.0,0.0,0.0,0.0,0.0,0.0,0.0,0.0,0.0,0.0,0.0,0.0,0.0,0.0,-1.7833,-1.8424,-1.8733,-1.8764,-1.9178,-1.9782,-1.7491,-1.6667,-1.6762,-1.4873,0.0,0.0,0.0,0.0,0.0,0.0,0.0,0.0,0.0,0.0,0.0,0.0,0.0,0.0,0.0,0.0,0.0,0.0,0.0,-0.3425,-0.3914,-0.4099,-0.4299,-0.4587,-0.4657,-0.4644,-0.4537,-0.4555,0.0,0.0,-0.4361,-0.4413,-0.4471,-0.4816,-0.521,-0.5645,-0.6538,-0.7363,-0.8119,-0.8236,0.0,-0.8461,-0.8126,-0.7838,0.0,0.0,0.0,0.0,0.0,0.0,0.0,0.0,0.0,0.0,0.0,0.0,0.0,0.0,0.0,0.0,0.0,0.0,0.0,0.0,0.0,0.0,0.0,0.0,0.0,0.0,0.0,0.0,0.0,0.0,0.0,0.0,0.0,0.0,0.0,0.0,0.0,0.0,0.0,0.0,0.0,0.0,-0.9043,-1.0424,0.0,0.0,0.0,0.0,0.0,0.0,0.0,0.0,0.0,0.0,0.0,0.0,0.0,-1.68,-1.745,-1.8805,-1.9233,-1.8756,-1.9962,-2.0401,-2.0127,-2.0127,-2.0189,-2.0317,-1.992,0.0,-1.8061,-1.662,0.0,0.0,0.0,0.0,0.0,0.0,0.0,0.0,0.0,0.0,0.0,0.0,0.0,0.0,0.0,0.0,0.0,0.0,0.0,0.0,0.0,-0.4514,-0.4982,-0.5239,-0.5433,-0.5445,0.0,0.0,0.0,-0.4475,-0.4665,-0.4823,-0.4892,-0.5478,-0.6144,-0.6885,-0.7843,-0.8576,-0.9041,0.0,0.0,0.0,-0.9733,-0.912,-0.8204,-0.7691,0.0,0.0,0.0,0.0,0.0,0.0,0.0,0.0,0.0,0.0,0.0,0.0,0.0,0.0,0.0,0.0,0.0,0.0,0.0,0.0,0.0,0.0,0.0,0.0,0.0,0.0,0.0,0.0,0.0,0.0,0.0,0.0,0.0,0.0,0.0,0.0,0.0,0.0,0.0,-0.9219,-1.0814,-1.1582,-1.154,-1.1569,0.0,0.0,0.0,0.0,0.0,0.0,0.0,0.0,0.0,-1.837,-1.904,-1.9553,-1.9918,-2.0709,-2.0965,-2.0607,-2.1167,-2.1501,-2.159,-2.159,-2.188,-2.2335,-2.1921,-2.1434,-2.0724,-1.8726,-1.7872,-1.7629,0.0,0.0,0.0,0.0,-1.6709,-1.6785,0.0,0.0,0.0,0.0,0.0,0.0,0.0,0.0,0.0,0.0,0.0,0.0,-0.4192,-0.4934,-0.5519,-0.5798,0.0,0.0,0.0,0.0,0.0,-0.4973,-0.5108,-0.5293,-0.5557,-0.6505,-0.74,-0.8253,-0.9055,-0.9563,0.0,0.0,0.0,0.0,0.0,0.0,0.0,0.0,0.0,0.0,0.0,0.0,0.0,0.0,0.0,0.0,0.0,0.0,0.0,0.0,0.0,0.0,0.0,0.0,0.0,0.0,0.0,0.0,0.0,0.0,0.0,0.0,0.0,0.0,0.0,0.0,0.0,0.0,0.0,0.0,0.0,0.0,0.0,0.0,0.0,0.0,0.0,-1.0981,-1.2527,-1.3007,-1.3361,-1.3486,0.0,0.0,0.0,0.0,0.0,0.0,-1.773,-1.8691,-1.9533,-2.0183,-2.1217,-2.1748,-2.1759,-2.2237,-2.2352,-2.2159,-2.2159,-2.2335,-2.2677,-2.2677,-2.3049,-2.3701,-2.3127,-2.3016,-2.2993,-2.0636,-1.9836,-1.9937,-1.8828,-1.8609,-1.896,-1.931,-1.9475,-1.9628,0.0,0.0,0.0,0.0,0.0,0.0,0.0,0.0,0.0,0.0,0.0,-0.4211,0.0,0.0,0.0,0.0,0.0,0.0,0.0,0.0,0.0,-0.6193,-0.5674,-0.5739,-0.6518,-0.7888,-0.8875,0.0,0.0,0.0,0.0,0.0,0.0,0.0,0.0,0.0,0.0,0.0,0.0,0.0,0.0,0.0,0.0,0.0,0.0,0.0,0.0,0.0,0.0,0.0,0.0,0.0,0.0,0.0,0.0,0.0,0.0,0.0,0.0,0.0,0.0,0.0,0.0,0.0,0.0,0.0,0.0,0.0,0.0,0.0,0.0,0.0,0.0,0.0,0.0,0.0,0.0,0.0,0.0,-1.5314,-1.639,0.0,0.0,0.0,0.0,-1.746,-1.8312,-1.921,-2.0072,-2.061,-2.1176,-2.1862,-2.2622,-2.2903,-2.273,-2.3202,-2.3313,-2.3122,-2.3122,-2.3132,-2.3153,-2.3153,-2.3184,-2.3215,-2.3214,-2.3524,-2.399,-2.208,-2.1267,-2.1191,-2.0916,-2.1059,-2.1417,-2.1439,-2.1618,-2.1779,0.0,0.0,0.0,-0.1927,-0.203,-0.2133,-0.2213,-0.247,-0.2835,-0.3293,-0.4134,0.0,0.0,0.0,0.0,0.0,0.0,0.0,0.0,0.0,-0.6472,-0.6987,-0.6271,-0.6513,-0.7917,-0.8655,-0.9307,0.0,0.0,0.0,0.0,0.0,0.0,0.0,0.0,0.0,0.0,0.0,0.0,0.0,0.0,0.0,0.0,0.0,0.0,0.0,0.0,0.0,0.0,0.0,0.0,0.0,0.0,0.0,0.0,0.0,0.0,0.0,0.0,0.0,0.0,0.0,0.0,0.0,0.0,0.0,0.0,0.0,0.0,0.0,0.0,0.0,0.0,0.0,0.0,0.0,0.0,0.0,0.0,-1.643,-1.7404,0.0,-1.7127,-1.8011,-1.8783,-1.9135,-2.0042,-2.0884,-2.1589,-2.2169,-2.2777,-2.3409,-2.3758,-2.4061,-2.4335,-2.3961,-2.3711,-2.367,-2.3329,-2.3184,-2.3184,-2.3184,-2.3505,-2.4043,-2.3919,-2.4388,-2.5211,-2.4237,-2.3719,-2.3511,-2.2794,-2.2708,-2.2968,-2.2968,-2.2992,-2.3074,-0.1632,-0.1762,0.0,-0.1927,-0.2008,-0.2129,-0.2311,-0.2578,-0.2984,-0.3596,-0.4462,-0.5188,0.0,0.0,0.0,0.0,0.0,0.0,0.0,0.0,-0.7077,-0.751,-0.7168,-0.7556,-0.8769,-0.9482,0.0,0.0,0.0,0.0,0.0,0.0,0.0,0.0,0.0,0.0,0.0,0.0,0.0,0.0,0.0,0.0,-0.8298,0.0,0.0,0.0,0.0,0.0,0.0,0.0,0.0,0.0,0.0,0.0,0.0,0.0,0.0,0.0,0.0,0.0,0.0,0.0,0.0,0.0,0.0,0.0,0.0,0.0,0.0,0.0,0.0,0.0,0.0,0.0,0.0,0.0,0.0,0.0,-1.7222,-1.7678,-1.8581,-1.9027,-1.8639,-1.9612,-2.0471,-2.0915,-2.1846,-2.2615,-2.3062,-2.3692,-2.4108,-2.4178,-2.4493,-2.4713,-2.4767,-2.4333,-2.4105,-2.4105,-2.3795,-2.3639,-2.3639,-2.3722,-2.4086,-2.4658,-2.4724,-2.5264,-2.6033,-2.5872,-2.5733,-2.5525,-2.4554,-2.4266,-2.4425,-2.4425,-2.4425,-2.4425,-0.1714,-0.1759,-0.1839,-0.1975,-0.1997,-0.2096,-0.237,-0.2702,-0.3181,-0.3912,-0.4563,0.0,0.0,0.0,0.0,0.0,0.0,0.0,0.0,-0.7895,0.0,-0.7803,-0.84,-0.8834,-0.9055,0.0,0.0,0.0,0.0,0.0,0.0,0.0,0.0,0.0,0.0,0.0,0.0,0.0,0.0,0.0,0.0,0.0,-1.0739,0.0,0.0,0.0,0.0,0.0,0.0,0.0,0.0,0.0,0.0,0.0,0.0,0.0,0.0,0.0,0.0,0.0,0.0,0.0,0.0,0.0,0.0,0.0,0.0,0.0,0.0,0.0,0.0,0.0,0.0,0.0,0.0,0.0,-1.5255,-1.7083,-1.8652,-1.9119,-2.0097,-2.064,-2.0472,-2.166,-2.256,-2.2814,-2.3817,-2.444,-2.4489,-2.5112,-2.5071,-2.4241,-2.4833,-2.4799,-2.3992,-2.4311,-2.4528,-2.4538,-2.4538,-2.4538,-2.4581,-2.4828,-2.4956,-2.4998,-2.5667,-2.6097,-2.6379,-2.6854,-2.716,-2.7195,-2.6076,-2.576,-2.5917,-2.5906,-2.5895,-2.5874,-0.1714,-0.1759,-0.1828,-0.1916,-0.1964,-0.214,-0.2551,-0.2983,-0.3477,-0.4074,-0.531,0.0,0.0,0.0,0.0,0.0,0.0,0.0,0.0,0.0,-0.7189,-0.7782,-0.8852,0.0,-1.0507,0.0,0.0,0.0,0.0,0.0,0.0,0.0,0.0,0.0,0.0,0.0,0.0,0.0,0.0,0.0,0.0,0.0,-1.1039,0.0,0.0,0.0,0.0,0.0,0.0,0.0,0.0,0.0,0.0,0.0,0.0,0.0,0.0,0.0,0.0,0.0,0.0,0.0,0.0,0.0,0.0,0.0,0.0,0.0,0.0,0.0,0.0,0.0,0.0,0.0,0.0,-1.7708,-1.7513,-1.8854,-2.0038,-2.0503,-2.1109,-2.1499,-2.1424,-2.2334,-2.3108,-2.3555,-2.4095,-2.4452,-2.4482,-2.4608,-2.4629,-2.4428,-2.4602,-2.4879,-2.5371,-2.514,-2.5202,-2.5513,-2.5513,-2.5602,-2.58,-2.5878,-2.618,-2.6666,-2.6849,-2.7251,-2.7802,-2.7564,-2.7614,-2.7696,-2.6715,-2.6345,-2.6387,-2.6037,-2.5677,-2.5327,-0.1711,-0.1681,-0.1729,-0.1905,-0.1953,-0.2103,-0.2551,-0.2967,-0.3448,-0.4042,-0.5277,0.0,0.0,0.0,0.0,0.0,0.0,0.0,0.0,0.0,-0.7602,-0.864,0.0,0.0,0.0,0.0,0.0,0.0,0.0,0.0,0.0,0.0,0.0,0.0,0.0,0.0,0.0,0.0,0.0,0.0,0.0,0.0,-1.1684,-1.0577,-1.0084,-0.9864,-0.9111,-0.8752,-0.8561,-0.8198,0.0,0.0,0.0,0.0,0.0,0.0,0.0,0.0,0.0,0.0,0.0,0.0,0.0,0.0,0.0,0.0,0.0,0.0,0.0,0.0,0.0,0.0,0.0,0.0,-1.782,-1.9414,-1.9499,-2.0213,-2.0886,-2.1352,-2.1818,-2.217,-2.2366,-2.3039,-2.3614,-2.4105,-2.451,-2.4763,-2.4788,-2.4945,-2.5051,-2.5088,-2.5099,-2.5347,-2.5875,-2.5726,-2.5816,-2.6066,-2.6166,-2.6312,-2.6446,-2.657,-2.6798,-2.719,-2.7484,-2.7823,-2.8221,-2.8191,-2.825,0.0,0.0,0.0,0.0,0.0,-2.5721,-2.5437,-0.1681,-0.1599,-0.1613,-0.192,-0.1942,-0.2041,-0.2414,-0.281,-0.3289,-0.3925,0.0,0.0,0.0,0.0,0.0,0.0,0.0,0.0,0.0,0.0,0.0,-0.983,0.0,0.0,0.0,0.0,0.0,0.0,0.0,0.0,0.0,0.0,0.0,0.0,0.0,0.0,0.0,0.0,0.0,0.0,0.0,0.0,-1.2402,-1.1665,-1.1239,-1.095,-1.0314,-0.9793,-0.9377,-0.9028,0.0,0.0,0.0,0.0,0.0,0.0,0.0,0.0,0.0,0.0,0.0,0.0,0.0,0.0,0.0,0.0,0.0,0.0,0.0,0.0,0.0,0.0,0.0,0.0,-1.9517,-2.0633,-2.1087,-2.1149,-2.1342,-2.1756,-2.2211,-2.2656,-2.307,-2.3577,-2.4064,-2.4466,-2.4914,-2.5177,-2.5319,0.0,0.0,0.0,0.0,-2.5951,-2.6003,-2.6302,-2.649,-2.6588,-2.6825,-2.6926,-2.6971,-2.711,-2.7167,-2.7233,-2.7836,-2.8078,-2.8111,-2.8617,-2.8803,-2.8716,-2.7752,-2.7064,-2.6606,-2.6157,-2.5983,-2.5972,-0.1591,-0.1602,-0.1635,-0.1806,-0.1916,-0.2063,-0.23,-0.2993,-0.3621,-0.4021,-0.5031,0.0,0.0,0.0,0.0,0.0,0.0,0.0,0.0,0.0,0.0,0.0,0.0,0.0,0.0,0.0,0.0,0.0,0.0,0.0,0.0,0.0,0.0,0.0,0.0,0.0,0.0,0.0,0.0,0.0,0.0,0.0,-1.2403,-1.1503,-1.1182,-1.1196,-1.0791,-1.0677,-1.0689,-1.0351,-0.9962,-0.9521,-0.8943,0.0,0.0,0.0,0.0,0.0,0.0,0.0,0.0,0.0,0.0,0.0,0.0,0.0,0.0,0.0,0.0,0.0,0.0,0.0,0.0,-1.8678,-2.0053,-2.1071,-2.1384,-2.1559,-2.1704,-2.1797,-2.2211,-2.2532,-2.2625,-2.3391,-2.4064,-2.4466,-2.4583,-2.5065,-2.6044,-2.5597,-2.5607,-2.6201,-2.6021,-2.6198,-2.6777,-2.7201,-2.7709,-2.8259,0.0,0.0,-2.8602,-2.8297,-2.8253,-2.8484,-2.8582,-2.8661,-2.8672,-2.8771,-2.8803,-2.8749,-2.8123,-2.7555,-2.7119,-2.666,-2.6442,-2.6431,-0.161,-0.1602,-0.1591,-0.1725,-0.1861,-0.1997,-0.2125,-0.2631,-0.3258,-0.3956,-0.4659,0.0,0.0,0.0,0.0,0.0,0.0,0.0,0.0,0.0,0.0,0.0,0.0,0.0,0.0,0.0,0.0,0.0,0.0,0.0,0.0,0.0,0.0,0.0,0.0,0.0,0.0,0.0,0.0,0.0,0.0,0.0,-1.2081,-1.1561,-1.1441,-1.1518,-1.1182,-1.1073,-1.1048,-1.0789,-1.0468,-1.0091,-0.9669,-0.9333,-0.8885,0.0,0.0,0.0,0.0,0.0,0.0,0.0,0.0,0.0,0.0,0.0,0.0,0.0,0.0,-1.4257,-1.5554,0.0,-1.9013,-1.9767,-2.069,-2.1398,-2.1624,-2.2042,-2.2265,-2.2149,-2.2631,-2.3045,-2.3204,-2.3929,-2.4555,-2.5013,-2.5044,-2.5488,-2.6459,-2.6146,-2.623,-2.6798,-2.6673,-2.6894,-2.7471,-2.7866,-2.8253,-2.87,-2.8951,-2.9225,-2.9462,-2.9369,-2.9393,-2.9467,-2.8979,-2.8729,-2.8718,-2.8235,-2.7998,-2.7966,-2.7685,-2.7635,-2.7576,-2.7097,-2.6966,-2.6857,-0.1571,-0.1574,-0.1574,-0.1703,-0.1828,-0.1942,-0.1997,-0.2245,-0.2766,-0.3679,-0.4122,-0.4616,-0.5336,-0.5865,-0.6171,0.0,0.0,0.0,0.0,0.0,0.0,0.0,0.0,0.0,0.0,0.0,0.0,0.0,0.0,0.0,0.0,0.0,0.0,0.0,0.0,0.0,0.0,0.0,0.0,0.0,0.0,0.0,-1.1747,-1.1654,-1.1654,-1.1734,-1.1398,-1.1225,-1.109,-1.0848,-1.0546,-1.0275,-1.0085,-0.9826,-0.9453,-0.8633,-0.8392,0.0,0.0,0.0,0.0,0.0,0.0,0.0,0.0,0.0,-1.1684,-1.4044,-1.5058,-1.6005,-1.7561,-1.8867,-1.9946,-2.0656,-2.1225,-2.1596,-2.1701,-2.2413,-2.2864,-2.2749,-2.3322,-2.378,-2.3992,-2.4598,-2.5146,-2.562,-2.5651,-2.6036,-2.6832,-2.6864,-2.7022,-2.7505,-2.7469,-2.7651,-2.8092,-2.8387,-2.8623,-2.8844,-2.9288,-2.9596,-2.973,-2.9817,-2.9856,-2.9834,-2.8913,-2.8555,-2.8464,-2.756,-2.7183,-2.7183,-2.7183,-2.7483,-2.7793,-2.7308,-2.7135,-2.707,-0.1319,-0.153,-0.1703,-0.1781,-0.1894,-0.1986,-0.1997,-0.2328,-0.2706,-0.3067,-0.3715,-0.4108,-0.4023,-0.5016,-0.5989,-0.6729,0.0,0.0,0.0,0.0,0.0,0.0,0.0,0.0,0.0,0.0,0.0,0.0,0.0,0.0,0.0,0.0,0.0,0.0,0.0,0.0,0.0,0.0,0.0,0.0,0.0,0.0,-1.1622,-1.1622,-1.1622,-1.1578,-1.1368,-1.1286,-1.1225,-1.0763,-1.0515,-1.0304,-0.994,-0.9736,-0.9541,-0.92,0.0,-0.9033,-0.8704,-0.8954,-0.977,-1.1807,-1.1327,-1.1268,0.0,0.0,-1.4692,-1.6109,-1.7345,-1.8354,-1.8971,-1.9669,-2.0244,-2.0574,-2.1252,-2.1699,-2.1551,-2.2452,-2.3297,-2.3608,-2.4104,-2.4393,-2.4446,-2.4882,-2.5349,-2.5827,-2.5869,-2.6384,-2.7508,-2.7358,-2.7572,-2.8251,-2.8064,-2.8038,-2.8348,-2.8826,-2.9159,-2.9393,-2.9429,-2.9409,-2.9413,-2.8896,-2.8686,-2.8666,-2.817,-2.7973,-2.7931,-2.7427,-2.7183,-2.7183,-2.7183,-2.7247,-2.7238,-2.678,-2.6603,-2.6541,-0.1321,-0.1541,-0.1725,-0.1792,-0.185,-0.1872,-0.1828,-0.2066,-0.2444,-0.2988,-0.3287,-0.3664,-0.4211,-0.4859,-0.544,-0.5934,-0.6849,0.0,0.0,0.0,0.0,0.0,0.0,0.0,0.0,0.0,0.0,0.0,0.0,0.0,0.0,0.0,0.0,0.0,0.0,0.0,0.0,0.0,0.0,0.0,0.0,0.0,-1.1694,-1.1409,-1.1305,-1.1321,-1.1294,-1.1033,0.0,0.0,-1.0542,-1.0314,-1.0065,-0.9933,-0.9804,-0.9339,-0.9456,0.0,-1.0486,-1.0635,0.0,0.0,-1.2725,-1.292,-1.5284,-1.5312,-1.5349,-1.6982,-1.7834,-1.8463,-1.9182,-1.9515,-1.9994,0.0,-2.0964,-2.1159,-2.1969,-2.2625,-2.3134,-2.3402,-2.4103,-2.4656,-2.487,-2.522,-2.5733,-2.6473,-2.6538,-2.7079,-2.8269,-2.8221,-2.8307,-2.8617,-2.8233,-2.8045,-2.8149,-2.8058,-2.8088,-2.8351,-2.8523,-2.8752,-2.9102,-2.898,-2.8788,-2.8482,-2.831,-2.7925,-2.7352,-2.6912,-2.6732,-2.6712,-2.6442,-2.6342,-2.637,-2.6787,-2.6894,-2.6832,-0.1285,-0.1541,-0.1736,-0.177,-0.1792,-0.1792,-0.1759,-0.1883,-0.2173,-0.2747,-0.2924,-0.3372,-0.4356,-0.461,-0.4799,-0.5025,-0.6171,-0.7054,0.0,0.0,0.0,0.0,0.0,0.0,0.0,0.0,0.0,0.0,0.0,0.0,0.0,0.0,0.0,0.0,0.0,0.0,0.0,0.0,0.0,0.0,0.0,0.0,-1.1676,-1.1316,-1.1056,-1.093,-1.0989,-1.0684,0.0,0.0,-1.0314,-1.008,-0.9957,-0.9926,-0.9892,-0.9533,-0.9877,-1.0583,-1.1505,0.0,0.0,-1.3478,-1.38,-1.4178,-1.5646,-1.574,-1.5975,-1.7458,-1.7983,-1.8348,-1.9079,-1.9079,-1.9427,-2.0936,-2.0718,-2.0727,-2.1921,-2.2631,-2.292,-2.2817,-2.3763,-2.4512,-2.4809,-2.5221,-2.5862,-2.6807,-2.6916,-2.7325,-2.8319,-2.8513,-2.8513,-2.8373,-2.7987,-2.7799,-2.7799,-2.7373,-2.7253,-2.7426,-2.7629,-2.8051,-2.8594,-2.8429,-2.8239,-2.7898,-2.7257,-2.7072,-2.7139,-2.6164,-2.6011,-2.6348,-2.5859,-2.5693,-2.5781,-2.6534,-2.6764,-2.6713,-0.1105,-0.1482,-0.1781,-0.1714,-0.1759,-0.1825,-0.1883,-0.1894,-0.1953,-0.2108,-0.2641,-0.3284,-0.4029,-0.4011,-0.4063,-0.44,-0.5598,-0.6476,-0.6802,-0.8072,0.0,0.0,0.0,0.0,0.0,0.0,0.0,0.0,0.0,0.0,0.0,0.0,0.0,0.0,0.0,0.0,0.0,0.0,0.0,0.0,0.0,0.0,-1.1495,-1.1338,-1.097,-1.0503,-1.0374,0.0,0.0,0.0,-0.9622,-0.9603,-0.9467,-0.9496,0.0,-0.9987,-1.0564,0.0,0.0,0.0,-1.2813,-1.4226,-1.453,-1.4922,-1.6578,-1.7064,-1.7252,-1.7608,-1.8126,-1.8581,-1.8948,-1.8494,-1.8571,-2.018,-2.0517,-2.0706,-2.1078,-2.2301,-2.2819,-2.1878,-2.3052,-2.393,0.0,-2.4724,-2.5594,-2.654,-2.6594,-2.6806,-2.7226,-2.7752,-2.7799,-2.7278,-2.7231,-2.7231,-2.7231,-2.7231,-2.7194,-2.7214,-2.7124,-2.7381,-2.7794,-2.6632,-2.6293,-2.6444,-2.4236,-2.4963,-2.7487,-2.5123,-2.5069,-2.6348,-2.5859,-2.5693,-2.5693,-2.5732,-2.5732,-2.5732,-0.0836,-0.1216,-0.1532,-0.1507,-0.1673,-0.1803,-0.1828,-0.1872,-0.1916,-0.1964,-0.2607,0.0,0.0,0.0,0.0,0.0,-0.5092,-0.577,-0.6239,-0.7451,0.0,0.0,0.0,0.0,0.0,0.0,0.0,0.0,0.0,0.0,0.0,0.0,0.0,0.0,0.0,0.0,0.0,0.0,0.0,0.0,0.0,0.0,-1.1204,-1.0802,-1.028,-0.976,0.0,0.0,0.0,0.0,0.0,0.0,-0.9413,0.0,0.0,-1.0265,-1.0916,-1.1569,0.0,0.0,-1.3719,-1.459,-1.5142,-1.5646,-1.6428,-1.6929,-1.7139,-1.6605,-1.7113,-1.7465,-1.6902,-1.6984,-1.7589,-1.899,-1.9119,-1.9404,-2.0358,-2.1264,-2.1487,-2.0629,-2.1664,0.0,0.0,0.0,0.0,-2.6083,-2.6145,-2.6451,-2.7142,-2.7373,-2.7373,-2.7183,-2.6918,-2.6726,-2.6726,-2.639,-2.6197,-2.6207,-2.5946,-2.5573,-2.4995,-2.512,-2.5219,-2.5252,-2.4336,-2.4473,-2.5352,-2.3996,-2.3746,-2.4149,-2.3754,-2.3552,-2.3552,-2.3552,-2.3552,-2.3701,-0.0701,-0.1005,-0.1285,-0.1388,-0.1519,0.0,0.0,0.0,0.0,0.0,0.0,0.0,0.0,0.0,0.0,0.0,0.0,-0.5142,-0.5618,0.0,0.0,0.0,0.0,0.0,0.0,0.0,0.0,0.0,0.0,0.0,0.0,0.0,0.0,0.0,0.0,0.0,0.0,0.0,0.0,0.0,0.0,0.0,-1.0627,-1.0186,-0.9646,0.0,0.0,0.0,0.0,0.0,0.0,0.0,0.0,0.0,0.0,-1.0748,-1.148,-1.2207,-1.2987,-1.374,-1.445,-1.4944,-1.5599,-1.6133,-1.6367,-1.6689,-1.6748,-1.5913,-1.6001,-1.6031,-1.5405,-1.5444,-1.6079,-1.7746,-1.7881,-1.8212,-1.9359,-2.0104,-2.0263,-1.9411,-2.0369,-2.0932,0.0,0.0,0.0,-2.5032,-2.5564,-2.6084,-2.6638,-2.686,-2.6706,-2.6099,-2.5781,-2.5441,-2.5089,-2.4707,-2.4569,-2.4578,-2.4503,-2.3939,-2.2986,-2.3515,-2.3799,-2.39,-2.3037,-2.322,-2.4029,-2.2797,-2.2612,-2.3049,-2.268,-2.2484,-2.2484,-2.2484,-2.2484,-2.2584,-0.068,-0.0847,-0.1061,0.0,0.0,0.0,0.0,0.0,0.0,0.0,0.0,0.0,0.0,0.0,0.0,0.0,0.0,0.0,-0.4923,0.0,0.0,0.0,0.0,-0.7948,-0.7847,-0.8681,0.0,0.0,0.0,0.0,0.0,0.0,0.0,0.0,0.0,0.0,0.0,0.0,0.0,0.0,0.0,0.0,-0.9832,-0.9559,0.0,0.0,0.0,0.0,0.0,0.0,0.0,0.0,0.0,0.0,0.0,-1.1399,-1.2233,-1.2941,-1.3455,-1.4267,-1.5009,-1.5352,-1.5913,-1.6389,-1.6389,-1.6375,-1.6133,-1.5489,-1.4853,-1.4399,0.0,0.0,-1.4238,-1.6396,-1.6845,-1.7203,-1.812,-1.901,-1.9257,0.0,0.0,0.0,0.0,0.0,0.0,-2.343,0.0,-2.5587,-2.5557,-2.6014,-2.5596,-2.4088,-2.4038,-2.3543,-2.2492,-2.2484,-2.2484,-2.2442,-2.2826,-2.2584,-2.1711,-2.1911,-2.2094,-2.2308,-2.058,-2.126,-2.3448,-2.1577,-2.1634,-2.2877,-2.2477,-2.2341,-2.2341,-2.2341,-2.2341,-2.2341,0.0,0.0,0.0,0.0,0.0,0.0,0.0,0.0,0.0,0.0,0.0,0.0,0.0,0.0,0.0,0.0,0.0,0.0,0.0,0.0,0.0,0.0,0.0,0.0,0.0,-0.7779,0.0,0.0,0.0,0.0,0.0,0.0,0.0,0.0,0.0,0.0,0.0,0.0,0.0,0.0,0.0,0.0,-0.9216,0.0,0.0,0.0,0.0,0.0,0.0,0.0,0.0,0.0,0.0,0.0,-1.1007,0.0,0.0,-1.3565,-1.4608,-1.5075,-1.5396,-1.5994,-1.6082,-1.603,-1.603,-1.584,-1.5416,-1.4531,-1.3912,-1.3331,-1.2755,0.0,0.0,-1.4673,-1.5959,0.0,-1.7214,-1.8494,0.0,-1.8033,0.0,-1.9574,-1.8812,-1.9873,0.0,0.0,-2.2266,-2.3033,-2.3276,-2.3443,-2.3335,-2.2935,-2.2894,-2.2785,-2.2484,-2.2484,-2.2089,-2.1293,-2.1857,-2.1624,-2.0627,-2.1175,-2.1309,-2.113,-2.0398,-2.0342,-2.0742,-2.0008,-1.9932,-2.0245,-2.0168,-2.013,-2.013,-2.013,-2.013,-2.013,0.0,0.0,0.0,0.0,0.0,0.0,0.0,0.0,0.0,0.0,0.0,0.0,0.0,0.0,0.0,0.0,0.0,0.0,0.0,0.0,0.0,0.0,0.0,0.0,0.0,0.0,0.0,0.0,0.0,0.0,0.0,0.0,0.0,0.0,0.0,0.0,0.0,0.0,0.0,0.0,0.0,0.0,0.0,0.0,0.0,0.0,0.0,0.0,0.0,0.0,0.0,-1.05,-1.096,-1.1308,-1.1806,-1.3078,0.0,-1.423,-1.4976,-1.5382,-1.5723,-1.6082,-1.5935,-1.5586,-1.517,-1.4702,-1.4021,-1.2821,-1.2205,0.0,-1.1281,0.0,0.0,0.0,0.0,0.0,-1.6822,-1.7914,-1.8424,0.0,-1.8709,0.0,-1.8561,-1.9353,-1.9898,0.0,-2.1287,-2.227,-2.2475,-2.2484,-2.2291,-2.1836,-2.1785,-2.1582,-2.1081,-2.1081,-2.0783,-2.0189,-2.0718,-2.0679,-2.019,-2.0611,-2.0684,-2.0438,0.0,-1.985,-1.9588,-1.9404,-1.9279,-1.9279,-1.9279,-1.9279,-1.9279,-1.9279,-1.9279,-1.9279,0.0,0.0,0.0,0.0,0.0,0.0,0.0,0.0,0.0,-0.2202,0.0,0.0,0.0,0.0,0.0,0.0,0.0,0.0,0.0,0.0,0.0,0.0,0.0,0.0,0.0,0.0,0.0,0.0,0.0,0.0,0.0,0.0,0.0,0.0,0.0,0.0,0.0,0.0,0.0,0.0,0.0,0.0,0.0,0.0,0.0,0.0,0.0,0.0,0.0,0.0,-1.0298,-1.0892,-1.1219,-1.1831,-1.2688,-1.3755,-1.4381,-1.4767,-1.4912,-1.5327,-1.5784,-1.5871,-1.5551,-1.5022,-1.4173,-1.3424,-1.2487,-1.0964,0.0,-1.0102,-1.007,-1.0653,-1.1631,-1.3128,0.0,-1.5387,-1.6719,-1.7413,-1.783,-1.7874,-1.846,-1.8855,-1.8855,-1.9111,-1.9279,-1.9279,-2.1038,-2.2089,-2.2089,-2.2089,-2.1641,-2.0731,-2.0688,-2.0233,-1.9331,-1.9279,-1.9279,-1.9279,-1.9705,-1.9967,-2.0183,-2.0227,-2.0219,-2.0168,-1.9901,-1.9632,-1.9279,-1.9279,-1.9279,-1.9279,-1.9279,-1.9279,-1.9279,-1.9279,-1.9279,-1.9279,0.0,0.0,0.0,0.0,0.0,0.0,0.0,-0.1571,-0.1838,-0.2374,-0.2397,-0.2372,0.0,0.0,0.0,0.0,0.0,0.0,0.0,0.0,0.0,0.0,0.0,0.0,0.0,0.0,0.0,0.0,0.0,0.0,0.0,0.0,0.0,0.0,0.0,0.0,0.0,0.0,0.0,0.0,0.0,0.0,0.0,0.0,0.0,0.0,0.0,0.0,0.0,0.0,-0.9667,-1.1141,-1.2095,-1.26,-1.3024,-1.4163,-1.4446,-1.4502,-1.5,-1.5021,-1.5071,-1.582,-1.516,-1.4273,-1.4034,-1.2891,0.0,0.0,0.0,-0.9588,-0.9464,-1.0499,0.0,-1.2607,0.0,0.0,0.0,0.0,-1.7918,0.0,0.0,0.0,0.0,0.0,0.0,0.0,0.0,-1.9879,-1.9879,-1.9879,-1.9783,-1.9576,-1.9576,-1.948,-1.9279,-1.9279,-1.9279,-1.9286,-1.9872,-2.0124,-2.019,-2.0516,-2.0438,-2.0168,-1.9901,0.0,-1.9279,-1.9279,-1.9279,-1.9279,-1.9279,-1.9279,-1.9279,-1.9279,-1.9279,-1.9279,0.0,0.0,0.0,0.0,0.0,0.0,0.0,-0.1397,-0.1809,-0.2094,-0.2416,-0.2576,-0.2515,-0.2521,-0.2527,0.0,0.0,0.0,0.0,0.0,0.0,0.0,0.0,0.0,0.0,0.0,0.0,0.0,0.0,0.0,0.0,0.0,0.0,0.0,0.0,0.0,0.0,0.0,0.0,0.0,0.0,0.0,0.0,0.0,0.0,0.0,0.0,0.0,0.0,0.0,-0.9291,-1.0326,-1.1741,-1.2652,-1.3407,-1.4374,-1.4517,-1.449,-1.5034,-1.4972,-1.4846,-1.5445,-1.4578,-1.3456,-1.2979,0.0,0.0,0.0,0.0,-0.8703,-0.8808,0.0,0.0,0.0,0.0,0.0,0.0,0.0,0.0,0.0,0.0,0.0,0.0,0.0,0.0,0.0,0.0,-1.9279,-1.9279,-1.9279,-1.9279,-1.9279,-1.9279,-1.9279,-1.9279,-1.9279,-1.9412,-1.9588,-2.0011,-2.0183,-2.0183,-2.0343,-2.0296,-1.9974,-1.9645,-1.9478,-1.9279,-1.9279,-1.9279,-1.9279,-1.9279,-1.9279,-1.9279,-1.9279,-1.9279,-1.9279,0.0,0.0,0.0,0.0,0.0,0.0,0.0,-0.1137,-0.1596,-0.1693,-0.2273,-0.2621,-0.2499,-0.2446,-0.2424,0.0,0.0,0.0,0.0,0.0,0.0,0.0,0.0,0.0,0.0,0.0,0.0,0.0,0.0,0.0,0.0,0.0,0.0,0.0,0.0,0.0,0.0,0.0,0.0,0.0,0.0,0.0,0.0,0.0,0.0,0.0,0.0,0.0,0.0,0.0,-0.8615,-0.9183,-1.0504,-1.1919,-1.324,-1.4019,-1.4234,-1.4315,-1.4724,-1.4801,-1.4808,-1.5067,-1.4069,-1.2818,-1.2033,-1.0706,0.0,0.0,-0.7981,-0.8035,-0.8321,0.0,0.0,0.0,0.0,0.0,0.0,0.0,0.0,0.0,0.0,0.0,0.0,0.0,0.0,0.0,0.0,0.0,-1.9279,-1.9279,-1.9279,-1.9279,-1.9279,-1.9308,-1.9434,-1.9434,-1.9595,-1.9872,-2.0186,-2.0249,-2.0183,-2.0183,-2.0062,-1.9801,-1.947,-1.9279,-1.9279,-1.9279,-1.9279,-1.9279,-1.9279,-1.9279,-1.9279,-1.9279,-1.9279,-1.9279,0.0,0.0,0.0,0.0,0.0,0.0,0.0,-0.0783,-0.095,-0.1375,-0.1909,-0.2221,-0.2152,-0.2357,-0.244,0.0,0.0,0.0,0.0,0.0,0.0,0.0,0.0,0.0,0.0,0.0,0.0,0.0,0.0,0.0,0.0,0.0,0.0,0.0,0.0,0.0,0.0,0.0,0.0,0.0,0.0,0.0,0.0,0.0,0.0,0.0,0.0,0.0,0.0,0.0,0.0,-0.8143,-0.837,-0.9989,-1.1906,-1.2594,0.0,0.0,-1.3714,-1.4331,-1.495,-1.4961,-1.3858,-1.2667,-1.2119,0.0,0.0,-0.8522,-0.8242,-0.8168,-0.8221,-0.8601,0.0,0.0,0.0,0.0,0.0,0.0,0.0,0.0,0.0,0.0,0.0,0.0,0.0,0.0,0.0,0.0,-1.9279,-1.9279,-1.9279,-1.9279,-1.9279,-1.947,-1.9764,-1.9771,-1.9879,-2.0194,-2.0523,-2.0467,-2.0183,-2.0183,-2.0062,-1.9801,-1.947,-1.9279,0.0,-1.9279,-1.9279,-1.9279,-1.9279,-1.9279,-1.9279,-1.9279,-1.9279,-1.9279,0.0,0.0,0.0,0.0,0.0,0.0,-0.0419,-0.0591,-0.0763,-0.0958,-0.1407,-0.1712,-0.1671,-0.174,-0.1929,-0.2329,0.0,0.0,0.0,0.0,0.0,0.0,0.0,0.0,0.0,0.0,0.0,0.0,0.0,0.0,0.0,0.0,0.0,0.0,0.0,0.0,0.0,0.0,0.0,0.0,0.0,0.0,0.0,0.0,0.0,0.0,0.0,0.0,0.0,0.0,0.0,0.0,-0.741,-0.8344,0.0,0.0,-1.2578,-1.3353,-1.3981,-1.4429,-1.4666,-1.4457,-1.3615,-1.2536,-1.1591,0.0,-0.9319,-0.8644,-0.8421,-0.8295,-0.8221,-0.8362,-0.8828,0.0,-1.0325,-1.1223,0.0,0.0,0.0,0.0,0.0,0.0,0.0,0.0,0.0,0.0,0.0,0.0,-1.961,-1.9434,-1.9279,-1.9279,-1.9522,-1.9588,-1.9522,-1.972,-1.9828,-1.9952,-2.0084,-2.0077,-1.9952,-1.9952,-1.9777,-1.9514,-1.9382,-1.9279,0.0,-1.9279,-1.9279,-1.9279,-1.9279,-1.9279,-1.9279,-1.9279,-1.9279,-1.9279,0.0,0.0,0.0,0.0,0.0,-0.0217,-0.0205,-0.0381,-0.0512,-0.0493,-0.0938,-0.1234,-0.1193,-0.1281,-0.1525,-0.2001,-0.2012,0.0,0.0,0.0,0.0,0.0,0.0,0.0,0.0,0.0,0.0,0.0,0.0,0.0,0.0,0.0,0.0,0.0,0.0,0.0,0.0,0.0,0.0,0.0,0.0,0.0,0.0,0.0,0.0,0.0,0.0,0.0,0.0,0.0,0.0,0.0,0.0,0.0,0.0,0.0,-1.1687,-1.2623,-1.3655,-1.4164,-1.4302,-1.3921,-1.3253,-1.2368,0.0,0.0,-0.9405,-0.8884,-0.8606,-0.8448,-0.8381,-0.8301,-0.8479,0.0,-0.9476,-1.0186,-1.1847,0.0,0.0,0.0,0.0,0.0,0.0,0.0,0.0,0.0,0.0,0.0,-1.9661,-1.9456,-1.9367,-1.955,-1.9784,-1.9791,-1.9564,-1.9784,-1.9901,-1.9901,-1.9901,-1.9857,-1.9815,-1.9815,-1.9639,-1.9279,-1.9279,-1.9279,0.0,-1.9279,-1.9279,-1.9279,-1.9279,-1.9279,-1.9279,-1.9279,-1.9279,-1.9279,0.0,0.0,0.0,0.0,0.0,0.0,-0.0207,-0.0148,-0.008,-0.0018,-0.0532,-0.086,-0.0723,-0.1123,-0.1343,-0.1215,-0.1522,0.0,0.0,0.0,0.0,0.0,0.0,0.0,0.0,0.0,0.0,0.0,0.0,0.0,0.0,0.0,0.0,0.0,0.0,0.0,0.0,0.0,0.0,0.0,0.0,0.0,-0.4381,0.0,0.0,0.0,0.0,0.0,0.0,0.0,0.0,0.0,0.0,0.0,0.0,0.0,-1.0442,-1.1261,-1.2318,-1.3351,-1.3955,-1.3367,-1.2759,-1.2107,0.0,-1.0438,-0.9598,-0.9257,-0.8863,-0.8633,-0.8778,-0.8586,-0.849,-0.8771,-0.9421,-1.0283,-1.1458,0.0,0.0,0.0,0.0,0.0,0.0,0.0,0.0,0.0,0.0,0.0,-1.9331,-1.9279,-1.9564,-2.0146,-2.0176,-2.0176,-2.0176,-2.0176,-2.0176,-2.0176,-2.0176,-2.0069,-1.9815,-1.9815,-1.9639,-1.9279,0.0,-1.9279,0.0,-1.9279,-1.9279,-1.9279,-1.9279,-1.9279,-1.9279,-1.9279,-1.9279,-1.9279,0.0,0.0,0.0,0.0,0.0,0.0,0.0,-0.0139,-0.0076,-0.0017,-0.0162,-0.0264,-0.0234,-0.0356,-0.0564,-0.0838,-0.1368,0.0,0.0,0.0,0.0,0.0,0.0,0.0,0.0,0.0,0.0,0.0,0.0,0.0,0.0,0.0,0.0,0.0,0.0,0.0,0.0,0.0,0.0,0.0,0.0,-0.4106,-0.4189,0.0,0.0,0.0,0.0,0.0,0.0,0.0,0.0,0.0,0.0,0.0,0.0,-0.7257,-0.9144,0.0,-1.0624,-1.1527,-1.2184,-1.1095,-1.0662,-1.039,-0.9941,-0.945,-0.9092,-0.9189,-0.9028,-0.8824,-0.8685,-0.8666,-0.9,-1.0014,-1.0372,0.0,0.0,0.0,0.0,0.0,0.0,0.0,0.0,0.0,0.0,0.0,0.0,0.0,-1.9908,-1.9725,-1.9601,-1.9579,-1.9798,-1.9806,-1.9586,-1.9806,-1.9798,-1.9579,-1.9579,-1.9528,-1.9485,-1.9485,-1.9426,0.0,0.0,-1.9279,-1.9279,-1.9279,-1.9279,-1.9279,-1.9279,-1.9279,-1.9279,-1.9279,-1.9279,-1.9279,0.0,0.0,0.0,0.0,0.0,0.0,0.0,-0.0184,-0.0128,-0.008,-0.0034,-0.0018,-0.0038,-0.0018,-0.0125,-0.0418,-0.0988,0.0,0.0,0.0,0.0,0.0,0.0,0.0,0.0,0.0,0.0,0.0,0.0,0.0,0.0,0.0,0.0,0.0,0.0,0.0,0.0,0.0,0.0,0.0,-0.3856,-0.3885,-0.3875,0.0,0.0,0.0,0.0,0.0,0.0,0.0,0.0,0.0,0.0,0.0,0.0,0.0,-0.7401,-0.9072,0.0,-0.9896,-1.0423,-0.9576,-0.9312,-0.9203,-0.889,-0.8608,-0.8506,-0.8825,-0.8738,-0.8633,-0.8784,-0.8798,-0.9118,-1.0045,-1.0246,0.0,0.0,0.0,0.0,0.0,0.0,0.0,0.0,0.0,0.0,0.0,0.0,0.0,-1.9708,-1.9541,-1.9386,-1.9182,-1.9657,-1.9784,-1.9514,-1.9713,-1.9654,-1.9279,-1.9279,-1.9279,-1.9279,-1.9279,-1.9279,0.0,-1.9279,-1.9279,0.0,-1.9279,-1.9279,-1.9279,-1.9279,-1.9279,-1.9279,-1.9279,-1.9279,-1.9279,0.0,0.0,0.0,0.0,0.0,0.0,0.0,-0.024,-0.0199,-0.0196,-0.0077,-0.0016,-0.009,-0.0035,0.0,0.0,0.0,0.0,0.0,0.0,0.0,0.0,0.0,0.0,0.0,0.0,0.0,-0.3242,-0.3105,-0.3501,-0.4358,0.0,0.0,0.0,0.0,0.0,0.0,0.0,0.0,0.0,-0.3644,-0.3619,0.0,0.0,0.0,0.0,0.0,0.0,0.0,0.0,0.0,0.0,0.0,0.0,0.0,0.0,0.0,0.0,0.0,-0.837,-0.8605,-0.8541,-0.8465,-0.8328,-0.8134,-0.7874,0.0,-0.8285,-0.8117,-0.8176,-0.9083,-0.903,-0.8971,-0.9365,-0.9514,0.0,0.0,0.0,0.0,0.0,0.0,0.0,0.0,0.0,0.0,0.0,0.0,0.0,-1.8891,-1.8875,-1.8869,-1.8869,-1.9642,-1.9971,-1.9786,-1.9779,-1.9632,-1.9279,-1.9279,-1.9279,-1.9279,-1.9279,-1.9279,0.0,-1.9279,-1.9279,-1.9279,-1.9279,-1.9272,-1.922,-1.9279,-1.9272,-1.922,-1.9279,-1.9279,-1.9279,0.0,0.0,0.0,0.0,0.0,0.0,0.0,0.0,0.0,0.0,-0.0045,0.0,-0.0017,-0.0017,0.0,0.0,0.0,0.0,0.0,0.0,0.0,0.0,0.0,0.0,0.0,0.0,0.0,-0.2607,-0.2634,-0.2808,-0.3142,-0.3411,0.0,0.0,0.0,0.0,0.0,0.0,0.0,0.0,-0.3627,-0.3639,0.0,0.0,0.0,0.0,-0.3614,-0.3865,0.0,0.0,0.0,0.0,0.0,0.0,0.0,0.0,-0.4574,-0.4929,-0.5136,0.0,-0.6861,-0.616,-0.6128,-0.6389,0.0,-0.6786,-0.7008,0.0,0.0,-0.8429,-0.9589,-0.9514,-0.9743,-1.1253,-1.1377,0.0,0.0,0.0,0.0,0.0,0.0,0.0,0.0,0.0,0.0,0.0,0.0,-1.8632,-1.8877,-1.865,-1.8534,-1.8534,-1.8728,-1.9034,-1.9389,-1.9441,-1.9404,-1.9279,-1.9279,-1.9279,-1.9279,-1.9279,-1.9279,-1.9279,-1.9279,-1.9279,-1.9279,-1.9279,-1.9011,-1.8632,-1.9116,-1.9011,-1.8691,-1.9116,-1.9279,-1.9279,0.0,0.0,0.0,0.0,0.0,0.0,0.0,0.0,0.0,0.0,0.0,-0.0015,-0.005,-0.0017,0.0,0.0,0.0,0.0,0.0,0.0,0.0,0.0,0.0,0.0,0.0,0.0,0.0,0.0,0.0,-0.2368,0.0,0.0,0.0,0.0,0.0,0.0,0.0,0.0,0.0,-0.3516,-0.357,0.0,0.0,0.0,0.0,0.0,-0.3604,-0.3773,0.0,-0.3836,-0.4093,-0.4431,0.0,0.0,0.0,0.0,-0.4119,-0.4122,-0.4101,-0.4971,-0.5744,-0.5254,-0.5326,-0.561,-0.5961,0.0,0.0,0.0,0.0,0.0,-0.9232,-0.9559,0.0,-1.1426,-1.1777,0.0,0.0,0.0,0.0,0.0,0.0,0.0,0.0,0.0,0.0,0.0,0.0,-1.829,-1.8461,-1.8333,-1.822,-1.822,-1.8318,-1.8586,-1.89,-1.89,-1.89,-1.89,-1.89,-1.8803,-1.8698,-1.8855,-1.8803,-1.8698,-1.8848,-1.89,-1.89,-1.89,-1.8639,-1.8272,-1.8593,-1.8586,-1.8422,-1.8795,-1.9063,-1.9279,0.0,0.0,0.0,0.0,0.0,0.0,0.0,0.0,0.0,0.0,0.0,0.0,0.0,0.0,0.0,0.0,0.0,0.0,0.0,0.0,0.0,0.0,0.0,0.0,0.0,0.0,0.0,0.0,0.0,0.0,0.0,0.0,-0.2859,0.0,0.0,0.0,0.0,0.0,0.0,-0.3353,-0.3527,0.0,0.0,0.0,0.0,0.0,0.0,0.0,0.0,-0.3917,-0.4058,-0.4184,-0.4117,0.0,0.0,0.0,0.0,0.0,-0.3954,-0.4509,-0.5077,-0.514,-0.5297,-0.5501,-0.5608,0.0,0.0,0.0,0.0,0.0,0.0,0.0,0.0,0.0,0.0,0.0,0.0,0.0,0.0,0.0,0.0,0.0,0.0,0.0,0.0,0.0,0.0,-1.7876,-1.7916,-1.7948,-1.7964,-1.7964,-1.8167,-1.8265,-1.8265,-1.837,-1.8422,-1.8422,-1.8422,-1.8272,-1.8069,-1.8325,-1.8272,-1.8069,0.0,0.0,-1.8422,-1.8422,-1.822,-1.7964,-1.8069,-1.822,-1.837,-1.8527,-1.89,-1.9279,0.0,0.0,0.0,0.0,0.0,0.0,0.0,0.0,0.0,0.0,0.0,0.0,0.0,0.0,0.0,0.0,0.0,0.0,0.0,0.0,0.0,0.0,0.0,0.0,0.0,0.0,0.0,0.0,0.0,0.0,-0.1205,-0.17,-0.2362,-0.3139,0.0,0.0,0.0,0.0,0.0,-0.3548,-0.3593,0.0,0.0,0.0,0.0,0.0,0.0,0.0,0.0,-0.3703,-0.3893,-0.413,-0.3802,0.0,0.0,0.0,0.0,0.0,-0.3932,-0.4402,-0.4851,-0.4935,-0.5341,-0.5751,-0.5763,0.0,0.0,0.0,0.0,0.0,0.0,0.0,0.0,0.0,0.0,0.0,0.0,0.0,0.0,0.0,0.0,0.0,0.0,0.0,0.0,0.0,0.0,-1.7395,-1.7642,-1.7661,-1.7635,-1.7635,-1.7687,-1.774,-1.774,-1.816,-1.8422,-1.8422,-1.8422,-1.837,-1.8318,-1.837,-1.837,-1.8318,0.0,-1.8422,-1.8422,-1.8422,-1.8108,-1.774,-1.8496,-1.8443,-1.8174,-1.9153,-1.9428,-1.9279,0.0,0.0,0.0,0.0,0.0,0.0,0.0,0.0,0.0,0.0,0.0,0.0,0.0,0.0,0.0,0.0,0.0,0.0,0.0,0.0,0.0,0.0,0.0,0.0,0.0,0.0,0.0,0.0,0.0,-0.0891,-0.0922,-0.152,-0.1945,-0.2265,0.0,0.0,0.0,0.0,-0.3604,-0.3604,0.0,0.0,0.0,0.0,0.0,0.0,0.0,0.0,0.0,0.0,-0.3887,-0.4048,-0.3785,0.0,0.0,0.0,0.0,0.0,-0.3741,-0.4158,-0.4576,-0.4827,-0.5381,-0.5939,-0.6228,0.0,0.0,0.0,0.0,0.0,0.0,0.0,0.0,0.0,0.0,0.0,0.0,0.0,0.0,0.0,0.0,0.0,0.0,0.0,0.0,0.0,0.0,0.0,-1.7575,-1.7582,-1.7508,-1.7407,-1.7502,-1.7508,-1.7407,-1.7764,-1.795,-1.795,-1.795,-1.7898,-1.7747,-1.7905,-1.7898,-1.7747,0.0,-1.795,-1.795,-1.795,-1.7747,-1.7437,-1.7806,-1.7911,-1.7905,-1.9056,-1.948,-1.9502,0.0,0.0,0.0,0.0,0.0,0.0,0.0,0.0,0.0,0.0,0.0,0.0,0.0,0.0,0.0,0.0,0.0,0.0,0.0,0.0,0.0,0.0,0.0,0.0,0.0,0.0,-0.072,-0.0887,-0.0909,-0.0927,-0.0913,-0.1366,-0.1566,0.0,0.0,0.0,0.0,-0.3103,-0.3331,-0.3442,0.0,0.0,0.0,0.0,0.0,0.0,0.0,0.0,0.0,0.0,0.0,0.0,0.0,0.0,0.0,-0.3748,-0.3566,-0.3485,-0.3694,-0.4006,-0.4407,-0.4828,0.0,-0.6009,-0.6736,0.0,0.0,0.0,0.0,0.0,0.0,0.0,0.0,0.0,0.0,0.0,0.0,0.0,0.0,0.0,0.0,0.0,0.0,0.0,0.0,0.0,0.0,0.0,-1.7575,-1.7515,-1.746,-1.7306,-1.7454,-1.746,-1.7306,-1.746,-1.7515,-1.7582,-1.7582,-1.7483,-1.7279,-1.7536,-1.7443,-1.7233,-1.7429,-1.7442,-1.7375,-1.7375,-1.7277,-1.7075,-1.7127,-1.7388,-1.7791,-1.8581,-1.9096,-1.9257,0.0,0.0,0.0,0.0,0.0,0.0,0.0,0.0,0.0,0.0,0.0,0.0,0.0,0.0,0.0,0.0,0.0,0.0,0.0,0.0,0.0,0.0,0.0,0.0,0.0,-0.062,-0.0767,-0.0909,-0.0969,-0.0969,-0.0913,-0.094,-0.1163,-0.1511,0.0,0.0,0.0,0.0,-0.2499,-0.2943,-0.2943,0.0,0.0,0.0,0.0,0.0,0.0,0.0,0.0,0.0,0.0,0.0,0.0,0.0,-0.3991,-0.3971,-0.3797,-0.3679,-0.4048,-0.4216,-0.4407,-0.4865,-0.532,0.0,-0.7152,-0.7132,0.0,0.0,0.0,0.0,0.0,0.0,0.0,0.0,0.0,0.0,0.0,0.0,0.0,0.0,0.0,0.0,0.0,0.0,0.0,0.0,0.0,0.0,-1.7555,-1.738,-1.7347,-1.7542,-1.7367,-1.7353,-1.7549,-1.7353,-1.7367,-1.7582,-1.7582,-1.7582,-1.7582,-1.7582,-1.7435,-1.7181,-1.7233,-1.7072,-1.6767,-1.6767,-1.6767,-1.6774,-1.7032,-1.7475,-1.7967,-1.7782,-1.7875,-1.8067,0.0,0.0,0.0,0.0,0.0,0.0,0.0,0.0,0.0,0.0,0.0,0.0,0.0,0.0,0.0,0.0,0.0,0.0,0.0,0.0,0.0,0.0,0.0,-0.0545,-0.056,-0.0724,-0.0843,-0.0909,-0.0914,-0.0915,-0.0914,-0.0911,0.0,0.0,0.0,0.0,0.0,0.0,0.0,-0.2889,-0.2906,-0.317,0.0,0.0,0.0,0.0,0.0,0.0,0.0,0.0,-0.3639,-0.3785,-0.3754,-0.3873,-0.3977,-0.3907,-0.3815,-0.3751,-0.391,-0.4371,-0.4836,-0.4976,0.0,0.0,0.0,0.0,0.0,0.0,0.0,0.0,0.0,0.0,0.0,0.0,0.0,0.0,0.0,0.0,0.0,0.0,0.0,0.0,0.0,0.0,0.0,0.0,0.0,0.0,-1.7027,-1.6934,-1.684,-1.6774,-1.6834,-1.684,-1.6767,-1.684,-1.6927,-1.7041,-1.7408,-1.7582,-1.7582,-1.7582,-1.7474,-1.7199,-1.7199,-1.7032,-1.6707,-1.6707,-1.6707,-1.6707,-1.6807,-1.7107,-1.7463,-1.7505,-1.7704,-1.8002,0.0,0.0,0.0,0.0,0.0,0.0,0.0,0.0,0.0,0.0,0.0,0.0,0.0,0.0,0.0,0.0,0.0,0.0,0.0,0.0,0.0,0.0,0.0,-0.0577,-0.0562,-0.0757,-0.089,-0.0914,-0.0895,-0.0889,-0.0897,0.0,0.0,0.0,0.0,0.0,0.0,0.0,0.0,0.0,-0.2587,-0.2946,0.0,0.0,0.0,0.0,0.0,0.0,0.0,0.0,-0.3558,-0.3747,-0.3721,-0.3826,-0.3938,-0.388,-0.3897,-0.3934,-0.3934,-0.4438,-0.4995,0.0,0.0,0.0,0.0,0.0,0.0,0.0,0.0,0.0,0.0,0.0,0.0,0.0,0.0,0.0,0.0,0.0,0.0,0.0,0.0,0.0,0.0,0.0,0.0,0.0,0.0,0.0,0.0,-1.662,-1.652,-1.6413,-1.6513,-1.652,-1.6413,-1.6513,-1.6613,-1.6707,-1.7114,-1.7355,-1.7494,-1.7348,-1.7194,-1.7058,-1.6965,-1.6707,-1.6426,-1.6426,-1.6426,-1.6426,-1.6426,-1.6531,-1.6735,-1.6924,-1.7114,-1.7309,0.0,0.0,0.0,0.0,0.0,0.0,0.0,0.0,0.0,0.0,0.0,0.0,0.0,0.0,0.0,0.0,0.0,0.0,0.0,0.0,0.0,0.0,0.0,-0.0493,-0.0493,-0.0704,-0.0821,-0.0905,-0.091,-0.0897,-0.0896,-0.0893,0.0,0.0,0.0,0.0,0.0,0.0,0.0,0.0,-0.1933,-0.2433,-0.2943,0.0,0.0,0.0,0.0,0.0,0.0,0.0,-0.36,-0.3655,-0.3924,-0.3914,-0.3826,-0.395,-0.4102,-0.4197,-0.4194,-0.4436,0.0,0.0,0.0,0.0,0.0,0.0,0.0,0.0,0.0,0.0,0.0,0.0,0.0,0.0,0.0,0.0,0.0,0.0,0.0,0.0,0.0,0.0,0.0,0.0,0.0,0.0,0.0,0.0,0.0,-1.6426,-1.64,-1.6687,-1.642,-1.6406,-1.6693,-1.6413,-1.6413,-1.6643,-1.6643,-1.6854,-1.7186,-1.684,-1.6707,-1.6687,-1.64,-1.6106,-1.5784,-1.5784,-1.5784,-1.5784,-1.5784,-1.5784,-1.5784,-1.5784,-1.5784,-1.5784,0.0,0.0,0.0,0.0,0.0,0.0,0.0,0.0,0.0,0.0,0.0,0.0,0.0,0.0,0.0,0.0,0.0,0.0,0.0,0.0,0.0,0.0,0.0,0.0,0.0,0.0,-0.0827,-0.0905,-0.0888,-0.0881,0.0,0.0,0.0,-0.0819,0.0,0.0,0.0,0.0,0.0,0.0,-0.2228,-0.2545,-0.2932,0.0,0.0,0.0,0.0,0.0,0.0,0.0,0.0,0.0,-0.3706,-0.3894,-0.4055,-0.391,-0.4114,-0.4355,-0.4119,-0.4763,0.0,0.0,0.0,0.0,0.0,0.0,0.0,0.0,0.0,0.0,0.0,0.0,0.0,0.0,0.0,0.0,0.0,0.0,0.0,0.0,0.0,0.0,0.0,0.0,0.0,0.0,0.0,0.0,0.0,-1.6005,-1.5999,-1.6037,-1.6005,-1.6005,-1.6086,-1.6005,-1.556,-1.4746,-1.4746,-1.5492,-1.6834,-1.6747,-1.6593,-1.6393,-1.6306,-1.6106,-1.5784,-1.5784,-1.5784,-1.5784,-1.5784,-1.5784,-1.5784,-1.5784,-1.5784,-1.5811,0.0,0.0,0.0,0.0,0.0,0.0,0.0,0.0,0.0,0.0,0.0,0.0,0.0,0.0,0.0,0.0,0.0,0.0,0.0,0.0,0.0,0.0,0.0,0.0,0.0,-0.0718,-0.0818,0.0,0.0,0.0,0.0,0.0,0.0,-0.0658,0.0,-0.0757,0.0,0.0,0.0,0.0,-0.1939,-0.2154,-0.2363,0.0,0.0,0.0,0.0,0.0,0.0,0.0,0.0,0.0,-0.3604,-0.3765,-0.3944,-0.39,-0.4184,-0.4477,-0.4392,0.0,0.0,0.0,0.0,0.0,0.0,0.0,0.0,0.0,0.0,0.0,0.0,0.0,0.0,0.0,0.0,0.0,0.0,0.0,0.0,0.0,0.0,0.0,0.0,0.0,0.0,0.0,0.0,0.0,0.0,-1.5588,-1.5635,-1.5207,-1.5207,-1.501,-1.4567,-1.4567,-1.413,-1.3253,-1.3253,-1.38,-1.48,-1.535,-1.5872,-1.6315,-1.6146,-1.5999,-1.5784,-1.5784,-1.5784,-1.5784,-1.5784,-1.5784,-1.5784,-1.5784,-1.5784,-1.5804,0.0,0.0,-0.0503,-0.0498,0.0,0.0,0.0,0.0,0.0,0.0,0.0,-0.0101,0.0,0.0,0.0,-0.0118,0.0,0.0,0.0,0.0,0.0,0.0,0.0,0.0,0.0,0.0,0.0,0.0,0.0,0.0,0.0,0.0,-0.0703,-0.0421,0.0,-0.0657,0.0,0.0,0.0,0.0,-0.1351,-0.1497,-0.1539,-0.1962,0.0,0.0,0.0,0.0,0.0,0.0,0.0,0.0,-0.3604,-0.3621,-0.3689,-0.391,-0.4219,-0.4566,-0.4789,0.0,0.0,0.0,0.0,0.0,0.0,0.0,0.0,0.0,0.0,0.0,0.0,0.0,0.0,0.0,0.0,0.0,0.0,0.0,0.0,0.0,0.0,0.0,0.0,0.0,0.0,0.0,0.0,0.0,0.0,-1.4988,-1.5029,-1.413,-1.413,-1.364,-1.2667,-1.2684,-1.2501,-1.2162,-1.2134,-1.2047,-1.1848,-1.3151,-1.4546,-1.5921,-1.5604,-1.5445,-1.5486,-1.5439,-1.5439,-1.5445,-1.5588,-1.5635,-1.5635,-1.5778,-1.5784,-1.5784,0.0,0.0,-0.05,-0.0499,0.0,0.0,0.0,0.0,-0.0182,-0.0369,-0.0219,-0.0134,-0.0252,-0.0168,0.0,-0.0252,-0.0286,0.0,0.0,0.0,0.0,0.0,0.0,0.0,0.0,0.0,0.0,0.0,0.0,0.0,0.0,0.0,0.0,-0.0392,0.0,-0.0264,0.0,0.0,0.0,-0.129,-0.1558,-0.1566,-0.143,-0.1588,-0.1305,0.0,0.0,0.0,0.0,0.0,0.0,0.0,-0.3604,-0.3737,-0.389,-0.3724,-0.416,-0.4606,0.0,0.0,0.0,0.0,0.0,0.0,0.0,0.0,0.0,0.0,0.0,0.0,0.0,0.0,0.0,0.0,0.0,0.0,0.0,0.0,0.0,0.0,0.0,0.0,0.0,0.0,0.0,0.0,0.0,0.0,-1.2646,-1.2876,-1.2876,-1.2646,-1.2646,-1.2553,-1.2316,-1.2449,-1.1978,-1.0891,-1.1046,-1.1072,-1.1072,-1.1945,-1.2651,-1.3143,-1.2845,-1.2866,-1.3017,-1.2818,-1.2721,-1.2818,-1.3884,-1.4316,-1.4411,-1.5439,-1.5784,-1.5784,0.0,0.0,0.0,0.0,0.0,0.0,0.0,0.0,-0.0168,-0.0336,-0.0269,-0.0219,-0.0286,-0.0235,0.0,0.0,-0.0319,-0.0336,0.0,0.0,0.0,0.0,0.0,0.0,0.0,0.0,0.0,0.0,0.0,0.0,0.0,0.0,0.0,-0.0196,0.0,-0.0052,0.0,0.0,-0.0684,-0.1111,-0.123,-0.1165,-0.1032,-0.1055,-0.082,-0.0509,-0.1016,0.0,0.0,0.0,0.0,0.0,0.0,0.0,-0.3805,-0.3795,-0.4117,-0.4466,0.0,0.0,0.0,0.0,0.0,0.0,0.0,0.0,0.0,0.0,0.0,0.0,0.0,0.0,0.0,0.0,0.0,0.0,0.0,0.0,0.0,0.0,0.0,0.0,0.0,0.0,0.0,0.0,0.0,-1.138,-1.1202,-1.1851,-1.1981,-1.1426,-1.1426,-1.1201,-1.0704,-1.0809,-1.0439,-0.9643,-0.983,-0.9871,-0.9826,-1.1512,-1.2339,-1.2484,-1.2193,-1.2193,-1.229,-1.1994,-1.1896,-1.1945,-1.2673,-1.2958,-1.3011,-1.3692,-1.4322,-1.4902,0.0,0.0,0.0,0.0,0.0,0.0,0.0,0.0,0.0,-0.0252,-0.0269,-0.0269,-0.0303,-0.0303,-0.0319,0.0,0.0,0.0,-0.0487,0.0,0.0,0.0,0.0,0.0,0.0,0.0,0.0,0.0,0.0,0.0,0.0,0.0,0.0,0.0028,0.0,0.0,0.0,0.0,-0.0471,-0.0748,-0.0744,-0.0658,-0.0571,-0.0545,-0.0457,-0.0407,-0.0812,-0.1076,-0.1391,-0.2277,0.0,0.0,0.0,0.0,-0.3651,-0.3873,-0.4045,-0.4237,0.0,0.0,0.0,0.0,0.0,0.0,0.0,0.0,0.0,0.0,0.0,0.0,0.0,0.0,0.0,0.0,0.0,0.0,0.0,0.0,0.0,0.0,0.0,0.0,0.0,0.0,0.0,0.0,0.0,-0.9928,-0.9655,-1.0793,-1.1049,-1.0177,-1.0237,-0.9861,-0.9007,-0.9035,-0.8955,-0.8714,-0.8969,-0.8943,-0.8829,-1.1148,-1.2129,-1.2045,-1.1789,-1.1707,-1.1755,-1.1463,-1.1361,-1.1409,-1.1604,-1.1702,-1.1653,-1.1896,-1.2673,-1.3638,0.0,0.0,0.0,0.0,0.0,0.0,0.0,0.0,0.0,0.0,-0.0134,-0.0168,-0.0286,-0.0303,-0.0319,-0.0387,-0.0387,-0.042,0.0,0.0,0.0,0.0,0.0,0.0,0.0,0.0,0.0,0.0,0.0,0.0,0.0,0.0,0.0,0.0196,0.0,0.0,0.0,0.0,-0.0133,-0.0534,-0.0472,-0.0443,-0.0418,-0.0306,-0.0242,-0.0239,-0.0294,-0.0664,-0.1231,-0.1879,-0.2454,0.0,0.0,0.0,0.0,-0.3651,-0.3832,0.0,0.0,0.0,0.0,0.0,0.0,0.0,0.0,0.0,0.0,0.0,0.0,0.0,0.0,0.0,0.0,0.0,0.0,0.0,0.0,0.0,0.0,0.0,0.0,0.0,0.0,0.0,0.0,0.0,-0.7802,-0.7882,-0.7856,-0.831,-0.8493,-0.8356,-0.8666,-0.8814,-0.8682,-0.8783,-0.8811,-0.8811,-0.9146,-0.9389,-0.9493,-0.9858,-0.9828,-0.9493,-0.9351,-0.9418,-0.9575,-0.9316,-0.9213,-0.9312,-1.0485,-1.0779,-1.073,-1.1853,-1.2339,-1.2624,0.0,0.0,0.0,0.0,0.0,0.0,0.0,0.0,0.0,0.0,0.0,-0.0168,-0.0336,-0.0319,-0.037,-0.0555,-0.0471,0.0,0.0,0.0,0.0,0.0,0.0,0.0,0.0,0.0,0.0,0.0,0.0,0.0,0.0,0.013,0.0189,0.0,0.0,0.0,0.0,0.0,-0.0269,-0.0505,-0.0474,-0.0684,-0.0964,-0.0418,-0.0452,-0.0743,-0.027,-0.0349,-0.0785,-0.1321,-0.1922,-0.2544,-0.3059,0.0,0.0,0.0,0.0,0.0,0.0,0.0,0.0,0.0,0.0,0.0,0.0,0.0,0.0,0.0,0.0,0.0,0.0,0.0,0.0,0.0,0.0,0.0,0.0,0.0,0.0,0.0,0.0,0.0,0.0,0.0,0.0,0.0,-0.726,-0.7398,-0.7241,-0.7533,-0.7731,-0.7731,-0.7894,-0.8091,-0.8267,-0.8336,-0.8558,-0.8974,-0.9031,-0.9202,-0.9474,-0.9474,-0.9385,-0.922,-0.9105,-0.9026,-0.9096,-0.8886,-0.8825,-0.8874,-0.946,-0.9608,-0.9558,-1.0145,-1.0828,-1.1609,0.0,0.0,0.0,0.0,0.0,0.0,0.0,0.0,0.0,0.0,0.0,-0.0219,-0.0387,0.0,0.0,0.0,-0.0521,0.0,0.0,0.0,0.0,0.0,0.0,0.0,0.0,0.0,0.0,0.0,0.0,0.0,0.0525,0.0427,0.0518,0.0,0.0482,0.0,0.0,0.0,0.0,-0.0522,-0.0495,-0.0894,-0.1422,-0.0802,-0.1021,-0.154,-0.065,-0.0501,-0.0762,-0.0984,-0.1427,-0.2006,-0.2466,0.0,0.0,0.0,0.0,0.0,0.0,0.0,0.0,0.0,0.0,0.0,0.0,0.0,0.0,0.0,0.0,0.0,0.0,0.0,0.0,0.0,0.0,0.0,0.0,0.0,0.0,0.0,0.0,0.0,0.0,0.0,0.0,0.0,-0.702,-0.7219,-0.6939,-0.7291,-0.7446,-0.7446,-0.7549,-0.7703,-0.7952,-0.8039,-0.8394,-0.9023,-0.8934,-0.9051,-0.9404,-0.9404,-0.938,-0.9299,-0.9287,-0.9217,-0.9142,-0.9026,-0.8985,-0.9023,-0.9023,-0.8973,-0.8928,-0.8928,-0.9513,-1.0542,0.0,0.0,0.0,0.0,0.0,0.0,0.0,0.0,0.0,0.0,0.0,-0.0319,-0.0387,-0.0403,-0.0504,-0.0773,-0.0555,0.0,0.0,0.0,0.0,0.0,0.0,0.0,0.0,0.0,0.0,0.0,0.0,0.0,0.0882,0.0854,0.0984,0.1154,0.0485,0.0149,0.0,0.0,0.0,-0.0592,-0.0455,-0.0851,-0.1513,-0.1522,-0.1985,-0.2513,-0.1571,-0.1407,0.0,0.0,0.0,-0.1489,-0.1764,-0.1948,-0.2135,0.0,0.0,0.0,0.0,0.0,0.0,0.0,0.0,0.0,0.0,0.0,0.0,0.0,0.0,0.0,0.0,0.0,0.0,0.0,0.0,0.0,0.0,0.0,0.0,0.0,0.0,0.0,0.0,0.0,0.0,0.0,-0.6876,-0.6844,-0.6806,-0.7138,-0.7289,-0.7289,-0.7692,-0.7878,-0.7911,-0.8084,-0.8387,-0.8836,-0.9003,-0.9177,-0.9404,-0.9404,-0.931,-0.912,-0.9295,-0.9462,-0.955,-0.9433,-0.9421,-0.9579,-0.9579,-0.9381,-0.9187,-0.9187,-0.9232,-0.943,0.0,0.0,0.0,0.0,0.0,0.0,0.0,0.0,0.0,0.0,0.0,0.0,0.0,-0.0538,-0.0639,-0.0723,-0.042,0.0,0.0,0.0,0.0,0.0,0.0,0.0,0.0,0.0,0.0,0.0,0.0,0.0438,0.0591,0.062,0.0701,0.0798,0.0343,0.0125,0.0094,-0.0415,0.0,-0.0667,-0.0609,-0.1022,-0.1685,-0.1623,-0.2101,-0.2777,-0.2351,0.0,0.0,0.0,0.0,-0.1481,-0.1529,-0.1661,-0.1867,-0.221,0.0,0.0,0.0,0.0,0.0,0.0,0.0,0.0,0.0,0.0,0.0,0.0,0.0,0.0,0.0,0.0,0.0,0.0,0.0,0.0,0.0,0.0,0.0,0.0,0.0,0.0,0.0,0.0,0.0,0.0,0.0,-0.6794,-0.6794,-0.6935,-0.7001,-0.7001,-0.7138,-0.7295,-0.7514,-0.8018,-0.8329,-0.8482,-0.8874,-0.9091,-0.916,-0.9333,-0.9294,-0.9092,-0.9035,-0.9047,-0.9112,-0.9169,-0.9295,-0.9453,-0.9453,-0.9474,-0.948,-0.948,-0.948,-0.9624,0.0,0.0,0.0,0.0,0.0,0.0,-0.0034,-0.0067,-0.0118,-0.0155,0.0,0.0,0.0,0.0,-0.0546,-0.0502,-0.0311,0.0,-0.0168,0.0,0.0,0.0,0.0,0.0,0.0,0.0,0.0,0.0,0.0,0.0,0.0,0.0556,0.0624,0.0695,0.0348,0.0181,0.0,0.0,0.0,-0.0773,0.0,-0.1253,-0.1906,-0.1828,-0.2292,-0.2958,0.0,0.0,0.0,0.0,0.0,0.0,-0.1164,-0.1249,-0.1501,-0.1723,-0.2316,0.0,0.0,0.0,0.0,0.0,0.0,0.0,0.0,0.0,0.0,0.0,0.0,0.0,0.0,0.0,0.0,0.0,0.0,0.0,0.0,0.0,0.0,0.0,0.0,0.0,0.0,0.0,0.0,0.0,0.0,0.0,-0.6822,-0.6822,-0.6841,-0.6888,-0.6888,-0.7073,-0.734,-0.7855,-0.8166,-0.8262,-0.8656,-0.8883,-0.8926,-0.9094,-0.9102,-0.8995,-0.8816,-0.8804,-0.8917,-0.8978,-0.9108,-0.9318,-0.9318,-0.938,-0.9535,-0.9535,-0.9575,-0.9723,0.0,0.0,0.0,0.0,0.0,-0.0017,-0.0084,-0.0203,-0.0344,-0.0472,0.0,0.0,0.0,0.0,0.0,-0.011,-0.0274,-0.0357,-0.0288,-0.0101,0.0,0.0,0.0,0.0,0.0,0.0,0.0,0.0,0.0,0.0,0.0,0.0,0.0834,0.0888,0.0546,0.024,-0.0029,0.0,-0.0967,-0.0917,0.0,-0.1419,-0.2091,0.0,-0.2612,0.0,-0.2319,-0.2078,0.0,-0.0987,0.0,0.0,-0.0686,-0.0684,-0.1009,-0.1008,-0.1431,0.0,0.0,0.0,0.0,0.0,0.0,0.0,0.0,0.0,0.0,0.0,0.0,0.0,0.0,0.0,0.0,0.0,0.0,0.0,0.0,0.0,0.0,0.0,0.0,0.0,0.0,0.0,0.0,0.0,-0.7088,-0.6879,-0.6879,-0.6879,-0.6943,-0.7085,-0.7095,-0.7231,-0.7507,-0.7618,-0.7833,-0.8071,-0.8434,-0.864,-0.866,-0.8695,-0.8698,-0.8767,-0.8645,-0.8775,-0.9037,-0.8847,-0.8922,-0.9088,-0.9088,-0.9194,-0.9396,-0.94,-0.947,-0.9571,-0.0017,0.0,0.0,0.0,0.0,0.0,-0.0019,-0.0057,-0.0095,0.0,0.0,0.0,-0.0374,-0.0324,-0.0288,-0.0243,-0.0118,-0.0038,-0.0018,0.0137,0.0219,0.0219,0.0185,0.0154,0.0,0.0,0.0,0.0,0.0,0.0,0.0,0.0,0.0,0.0,0.0295,0.0076,-0.0025,-0.0462,0.0,-0.0973,-0.0937,-0.1096,0.0,0.0,0.0,0.0,0.0,-0.2611,-0.2127,0.0,-0.1492,-0.1136,0.0,-0.0904,-0.1203,-0.1103,-0.1563,-0.2133,-0.2164,0.0,0.0,0.0,0.0,0.0,0.0,0.0,0.0,0.0,0.0,0.0,0.0,0.0,0.0,0.0,0.0,0.0,0.0,0.0,0.0,0.0,0.0,0.0,0.0,0.0,0.0,0.0,-0.6871,-0.6763,-0.6763,-0.6763,-0.6831,-0.694,-0.7045,-0.7143,-0.7231,-0.7598,-0.7779,-0.7726,-0.8179,-0.8291,-0.8146,-0.8272,-0.82,-0.7996,-0.7956,-0.8055,-0.8275,-0.8538,-0.8739,-0.8897,-0.8897,-0.9007,-0.9181,-0.9359,-0.9433,-0.9449,0.0,0.0,0.0,0.0,0.0,0.0,-0.0042,-0.0083,-0.0147,0.0,0.0,0.0,-0.0176,-0.0274,-0.0298,-0.0174,-0.0127,-0.006,0.0055,0.0124,0.0172,0.0168,0.0103,0.0053,0.0055,0.0,0.0,0.0,0.0,0.0,0.0,0.0,0.0,0.0,0.0345,0.0181,0.0023,-0.0157,0.0,0.0,-0.0966,0.0,0.0,-0.1598,-0.1795,0.0,0.0,0.0,-0.1775,-0.1831,-0.1446,0.0,0.0,-0.114,-0.1123,-0.1016,-0.129,-0.1679,-0.1772,0.0,0.0,0.0,0.0,0.0,0.0,-0.4371,0.0,0.0,0.0,0.0,0.0,0.0,0.0,0.0,0.0,0.0,0.0,0.0,0.0,0.0,0.0,0.0,0.0,-0.68,-0.6736,-0.6827,-0.6692,-0.6607,-0.6607,-0.6607,-0.6675,-0.6827,-0.6912,-0.6913,-0.6913,-0.7278,-0.7431,-0.7407,-0.7745,-0.787,-0.7816,-0.7948,-0.7919,-0.7769,-0.7769,-0.7824,-0.7942,-0.8205,-0.8442,-0.8601,-0.8534,-0.8609,-0.8788,-0.9128,-0.9208,-0.9186,0.0,0.0,0.0,0.0,0.0,-0.0022,-0.0091,-0.0182,-0.03,0.0,-0.0337,0.0,-0.0026,-0.0212,-0.0284,-0.007,-0.0274,-0.0301,-0.0057,-0.0037,-0.0036,0.0,0.0,0.0,0.0,0.0,0.0,0.0,0.0,0.0,0.0,0.0,0.0,0.0,0.0549,0.0416,0.011,0.0084,-0.028,-0.0878,-0.1013,-0.1086,0.0,0.0,-0.1298,-0.1314,-0.1287,-0.1255,-0.123,-0.1289,-0.1166,0.0,-0.1564,-0.1343,-0.0888,-0.0827,-0.085,0.0,-0.135,-0.1471,0.0,-0.2413,-0.2437,0.0,-0.3607,-0.3729,0.0,0.0,0.0,0.0,0.0,0.0,0.0,0.0,0.0,0.0,0.0,0.0,0.0,0.0,0.0,0.0,-0.6651,-0.6651,-0.6651,-0.6651,-0.6566,-0.6491,-0.6491,-0.6491,-0.6559,-0.6671,-0.6675,-0.6681,-0.6702,-0.6851,-0.695,-0.7075,-0.7272,-0.7479,-0.7612,-0.7612,-0.7683,-0.7794,-0.7794,-0.7805,-0.7816,-0.7801,-0.7997,-0.8227,-0.8105,-0.8091,-0.8195,-0.8668,-0.8773,-0.8749,-0.002,0.0,0.0,0.0,0.0,0.0,-0.0025,-0.0049,-0.0074,-0.01,-0.0077,0.0,0.0,-0.0057,-0.0138,-0.0297,-0.0374,-0.0369,-0.0326,-0.0331,-0.0222,0.0,0.0,0.0,0.0,0.0,0.0,0.0,0.0,0.0,0.0,0.0,0.0,0.0,0.0542,0.0472,0.0245,0.0024,-0.0263,-0.059,-0.0721,0.0,-0.1196,-0.1214,-0.1266,-0.129,-0.1302,-0.1295,-0.1274,-0.1312,-0.1221,-0.1161,0.0,-0.1117,-0.0956,-0.0897,-0.0933,-0.0985,-0.1012,-0.1035,-0.1149,-0.1686,-0.1836,0.0,-0.2648,-0.277,-0.2861,0.0,0.0,0.0,0.0,0.0,0.0,0.0,0.0,0.0,0.0,0.0,0.0,0.0,0.0,0.0,-0.6385,-0.6385,-0.6385,-0.6385,-0.6358,-0.634,-0.634,-0.634,-0.6409,-0.6552,-0.6555,-0.6576,-0.6698,-0.6851,-0.69,-0.6927,-0.7071,-0.7187,-0.7228,-0.7228,-0.7193,-0.7196,-0.7196,-0.726,-0.7306,-0.724,-0.7472,-0.7957,-0.7831,-0.7766,-0.7802,-0.7961,-0.8025,-0.8018,0.0,0.0,0.0,0.0,0.0,0.0,0.0,0.0,0.0,0.0,0.0,0.0,0.0,0.0,-0.0697,-0.0703,-0.079,-0.0709,-0.0429,-0.0402,-0.0282,-0.002,0.0,0.0,0.0,0.0,0.0,0.0,0.0,0.0,0.0,0.0,0.0,0.0,0.0438,0.0422,0.0203,0.0244,0.0,-0.0434,-0.077,0.0,-0.1238,-0.1268,-0.1285,-0.1348,-0.1348,-0.1339,-0.1357,-0.1322,-0.1286,0.0,-0.1127,-0.1099,-0.1085,0.0,-0.0915,-0.0895,-0.0947,-0.0754,-0.0633,-0.1054,0.0,0.0,0.0,-0.1839,-0.1945,-0.2447,0.0,0.0,0.0,0.0,0.0,0.0,0.0,0.0,0.0,0.0,0.0,0.0,0.0,0.0,-0.6139,-0.6146,-0.6176,-0.6293,-0.63,-0.63,-0.63,-0.63,-0.633,-0.6405,-0.6405,-0.6443,-0.6481,-0.6559,-0.663,-0.6702,-0.6851,-0.6916,-0.6994,-0.7065,-0.7094,-0.7033,-0.7033,-0.7073,-0.7132,-0.7063,-0.7214,-0.7514,-0.7535,-0.7506,-0.7495,-0.779,-0.775,-0.7569,0.0,0.0,0.0,0.0,0.0,0.0,0.0,0.0,0.0,0.0,0.0,0.0,0.0,0.0,0.0,0.0,-0.1238,-0.1078,-0.0582,-0.0511,-0.0354,-0.0021,0.0,0.0,0.0,0.0,0.0,0.0,0.0,0.0,0.0,0.0,0.0,0.0,0.0,0.0,0.0,0.0,0.0,-0.0214,0.0,-0.1031,-0.1286,-0.1313,-0.1329,-0.1375,-0.1386,-0.1423,-0.1393,-0.1338,-0.1305,-0.1289,-0.1158,-0.1147,0.0,0.0,0.0,-0.0847,0.0,0.0,-0.032,-0.058,0.0,-0.0354,0.0,0.0,0.0,-0.173,0.0,0.0,0.0,0.0,0.0,0.0,0.0,0.0,0.0,0.0,0.0,0.0,0.0,0.0,-0.5932,-0.5905,-0.6006,-0.6197,-0.6173,-0.6186,-0.6252,-0.6282,-0.63,-0.63,-0.63,-0.63,-0.63,-0.63,-0.6358,-0.6474,-0.6583,-0.6736,-0.6849,-0.6991,-0.7068,-0.7098,-0.7129,-0.7125,-0.7098,-0.7129,-0.7122,-0.7112,-0.7267,-0.726,-0.7222,-0.763,-0.7496,-0.7167,0.0,0.0,0.0,0.0,0.0,0.0,0.0,0.0,-0.0057,0.0,0.0,0.0,0.0,0.0,0.0,0.0,0.0,0.0,-0.1106,-0.0935,-0.0598,-0.0025,0.0,0.0,0.0,0.0,0.0,0.0,0.0,0.0,0.0,0.0,0.0094,0.0099,0.0426,0.0,0.0,0.0,0.0396,0.0,0.0,-0.0558,0.0,-0.1274,-0.1287,-0.1322,-0.1372,-0.1451,-0.1453,0.0,-0.1297,-0.1281,0.0,-0.12,-0.1201,-0.119,0.0,0.0,0.0,0.0,0.0,0.0,-0.0532,0.0,0.0,0.0,-0.0569,-0.0598,0.0,0.0,0.0,0.0,0.0,0.0,0.0,0.0,0.0,0.0,0.0,0.0,0.0,0.0,0.0,-0.5661,-0.5688,-0.584,-0.5752,-0.5775,-0.6013,-0.6186,-0.63,-0.63,-0.63,-0.63,-0.63,-0.63,-0.631,-0.6327,-0.647,-0.6576,-0.6732,-0.6881,-0.6977,-0.7102,-0.7285,-0.7265,-0.7105,-0.7288,-0.7265,-0.7112,-0.7044,-0.7021,-0.7004,-0.6939,-0.6888,-0.6841,0.0,0.0,0.0,0.0,0.0,0.0,0.0,0.0,-0.0129,0.0,0.0,0.0,0.0,0.0,0.0,0.0,0.0,-0.1319,0.0,0.0,0.0,-0.0295,-0.0099,0.0,0.0,0.0,0.0,0.0,0.0,0.0,0.0,0.0,-0.0021,-0.0115,0.0346,0.0,0.0264,0.0,0.0563,0.0,0.0,0.0,0.0,-0.084,-0.1158,-0.1407,-0.1459,-0.1481,-0.1489,0.0,-0.1339,0.0,0.0,0.0,0.0,-0.0936,0.0,0.0,0.0,0.0,0.0,0.0,0.0,0.0,-0.0182,0.0,-0.0117,0.0,0.0,0.0,0.0,0.0,0.0,0.0,0.0,0.0,0.0,0.0,0.0,0.0,0.0,0.0,0.0,0.0,0.0,0.0,-0.5261,-0.5278,-0.5979,-0.6091,-0.6169,-0.6296,-0.63,-0.63,-0.63,-0.63,-0.63,-0.6303,-0.6446,-0.6545,-0.6576,-0.6817,-0.6916,-0.698,-0.7173,-0.7251,-0.7272,-0.7248,-0.7251,-0.7272,-0.7113,-0.7062,-0.7068,-0.6992,-0.6878,-0.6791,0.0,0.0,0.0,0.0,0.0,0.0,0.0,0.0,-0.0169,-0.0646,0.0,0.0,-0.1947,-0.1965,0.0,0.0,-0.1551,-0.1261,0.0,0.0,-0.0396,-0.0351,-0.0136,0.0,0.0,0.0,0.0,0.0,0.0,0.0,0.0,0.0,0.0,-0.0199,0.0,0.0317,0.0128,0.0,0.0665,0.0314,0.0527,0.0433,0.0122,-0.0311,-0.0795,-0.1294,-0.1307,-0.127,-0.1283,-0.1137,-0.1034,0.0,-0.0576,-0.0721,-0.095,0.0,0.0,0.0,-0.0937,0.0,0.0,0.0,0.0,0.0,0.0,0.0,0.0,0.0,0.0,0.0,0.0,0.0,0.0,0.0,0.0,0.0,0.0,0.0,0.0,0.0,0.0,0.0,0.0,0.0,0.0,0.0,0.0,-0.4703,-0.5794,-0.5922,-0.6037,-0.6193,-0.6279,-0.63,-0.63,-0.63,-0.63,-0.6303,-0.6405,-0.6497,-0.6542,-0.6766,-0.6866,-0.695,-0.7095,-0.7268,-0.7412,-0.7295,-0.7333,-0.7417,-0.7265,-0.7204,-0.7156,-0.7112,-0.701,-0.6881,0.0,0.0,0.0,0.0,0.0,0.0,0.0,0.0,-0.0224,-0.0901,0.0,0.0,0.0,0.0,0.0,0.0,0.0,-0.0788,-0.0728,0.0,-0.034,-0.0032,0.0,0.0,0.0,0.0,0.0,0.0,0.0,0.0,0.0,0.0,0.0,0.0,0.0214,0.0291,0.0311,0.0451,0.053,0.0569,0.0608,0.0514,0.0397,0.0,-0.0233,-0.083,-0.0751,0.0,0.0,-0.067,-0.0264,0.0,0.0,0.0,0.0,0.0,0.0,0.0,0.0,0.0,0.0,-0.007,0.0,0.0,0.0,0.0,0.0,0.0,0.0,0.0,0.0,0.0,0.0,0.0,0.0,0.0,0.0,0.0,0.0,0.0,0.0,0.0,0.0,0.0,0.0,0.0,-0.3704,0.0,-0.5365,-0.5654,-0.5878,-0.5993,-0.6183,-0.63,-0.63,-0.63,-0.63,-0.63,-0.6306,-0.6457,-0.6695,-0.6705,-0.6865,-0.7098,-0.7295,-0.7412,-0.7429,-0.7526,-0.7587,-0.7577,-0.7424,-0.7409,-0.7346,-0.7149,-0.7095,-0.7095,0.0,0.0,0.0,0.0,0.0,0.0,0.0,0.0,-0.0183,0.0,-0.0694,0.0,0.0,-0.1372,-0.1202,0.0,0.0,-0.0707,-0.0555,-0.0317,0.0,-0.0341,-0.0102,0.0,0.0,0.0,0.0,0.0,0.0,0.0,0.0,0.0,0.0,0.0,0.0,0.0238,0.0,0.0,0.0,0.0,0.0,0.0748,0.089,0.0,-0.0097,-0.0249,-0.0243,-0.0245,0.0,-0.0188,0.0,0.014,0.0182,0.0,-0.0217,-0.0216,-0.0428,-0.0593,0.0,0.0,-0.049,-0.0261,0.0,0.0,0.0,0.0,0.0,0.0,0.0,0.0,0.0,0.0,0.0,0.0,0.0,0.0,0.0,0.0,0.0,0.0,0.0,0.0,0.0,0.0,0.0,0.0,-0.2401,0.0,0.0,-0.4862,-0.5355,-0.5986,-0.6179,-0.63,-0.63,-0.63,-0.63,-0.63,-0.63,-0.6354,-0.6457,-0.661,-0.6756,-0.6861,-0.7112,-0.7333,-0.7519,-0.7468,-0.7563,-0.7716,-0.7468,-0.7415,-0.7398,-0.7152,-0.7095,-0.7095,0.0,0.0,0.0,0.0,0.0,0.0,0.0,0.0,0.0,0.0,-0.0521,0.0,-0.1317,0.0,-0.0841,0.0,-0.0573,-0.0421,-0.0312,-0.0128,0.0,-0.033,-0.0115,0.0,0.0,0.0,0.0,0.0,0.0,0.0,0.0,0.0,0.0,0.0,0.0,0.0121,0.0,0.0226,0.0241,0.0,0.0,0.0662,0.0,0.0,0.0294,0.0247,0.0,0.0196,0.0299,0.0241,0.0385,0.0631,0.0671,0.0422,0.0137,0.0136,-0.0179,-0.0487,-0.0434,-0.0477,0.0,-0.024,-0.0192,0.0,-0.0033,0.0,0.0033,0.0,0.0,0.0,0.0,0.0,0.0,0.0,0.0,0.0,0.0,0.07,0.0,0.0,0.0,0.0,0.0,0.0,-0.1096,-0.1697,-0.1367,0.0,0.0,-0.3802,-0.4506,-0.5607,-0.5752,-0.6009,-0.6375,-0.6323,-0.63,-0.63,-0.63,-0.6327,-0.6381,-0.659,-0.6729,-0.6797,-0.6994,-0.727,-0.7594,-0.7492,-0.7628,-0.7865,-0.7567,-0.7451,-0.7428,-0.7173,-0.7095,-0.7095,0.0,0.0,0.0,0.0,0.0,0.0,0.0,0.0,-0.0157,0.0,-0.0667,-0.0876,-0.137,-0.0985,-0.0694,-0.0756,-0.0303,0.0,0.0,0.0,0.0,0.0,0.0,0.0,0.0,0.0,0.0,0.0,0.0,0.0,0.0,0.0,0.0,0.0,0.0,0.0,0.0,0.0,0.0,0.0,0.0288,0.0388,0.0428,0.0667,0.0761,0.0664,0.0466,0.057,0.0783,0.0528,0.0931,0.1516,0.1263,0.0986,0.0717,0.0478,0.0,-0.0323,-0.0091,-0.0183,-0.032,-0.0043,0.0,0.0,0.0,0.0,0.0074,0.0,0.0,0.0,0.0,0.0,0.0,0.0,0.0,0.0,0.0,0.0,0.0,0.0,0.0,0.0,0.0,0.0,-0.0104,-0.0581,-0.065,0.0,0.0,-0.2566,-0.3353,-0.4843,-0.4931,-0.5406,-0.6421,-0.6289,-0.6261,-0.63,-0.63,-0.6375,-0.6518,-0.663,-0.6783,-0.6893,-0.7034,-0.727,-0.76,-0.76,-0.7773,-0.7961,-0.7723,-0.76,-0.7553,-0.7206,-0.7095,-0.7095,0.0,0.0,0.0,0.0,0.0,0.0,0.0,0.0,0.0,0.0,-0.019,-0.0244,-0.0357,-0.0256,-0.0204,-0.0202,-0.0101,0.0,0.0,0.0,0.0,0.0,0.0,0.0,0.0,0.0,0.0,0.0,0.0,0.0,0.0,0.0,0.0,0.0,0.0,0.0,0.0,0.0,0.0,0.0,0.0096,0.024,0.042,0.0,0.06,0.0686,0.0703,0.0721,0.0785,0.0732,0.0842,0.096,0.0707,0.0552,0.0447,0.0196,0.0,-0.0096,0.0,-0.0047,-0.0094,0.0,0.0,0.0042,0.0,0.0,0.0,0.0,0.0,0.0,0.0,0.0,0.0,0.0,0.0,0.0,0.0,0.0,0.0,0.0734,0.0,0.0,0.0,0.0444,0.034,0.0415,0.0138,0.0,0.0,0.0,-0.2501,-0.3404,-0.383,-0.4464,-0.5361,-0.5332,-0.567,-0.63,-0.63,-0.6375,-0.6518,-0.663,-0.6783,-0.6893,-0.7034,-0.727,-0.76,-0.76,-0.7773,-0.7971,-0.7831,-0.7624,-0.7407,-0.7166,-0.7095,-0.7095,0.0,0.0,0.0,0.0,0.0,0.0,0.0,0.0,0.0,0.0,0.0,0.0,0.0,0.0,0.0,0.0,0.0,0.0,0.0,0.0,0.0,0.0,0.0,0.0,0.0,0.0,0.0,0.0,0.0,0.0,0.0,0.0,0.0,0.0,0.0,0.0,0.0,0.0,0.0,0.0,0.0,0.0095,0.0,0.0228,0.0317,0.0405,0.0415,0.0612,0.0766,0.067,0.0683,0.0798,0.0599,0.0502,0.0353,0.0199,0.0099,0.0,0.0,0.0,0.0,0.0,0.0,0.0092,0.0345,0.0383,0.0502,0.0,0.0745,0.0742,0.0,0.0,0.0,0.0,0.0,0.0,0.0,0.0,0.0,0.0,0.0485,0.0,0.0683,0.0507,0.0482,0.0782,0.0587,0.0,0.0,0.0,-0.1307,-0.2248,-0.2483,-0.3138,-0.4284,-0.4205,-0.4697,-0.5747,-0.5747,-0.6015,-0.6518,-0.663,-0.6783,-0.6893,-0.7034,-0.727,-0.76,-0.76,-0.7773,-0.7975,-0.7872,-0.7631,-0.7405,-0.7275,-0.7156,-0.7095,0.0,0.0,0.0,0.0,0.0,0.0,0.0,0.0,0.0,0.0,0.0,0.0,0.0,0.0,0.0,0.0,0.0,0.0,0.0,0.0,0.0,0.0,0.0,0.0,0.0,0.0,0.0,0.0,0.0,0.0,0.0,0.0,0.0,0.0,0.0,0.0,0.0,0.0,0.0,0.0,0.0,0.0,0.0,0.0,0.0,0.0,0.0,0.0319,0.0648,0.0416,0.0522,0.0685,0.0687,0.0546,0.0352,0.0353,0.0202,0.0,0.0,0.0,0.0,0.0,0.0,0.0099,0.0368,0.0452,0.0578,0.0961,0.0931,0.088,0.1218,0.0,0.0,0.0,0.0,0.0,0.0,0.0,0.0,0.0,0.0,0.0,0.0,0.0444,0.0462,0.0775,0.0779,0.0,0.0,0.0,-0.0102,-0.1191,-0.1102,-0.1697,-0.3115,-0.2994,-0.3525,-0.475,-0.4815,-0.539,-0.6384,-0.6473,-0.6667,-0.692,-0.7065,-0.7333,-0.76,-0.7617,-0.779,-0.7971,-0.7848,-0.7628,-0.7443,-0.7356,-0.7255,-0.7095,0.0,0.0,0.0,0.0,0.0,0.0,0.0,0.0,0.0,0.0,0.0,0.0,0.0,0.0,0.0,0.0,0.0,0.0,0.0,0.0,0.0,0.0,0.0,0.0,0.0,0.0,0.0,0.0,0.0,0.0,0.0,0.0,0.0,0.0,0.0,0.0,0.0,0.0,0.0,0.0,0.0,0.0,0.0,0.0,0.0,0.0,0.0,0.0046,0.0139,0.0093,0.0094,0.0144,0.0146,0.0098,0.0049,0.005,0.0051,0.0,0.0,0.0,0.0,0.0,0.0,0.01,0.0572,0.066,0.0792,0.1247,0.1301,0.1269,0.1311,0.0,0.0,0.0,0.0,0.0,0.0,0.0,0.0,0.0,0.0,0.0315,0.0,0.0494,0.0618,0.0798,0.0,0.0,0.0,0.0,0.0317,0.0,-0.0074,0.0,0.0,0.0,-0.2504,-0.3418,-0.3826,-0.4597,-0.5658,-0.5681,-0.6202,-0.7068,-0.7265,-0.7431,-0.7607,-0.7726,-0.7879,-0.7965,-0.7743,-0.7604,-0.7529,-0.7275,-0.7119,-0.7095,0.0,0.0,0.0,0.0,0.0,0.0,0.0,0.0,0.0,0.0,0.0,0.0,0.0,0.0,0.0,0.0,0.0,0.0,0.0,0.0,0.0,0.0,0.0,0.0,0.0,0.0,0.0,0.0,0.0,0.0,0.0,0.0,0.0,0.0,0.0,0.0,0.0,0.0,0.0,0.0,0.0,0.0,0.0,0.0,0.0,0.0,0.0,0.0,0.0,0.0,0.0,0.0,0.0,0.0,0.0,0.0,0.0,0.0,0.0,0.0,0.0,0.0,0.0,0.01,0.0577,0.0715,0.0849,0.1312,0.1379,0.1352,0.117,0.1006,0.0,0.0,0.0,0.0,0.0,0.0,0.0215,0.0,0.0,0.0,0.0,0.0,0.0,0.0,0.0,0.0,0.0,0.0,0.07,0.0,0.0,0.0,-0.0203,0.0,-0.1149,-0.2428,-0.2683,-0.3485,-0.4736,-0.4749,-0.5074,-0.5675,-0.634,-0.6707,-0.6948,-0.7641,-0.7924,-0.7975,-0.7833,-0.7736,-0.7584,-0.7434,-0.7233,-0.7095,0.0,0.0,0.0,0.0,0.0,0.0,0.0,0.0,0.0,0.0,0.0,0.0,0.0,0.0,0.0,0.0,0.0,0.0,0.0,0.0,0.0,0.0,0.0,0.0,0.0,0.0,0.0,0.0,0.0,0.0,0.0,0.0,0.0,0.0,0.0,0.0,0.0,0.0,0.0,0.0,0.0,0.0,0.0,0.0,0.0,0.0,0.0,0.0,0.0,0.0,0.0,0.0,0.0,0.0,0.0,0.0,0.0,0.0,0.0,0.0,0.0,0.0,0.0,0.01,0.0532,0.0621,0.0755,0.1183,0.1256,0.1188,0.097,0.0952,0.0,0.0,0.0,0.0,0.0,0.0,0.0,0.0,0.0,0.0,0.0156,0.0,0.0,0.0,0.0,0.0,0.0763,0.0,0.0,0.0,0.0,0.1083,0.0848,0.0,0.0,-0.1439,-0.1588,-0.2386,-0.3762,-0.3785,-0.3989,-0.4338,-0.5225,-0.573,-0.5971,-0.7199,-0.7637,-0.7686,-0.7905,-0.7831,-0.7597,-0.7563,-0.7377,-0.7102,0.0,0.0,0.0,0.0,0.0,0.0,0.0,0.0,0.0,0.0,0.0,0.0,0.0,0.0,0.0,0.0,0.0,0.0,0.0,0.0,0.0,0.0,0.0,0.0,0.0,0.0,0.0,0.0,0.0,0.0,0.0,0.0,0.0,0.0,0.0,0.0,0.0,0.0,0.0,0.0,0.0,0.0,0.0,0.0,0.0,0.0,0.0,0.0,0.0,0.0,0.0,0.0,0.0,0.0,0.0,0.0,0.0,0.0,0.0,0.0,0.0,0.0,0.0,0.005,0.0344,0.0435,0.0474,0.0741,0.0762,0.0732,0.0659,0.0503,0.0373,0.0,0.0,0.0,0.0,0.0,0.0128,0.0031,0.0,0.0,0.0,0.0128,0.0,0.0,0.04,0.0,0.0711,0.0,0.0,0.1001,0.1151,0.1228,0.1261,0.0865,0.0425,-0.0172,-0.0622,-0.1538,-0.2897,-0.2904,-0.3421,-0.4297,-0.4612,-0.4789,-0.4999,-0.6124,-0.6537,-0.6625,-0.7495,-0.7736,-0.7584,-0.7444,-0.7285,-0.7115,0.0,0.0,0.0,0.0,0.0,0.0,0.0,0.0,0.0,0.0,0.0,0.0,0.0,0.0,0.0,0.0,0.0,0.0,0.0,0.0,0.0,0.0,0.0,0.0,0.0,0.0,0.0,0.0,0.0,0.0,0.0,0.0,0.0,0.0,0.0,0.0,0.0,0.0,0.0,0.0,0.0,0.0,0.0,0.0,0.0,0.0,0.0,0.0,0.0,0.0,0.0,0.0,0.0,0.0,0.0,0.0,0.0,0.0,0.0,0.0,0.0,0.0,0.0,0.005,0.0345,0.0387,0.0474,0.065,0.0717,0.0649,0.051,0.0463,0.0416,0.0163,0.0,0.0,0.0,0.0,0.0,0.0,0.0,0.0057,0.0,0.0,0.0,0.0,0.0,0.0375,0.0513,0.0684,0.0,0.0878,0.0,0.1111,0.1296,0.1002,0.0733,0.0477,-0.0043,-0.0726,-0.1563,-0.1847,-0.2567,-0.3577,-0.3728,-0.4172,-0.4824,-0.5277,-0.5427,-0.5468,-0.5853,-0.5939,-0.5779,-0.5709,-0.591,-0.6272,0.061,0.0,0.0,0.0,0.0,0.0,0.0,0.0,0.0,0.0,0.0,0.0,0.0,0.0,0.0,0.0,0.0,0.0,0.0,0.0,0.0,0.0,0.0,0.0,0.0,0.0,0.0,0.0,0.0,0.0,0.0,0.0,0.0,0.0,0.0,0.0,0.0,0.0,0.0,0.0,0.0,0.0,0.0,0.0,0.0,0.0,0.0,0.0,0.0,0.0,0.0,0.0,0.0,0.0,0.0,0.0,0.0,0.0,0.0,0.0,0.0,0.0,0.0,0.005,0.0247,0.029,0.033,0.0454,0.0489,0.0438,0.0302,0.034,0.0336,0.0042,0.0,0.0,0.0,0.0,0.0,0.0,0.0,0.0,0.0,0.0,0.0,0.0,0.0,0.0199,0.0375,0.0512,0.0,0.0,0.0,0.0,0.1178,0.1053,0.0916,0.0745,0.0392,-0.0131,-0.0702,-0.1031,-0.1659,-0.2428,-0.2477,-0.2919,-0.3671,-0.3972,-0.4071,-0.4114,-0.4428,-0.4588,-0.4598,-0.4505,-0.4749,-0.5063,0.2002,0.0919,0.0,0.0,0.0,0.0,0.0,0.0,0.0,0.0,0.0,0.0,0.0,0.0,0.0,0.0,0.0,0.0,0.0,0.0,0.0,0.0,0.0,0.0,0.0,0.0,0.0,0.0,0.0,0.0,0.0,0.0,0.0,0.0,0.0,0.0,0.0,0.0,0.0,0.0,0.0,0.0,0.0,0.0,0.0,0.0,0.0,0.0,0.0,0.0,0.0,0.0,0.0,0.0,0.0,0.0,0.0,0.0,0.0,0.0,0.0,0.0,0.0,0.0,0.0,0.0,0.0,0.0,0.0,0.0,0.0,0.0,0.0,0.0,0.0,0.0,0.0,0.0,0.0,0.0,0.0,0.0,0.0,0.0,0.0,0.0,0.0,0.0086,0.0276,0.0377,0.0,0.0503,0.0582,0.0,0.0903,0.0968,0.0879,0.0717,0.0702,0.022,-0.0718,-0.0687,-0.0748,-0.0811,-0.0828,-0.0843,-0.0909,-0.2015,-0.2416,-0.2512,-0.359,-0.4248,-0.4598,-0.4505,-0.4099,-0.3554,0.2192,0.1677,0.1088,0.0182,0.0,0.0,0.0,0.0,0.0,0.0,0.0,0.0,0.0,0.0,0.0,0.0,0.0,0.0,0.0,0.0,0.0,0.0,0.0,0.0,0.0,0.0,0.0,0.0,0.0,0.0,0.0,0.0,0.0,0.0,0.0,0.0,0.0,0.0,0.0,0.0,0.0,0.0,0.0,0.0,0.0,0.0,0.0,0.0,0.0,0.0,0.0,0.0,0.0,0.0,0.0,0.0,0.0,0.0,0.0,0.0,0.0,0.0,0.0,0.0,0.0,0.0,0.0,0.0,0.0,0.0,0.0,0.0,0.0,0.0,0.0,0.0,0.0,0.0,0.0,0.0,0.0,0.0,0.0,0.0,0.0,0.0,0.0,0.0,0.0089,0.0,0.0,0.0,0.0377,0.0,0.0904,0.0811,0.0929,0.1185,0.084,0.0359,-0.0229,-0.0237,-0.0242,-0.0243,-0.0248,-0.0251,-0.0303,-0.0605,-0.0858,-0.1056,-0.1216,-0.1482,-0.1709,-0.1489,-0.1707,-0.2085,0.3642,0.3059,0.228,0.0987,0.074,0.0555,0.0062,0.0,0.0,0.0,0.0,0.0,0.0,0.0,0.0,0.0,0.0,0.0,0.0,0.0,0.0,0.0,0.0,0.0,0.0,0.0,0.0,0.0,0.0,0.0,0.0,0.0,0.0,0.0,0.0,0.0,0.0,0.0,0.0,0.0,0.0,0.0,0.0,0.0,0.0,0.0,0.0,0.0,0.0,0.0,0.0,0.0,0.0,0.0,0.0,0.0,0.0,0.0,0.0,0.0,0.0,0.0,0.0,0.0,0.0,0.0,0.0,0.0,0.0,0.0,0.0,0.0,0.0,0.0,0.0,0.0,0.0,0.0,0.0,0.0,0.0,0.0,0.0,0.0,0.0,0.0,0.0,0.0,0.0,0.0,0.0168,0.0141,0.0157,0.037,0.0695,0.0696,0.0891,0.1275,0.0898,0.0685,0.0556,0.0386,0.0344,0.0295,0.0301,0.0303,0.0303,0.0303,0.0202,0.005,0.0244,0.0096,-0.024,-0.0047,-0.0188,-0.0569,0.5906,0.4921,0.363,0.0,0.2034,0.1603,0.0309,0.0062,0.0,0.0,0.0,0.0,0.0,0.0,0.0,0.0,0.0,0.0,0.0,0.0,0.0,0.0,0.0,0.0,0.0,0.0,0.0,0.0,0.0,0.0,0.0,0.0,0.0,0.0,0.0,0.0,0.0,0.0,0.0,0.0,0.0,0.0,0.0,0.0,0.0,0.0,0.0,0.0,0.0,0.0,0.0,0.0,0.0,0.0,0.0,0.0,0.0,0.0,0.0,0.0,0.0,0.0,0.0,0.0,0.0,0.0,0.0,-0.0045,0.0,0.0,0.0,0.0,0.0,0.0,0.0,0.0,0.0,0.0,0.0,0.0,0.0,0.0,0.0,0.0,0.0,0.0,0.0,0.0,0.0,0.0,0.0,0.0,0.0,0.0128,0.0392,0.0577,0.0808,0.1079,0.0918,0.1067,0.1489,0.1064,0.0885,0.0837,0.0852,0.0859,0.0859,0.0859,0.0859,0.0857,0.094,0.0589,0.0098,0.0192,0.0532,0.0933,0.0,0.0,0.4983,0.3692,0.2648,0.1912,0.1603,0.0679,0.0,0.0,0.0,0.0,0.0,0.0,0.0,0.0,0.0,0.0,0.0,0.0,0.0,0.0,0.0,0.0,0.0,0.0,0.0,0.0,0.0,0.0,0.0,0.0,0.0,0.0,0.0,0.0,0.0,0.0,0.0,0.0,0.0,0.0,0.0,0.0,0.0,0.0,0.0,0.0,0.0,0.0,0.0,0.0,0.0,0.0,0.0,0.0,0.0,0.0,0.0,0.0,0.0,0.0,0.0,-0.0049,-0.0246,-0.0146,-0.0048,-0.0241,-0.0141,0.0,0.0,0.0,0.0,0.0,0.0,0.0,0.0,0.0,0.0,0.0,0.0,0.0,0.0,0.0,0.0,0.0,0.0,0.0,0.0,0.0,0.0,0.0,0.0,0.0087,0.0305,0.04,0.0678,0.1102,0.0891,0.105,0.1551,0.1042,0.1054,0.1405,0.121,0.1212,0.1415,0.1415,0.1313,0.1109,0.1336,0.1228,0.0932,0.1172,0.1321,0.1427,0.694,0.679,0.6272,0.4931,0.4021,0.3292,0.2683,0.1952,0.1529,0.154,0.1654,0.1528,0.0986,0.0925,0.0679,0.0062,0.0,0.0,0.0,0.0,0.0,0.0,0.0,0.0,0.0,0.0,0.0,0.0,0.0,0.0,0.0,0.0,0.0,0.0,0.0,0.0,0.0,0.0,0.0328,0.0764,0.0218,0.0326,0.0755,0.0216,0.0,0.0,0.0,0.0,0.0,0.0,0.0,0.0,0.0,0.0,0.0,0.0,0.0,0.0,0.0,0.0,0.0,0.0,0.0,-0.0049,-0.0199,-0.0098,-0.0049,-0.0196,-0.0095,0.0,0.0,0.0,0.0,0.0,0.0,0.0,0.0,0.0,0.0,0.0,0.0,0.0,0.0,0.0,0.0,0.0,0.0,0.0,0.0,0.0,0.0,0.0,0.0,0.0044,0.0177,0.0315,0.0551,0.0938,0.0814,0.0972,0.1228,0.0952,0.096,0.1212,0.1061,0.1111,0.1212,0.1212,0.1162,0.106,0.1299,0.1343,0.1244,0.1492,0.1592,0.1594,0.7877,0.7807,0.7368,0.6232,0.5621,0.4951,0.3864,0.3495,0.3326,0.337,0.351,0.3253,0.2201,0.2082,0.1654,0.049,0.043,0.0308,0.0,0.0,0.0,0.0,0.0,0.0,0.0,0.0,0.0117,0.0287,0.0113,0.0169,0.056,0.0336,0.0392,0.056,0.056,0.056,0.056,0.056,0.112,0.1959,0.0953,0.1166,0.1972,0.0933,0.0544,0.0537,0.0322,0.0268,0.0268,0.0054,0.0,0.0,0.0104,0.0154,0.0152,0.0254,0.0253,0.0202,0.0051,0.0,0.0,0.0,0.0,0.0,-0.005,-0.0049,0.0,-0.0049,-0.0048,0.0,0.0,0.0,0.0,-0.0041,0.0,0.0,-0.0036,0.0,0.0,0.0,0.0,0.0,0.0,0.0,0.0,0.0,0.0,0.0,0.0,0.0,0.0,0.0,0.0,0.0,0.0,0.023,0.0422,0.067,0.0682,0.0738,0.0789,0.0702,0.0707,0.0808,0.0758,0.0758,0.0808,0.0808,0.0808,0.0808,0.1061,0.1162,0.1162,0.1415,0.1465,0.1465,0.8065,0.7988,0.7816,0.773,0.6678,0.5703,0.5519,0.4246,0.3313,0.332,0.304,0.2778,0.2608,0.2608,0.249,0.2313,0.2341,0.1703,0.0123,0.0,0.0,0.0,0.0,0.0,0.0,0.0,0.0526,0.1493,0.0516,0.1022,0.3022,0.2015,0.2071,0.3022,0.3022,0.3022,0.3022,0.3022,0.3134,0.3301,0.3134,0.3128,0.3289,0.3122,0.3061,0.2888,0.1889,0.1541,0.136,0.0327,0.0,0.0106,0.0584,0.0734,0.0776,0.1291,0.1379,0.116,0.0252,0.0,0.0,0.0,0.0,-0.005,-0.0303,-0.0151,-0.005,-0.0302,-0.0148,0.0,0.0,0.0,-0.0043,-0.024,-0.0116,-0.0075,-0.0213,0.0,0.0,0.0,0.0,0.0,0.0,0.0,0.0,0.0,0.0,0.0,0.0,0.0,0.0,0.0,0.0,0.0,0.0,0.0047,0.0192,0.044,0.0245,0.0347,0.0805,0.0353,0.0354,0.0808,0.0556,0.0606,0.0808,0.0808,0.0808,0.0808,0.0859,0.0859,0.0859,0.0909,0.0909,0.0909,0.8127,0.8,0.7971,0.8095,0.7457,0.6888,0.6707,0.5995,0.5481,0.5481,0.5247,0.4833,0.4164,0.39,0.3468,0.2766,0.2725,0.2387,0.1503,0.1039,0.0864,0.1049,0.1049,0.1413,0.2073,0.21,0.2372,0.2942,0.2392,0.2651,0.3686,0.312,0.3161,0.358,0.358,0.358,0.358,0.358,0.3971,0.4531,0.386,0.3971,0.4475,0.386,0.358,0.3525,0.2966,0.3004,0.3092,0.1883,0.1697,0.1887,0.1512,0.1388,0.1366,0.1612,0.1637,0.1513,0.1009,0.0858,0.0807,0.0707,0.0556,0.0354,0.0101,0.0,-0.0051,-0.0152,-0.0099,0.0,0.0,0.0,-0.0044,-0.0128,-0.0041,-0.004,-0.0117,-0.004,0.0,0.0,0.0,0.0,0.0,0.0,0.0,0.0,0.0,0.0,0.0,0.0,0.0,0.0,0.0,0.0,0.0,0.0,0.0049,0.0199,0.005,0.015,0.0354,0.0101,0.0152,0.0354,0.0253,0.0253,0.0354,0.0354,0.0354,0.0404,0.0505,0.0606,0.0606,0.0758,0.0808,0.0808,0.8253,0.8103,0.7994,0.8117,0.8038,0.7894,0.765,0.7442,0.7301,0.7301,0.701,0.6426,0.5504,0.509,0.4511,0.3436,0.3327,0.3275,0.3042,0.2462,0.2134,0.2135,0.2204,0.2697,0.3734,0.3763,0.3982,0.4327,0.4037,0.4157,0.4671,0.4383,0.4354,0.4526,0.4451,0.4443,0.4443,0.4424,0.4977,0.5761,0.4808,0.4977,0.5706,0.492,0.4641,0.4583,0.4472,0.4689,0.4908,0.3689,0.36,0.3832,0.3018,0.2713,0.2668,0.2423,0.2066,0.1774,0.1565,0.1463,0.1363,0.1162,0.096,0.0758,0.0556,0.0354,0.0202,0.0202,0.025,0.0246,0.0195,0.0188,0.0136,0.0045,0.0,0.0,-0.0042,-0.0043,0.0,0.0,0.0,0.0,0.0,0.0,0.0,0.0,0.0,0.0,0.0,0.0,0.0,0.0,0.0,0.0,0.0,0.0,0.0,0.0,0.0,0.0,0.0,0.0,0.0,0.0,0.0,0.0,0.0,0.0,0.0,0.0,0.0202,0.0303,0.0354,0.0556,0.0606,0.0606,0.838,0.8299,0.8247,0.8369,0.8291,0.8145,0.8145,0.7544,0.7099,0.7099,0.6449,0.5895,0.5613,0.553,0.5462,0.5246,0.5244,0.4886,0.3967,0.3975,0.36,0.2717,0.2696,0.2956,0.3315,0.342,0.415,0.559,0.4443,0.5058,0.7211,0.6094,0.615,0.7195,0.7086,0.7036,0.7028,0.6977,0.6988,0.7043,0.6985,0.6988,0.7099,0.7543,0.7654,0.7595,0.703,0.6861,0.6747,0.5518,0.5123,0.523,0.5456,0.5452,0.5272,0.4458,0.3346,0.2269,0.1471,0.1061,0.0858,0.0859,0.0808,0.0808,0.0758,0.0758,0.0758,0.0758,0.0958,0.1047,0.077,0.0762,0.0606,0.0176,0.0,0.0,-0.0261,-0.0135,0.0,0.0,0.0,0.0,0.0,0.0,0.0,0.0,0.0,0.0,0.0,0.0,0.0,0.0,0.0,0.0,0.0,0.0,0.0,0.0,0.0,0.0,0.0,0.0,0.0,0.0,0.0,0.0,0.0,0.0,0.0,0.0,0.0,0.0051,0.0051,0.0051,0.0051,0.0051,0.8513,0.8223,0.8075,0.8186,0.7893,0.7578,0.7642,0.7401,0.7222,0.7155,0.6618,0.6219,0.6147,0.5916,0.568,0.5555,0.5522,0.5313,0.4923,0.4892,0.4665,0.3992,0.4729,0.5219,0.5335,0.548,0.5869,0.6674,0.6252,0.6596,0.7633,0.7153,0.7115,0.7516,0.747,0.7451,0.7445,0.7399,0.7606,0.7998,0.7864,0.8057,0.8439,0.8517,0.854,0.8537,0.8309,0.8475,0.8585,0.7357,0.7135,0.7193,0.6528,0.6227,0.6021,0.5632,0.5038,0.44,0.3964,0.2847,0.1767,0.1566,0.1415,0.1263,0.1061,0.0909,0.0808,0.0808,0.0859,0.0956,0.1041,0.093,0.0726,0.0575,0.0,0.0374,0.0797,0.094,0.0988,0.0988,0.0995,0.0714,0.0048,0.0,0.0,0.0,0.0,0.0,0.0,0.0,0.0,0.0,0.0,0.0,0.0,0.0,0.0,0.0,0.0,0.0,0.0,0.0,0.0,0.0,0.0,0.0,0.0,0.0,0.0,0.0,0.0,0.0,0.0,0.0,0.0,0.0,0.8256,0.7989,0.7789,0.7925,0.7591,0.73,0.736,0.7283,0.7191,0.712,0.6792,0.6475,0.6412,0.6104,0.5847,0.57,0.5629,0.5557,0.5469,0.5437,0.5291,0.4917,0.5758,0.6299,0.6418,0.6521,0.6884,0.7454,0.7475,0.7675,0.8059,0.8059,0.8071,0.8041,0.806,0.8099,0.8154,0.8113,0.8387,0.8781,0.8689,0.8879,0.9322,0.9328,0.9342,0.9339,0.9513,0.9832,1.005,0.9158,0.8975,0.9034,0.8143,0.7313,0.6689,0.6503,0.6077,0.5552,0.5488,0.4345,0.3097,0.2527,0.1969,0.1566,0.1364,0.1162,0.1061,0.1061,0.1111,0.121,0.1303,0.1442,0.1537,0.1548,0.1523,0.1748,0.2346,0.2382,0.2318,0.2305,0.2315,0.2033,0.1212,0.1108,0.1108,0.1018,0.1013,0.1012,0.1018,0.0983,0.0846,0.0504,0.0505,0.0353,0.0,0.0,0.0,0.0,0.0,0.0,0.0,0.0,0.0,0.0,0.0,0.0,0.0,0.0,0.0,0.0,0.0,0.0,0.0,0.0,0.0,0.0,0.7526,0.7526,0.7526,0.7526,0.7526,0.7459,0.7459,0.7187,0.6985,0.6985,0.6719,0.645,0.6202,0.6182,0.6074,0.5806,0.5784,0.5745,0.5592,0.5559,0.5471,0.5444,0.5463,0.5682,0.597,0.6069,0.6634,0.7687,0.769,0.8116,0.8915,0.8915,0.9034,0.9268,0.9247,0.9361,0.9585,0.9552,0.9487,0.9487,0.9483,0.9483,0.9603,1.0127,1.0301,1.0397,1.0807,1.1028,1.0944,1.0757,1.0692,1.0637,1.0366,0.9034,0.7537,0.7207,0.6241,0.5345,0.5343,0.521,0.4789,0.3542,0.2422,0.1617,0.1617,0.1617,0.1617,0.1617,0.1819,0.1909,0.1676,0.249,0.3203,0.3187,0.3622,0.404,0.4208,0.4116,0.394,0.3821,0.3924,0.3917,0.362,0.3609,0.35,0.3219,0.3217,0.321,0.3219,0.3224,0.272,0.1664,0.1613,0.111,0.005,0.0,0.0,0.0,0.0,0.0,0.0,0.0,0.0,0.0,0.0,0.0,0.0,0.0,0.0,0.0,0.0,0.0,0.0,0.0,0.0,0.0,0.7526,0.7323,0.7121,0.7121,0.6989,0.6788,0.6788,0.6721,0.6654,0.6654,0.6587,0.65,0.6444,0.6315,0.6219,0.6074,0.6006,0.609,0.6407,0.6359,0.6459,0.6944,0.6443,0.6251,0.6367,0.695,0.7479,0.8053,0.8136,0.8441,0.8915,0.8915,0.8915,0.9034,0.8994,0.9153,0.9389,0.9346,0.9746,1.039,1.0284,1.0476,1.093,1.0925,1.0936,1.0928,1.1106,1.1147,1.1122,1.0944,1.0655,1.0185,0.9521,0.8933,0.8491,0.838,0.8128,0.7798,0.7705,0.7082,0.6177,0.4858,0.4165,0.3823,0.3823,0.3274,0.2723,0.2723,0.217,0.1765,0.1856,0.2012,0.2316,0.3098,0.3158,0.3612,0.4984,0.5153,0.5109,0.5083,0.5103,0.482,0.3967,0.3701,0.3548,0.3469,0.3306,0.3204,0.3222,0.3224,0.3073,0.272,0.272,0.2503,0.2124,0.0702,0.0,0.0,0.0,0.0,0.0,0.0,0.0,0.0,0.0,0.0,0.0,0.0,0.0,0.0,0.0,0.0,0.0,0.0,0.0,0.0,0.7125,0.6922,0.6786,0.6786,0.6652,0.652,0.652,0.652,0.652,0.652,0.652,0.652,0.652,0.6404,0.6464,0.6632,0.6792,0.706,0.7362,0.7268,0.7357,0.7771,0.7482,0.7222,0.6944,0.7383,0.7833,0.8411,0.8489,0.8796,0.9278,0.9278,0.9339,0.946,0.946,0.964,0.9879,0.9879,1.0243,1.0781,1.0804,1.1065,1.1411,1.1425,1.1443,1.1431,1.1358,1.133,1.1305,1.1126,1.0738,1.0152,0.9384,0.9151,0.9051,0.8937,0.8885,0.8865,0.8825,0.8266,0.7532,0.6735,0.5695,0.492,0.4935,0.4475,0.3976,0.3976,0.3476,0.3024,0.3075,0.3325,0.3728,0.4475,0.4776,0.5261,0.6462,0.6597,0.6509,0.6459,0.6498,0.6276,0.5472,0.5277,0.5077,0.4876,0.473,0.458,0.4477,0.4477,0.4279,0.3827,0.3827,0.3606,0.307,0.1854,0.1256,0.1197,0.1197,0.1201,0.1261,0.0807,0.0656,0.0606,0.0202,0.0,0.0,0.0,0.0,0.0,0.0,0.0,0.0,0.0,0.0,0.0,0.6721,0.6654,0.6587,0.6587,0.652,0.652,0.652,0.652,0.652,0.652,0.652,0.652,0.652,0.652,0.6754,0.7259,0.786,0.8242,0.8367,0.8217,0.8144,0.8194,0.8558,0.8488,0.7833,0.7659,0.7994,0.875,0.875,0.9118,0.9802,0.9802,0.993,1.0243,1.0243,1.0425,1.0789,1.0789,1.0789,1.0849,1.1137,1.1249,1.1253,1.1627,1.1752,1.1732,1.1581,1.1524,1.1496,1.1251,1.0849,1.0364,0.9776,0.9454,0.9341,0.8995,0.8885,0.8885,0.8885,0.8835,0.8726,0.8713,0.707,0.5424,0.5519,0.5436,0.5329,0.5379,0.5279,0.5177,0.4924,0.5629,0.6384,0.6731,0.7385,0.7944,0.8153,0.8055,0.7938,0.7848,0.7907,0.7892,0.7646,0.7596,0.7397,0.6895,0.6842,0.6742,0.6437,0.6437,0.5987,0.4985,0.4935,0.4477,0.3466,0.3466,0.3339,0.2993,0.2993,0.307,0.3173,0.2167,0.1765,0.1714,0.0707,0.0303,0.0303,0.0303,0.0252,0.0151,0.0151,0.0101,0.0,0.0,0.0,0.0,0.8123,0.7653,0.7316,0.7316,0.6853,0.652,0.652,0.652,0.652,0.652,0.652,0.652,0.652,0.652,0.6579,0.6691,0.7262,0.8047,0.9083,0.9063,0.918,0.9572,0.9548,0.9516,0.9302,0.9166,0.9189,0.9253,0.9253,0.9389,0.9656,0.9656,0.9713,0.9883,0.9883,1.0061,1.0425,1.0425,1.0547,1.0778,1.0774,1.0725,1.0785,1.1145,1.1264,1.128,1.1619,1.1715,1.1627,1.0972,1.039,0.9885,0.9415,0.9243,0.9198,0.8971,0.8885,0.8885,0.8885,0.8858,0.8804,0.874,0.8283,0.7902,0.7962,0.7157,0.6528,0.6725,0.6074,0.5475,0.5422,0.5427,0.5729,0.6631,0.6783,0.7027,0.7898,0.8018,0.7978,0.7944,0.7968,0.7992,0.7942,0.7746,0.7444,0.7138,0.7089,0.6989,0.6742,0.6692,0.6489,0.6084,0.6034,0.5897,0.5615,0.5615,0.4804,0.3154,0.3154,0.3161,0.3173,0.2972,0.2871,0.2821,0.262,0.2519,0.2519,0.2519,0.2016,0.1261,0.1261,0.0757,0.0,0.0,0.0,0.0,0.8587,0.8318,0.8051,0.8051,0.772,0.7522,0.7522,0.7522,0.7522,0.7522,0.7522,0.7522,0.7522,0.7522,0.7653,0.7987,0.8596,0.9288,0.9946,0.9942,0.9957,1.0199,1.012,1.0005,0.9869,0.9785,0.9639,0.949,0.9557,0.9598,0.9612,0.968,0.9751,0.9822,0.9822,0.9845,0.9964,1.0034,1.0102,1.0143,1.0321,1.0332,1.0321,1.061,1.0727,1.0739,1.1008,1.1153,1.1164,1.0613,1.0211,0.9783,0.9487,0.9326,0.9193,0.9062,0.9042,0.9025,0.8902,0.8885,0.8865,0.8838,0.8764,0.8705,0.8789,0.8354,0.7935,0.8083,0.7672,0.7276,0.7173,0.7024,0.7077,0.7677,0.763,0.773,0.8283,0.8283,0.8187,0.8187,0.8088,0.7988,0.7988,0.7892,0.7693,0.7391,0.7391,0.7291,0.6992,0.6892,0.6742,0.6589,0.6487,0.6357,0.635,0.6347,0.578,0.4728,0.469,0.4692,0.4728,0.4178,0.3977,0.3927,0.3425,0.3224,0.3224,0.3224,0.2871,0.2368,0.2368,0.2016,0.1513,0.1513,0.121,0.0757,0.8987,0.8853,0.8787,0.8787,0.8653,0.8587,0.8587,0.8587,0.8587,0.8587,0.8587,0.8587,0.8587,0.8587,0.892,0.9646,1.0183,1.0585,1.0721,1.0602,1.0521,1.0493,1.0378,1.0246,1.0031,0.9964,0.9805,0.9608,0.97,0.97,0.9612,0.973,0.9798,0.9819,0.9795,0.972,0.9615,0.9707,0.9622,0.9487,0.9825,0.9921,0.9884,1.0171,1.0269,1.025,1.0334,1.0435,1.0517,1.0346,1.0112,0.9824,0.9637,0.9435,0.9282,0.9258,0.9231,0.9183,0.9008,0.8902,0.8885,0.8885,0.879,0.877,0.8863,0.9005,0.9072,0.9119,0.9194,0.9176,0.8969,0.8893,0.8874,0.8874,0.8825,0.8825,0.8825,0.8627,0.8482,0.8482,0.8233,0.8088,0.8088,0.8038,0.7892,0.7696,0.7646,0.7543,0.7288,0.7042,0.6895,0.6795,0.6589,0.6437,0.6387,0.6387,0.6387,0.6384,0.6342,0.6344,0.6387,0.5486,0.5085,0.5035,0.4128,0.3726,0.3726,0.3726,0.3626,0.3475,0.3475,0.3374,0.3224,0.3224,0.262,0.1865,1.0386,0.9918,0.9582,0.9582,0.905,0.8587,0.8587,0.8587,0.8587,0.8587,0.8587,0.8587,0.8587,0.8587,0.892,0.9646,0.9782,1.0047,1.0651,1.07,1.0629,1.0497,1.0473,1.0395,1.0253,1.0229,1.0019,0.9608,0.9496,0.95,0.9608,0.9629,0.9703,0.9815,0.9693,0.9629,0.9602,0.949,0.9493,0.9568,0.9514,0.9538,0.9696,0.9992,1.008,1.0037,1.041,1.0421,1.0143,1.0164,0.9993,0.9804,0.9642,0.9581,0.952,0.9391,0.9313,0.9207,0.9187,0.9032,0.8885,0.8885,0.8868,0.8903,0.8882,0.893,0.8985,0.9246,0.9366,0.9447,0.9396,0.928,0.9133,0.9133,0.8928,0.8825,0.8825,0.8775,0.8726,0.8726,0.8528,0.8333,0.8333,0.8137,0.7988,0.7939,0.7939,0.7842,0.7547,0.7497,0.7294,0.6795,0.6742,0.6639,0.6387,0.6387,0.6387,0.6387,0.6371,0.6371,0.6387,0.6237,0.6187,0.6187,0.6034,0.5984,0.5984,0.5984,0.5434,0.4582,0.4582,0.4029,0.3224,0.3224,0.3123,0.2972,1.0721,1.0452,1.025,1.025,0.9984,0.9785,0.9785,0.9785,0.9785,0.9785,0.9785,0.9785,0.9785,0.9785,0.9921,1.025,1.025,1.0386,1.0654,1.0721,1.069,1.0622,1.0619,1.0588,1.0527,1.0443,1.03,1.01,0.9954,0.9829,0.973,0.9815,0.9842,0.9819,0.9754,0.9683,0.9608,0.9622,0.9571,0.9483,0.9503,0.9496,0.9483,0.9659,0.9672,0.9634,0.9967,0.9965,0.9856,0.988,0.9837,0.9707,0.9724,0.9673,0.9595,0.953,0.9459,0.9371,0.9255,0.9163,0.9039,0.8902,0.8885,0.8885,0.8885,0.889,0.8986,0.9317,0.938,0.9423,0.9574,0.9489,0.9373,0.9373,0.9291,0.9225,0.9225,0.8977,0.8726,0.8577,0.8482,0.8482,0.8627,0.8531,0.8432,0.8432,0.8432,0.8382,0.8283,0.8137,0.7939,0.7686,0.754,0.7391,0.7288,0.7288,0.7138,0.6836,0.6836,0.6686,0.6387,0.6387,0.6387,0.6387,0.6387,0.6387,0.6387,0.6387,0.6134,0.5687,0.5687,0.5384,0.4979,0.4979,0.463,0.4079]}]]